[[{"header":{"parameterUnit":"m.s-1","parameterCategory":1,"la1":31.0,"la2":29.5877,"lo1":-88.7671,"lo2":-86.6584,"dy":0.0162,"dx":0.0185,"nx":115,"ny":88,"refTime":"2023-06-03T18:00:00:Z","depth":0,"parameterNumber":2,"parameterNumberName":"U-component_of_WINDS"},"data":[0.0,0.0,0.0,0.0,0.0,0.0,0.0,0.0,0.0,0.0,0.0,0.0,0.0,0.0,0.0,0.0,0.0,0.0,0.0,0.0,0.0,0.0,0.0,0.0,0.0,0.0,0.0,0.0,0.0,0.0,0.0,0.0,0.0,0.0,0.0,0.0,0.0,0.0,0.0,0.0,0.0,0.0,0.0,0.0,0.0,0.0,0.0,0.0,0.0,0.0,0.0,0.0,0.0,0.0,0.0,0.0,0.0,0.0,0.0,0.0,0.0,0.0,0.0,0.0,0.0,0.0,0.0,0.0,0.0,0.0,0.0,0.0,0.0,0.0,0.0,0.0,0.0,0.0,0.0,0.0,0.0,0.0,0.0,0.0,0.0,0.0,0.0,0.0,0.0,0.0,0.0,0.0,0.0,0.0,0.0,0.0,0.0,0.0,0.0,0.0,0.0,0.0,0.0,0.0,0.0,0.0,0.0,0.0,0.0,0.0,0.0,0.0,0.0,0.0,0.0,0.0,0.0,0.0,0.0,0.0,0.0,0.0,0.0,0.0,0.0,0.0,0.0,0.0,0.0,0.0,0.0,0.0,0.0,0.0,0.0,0.0,0.0,0.0,0.0,0.0,0.0,0.0,0.0,0.0,0.0,0.0,0.0,0.0,0.0,0.0,0.0,0.0,0.0,0.0,0.0,0.0,0.0,0.0,0.0,0.0,0.0,0.0,0.0,0.0,0.0,0.0,0.0,0.0,0.0,0.0,0.0,0.0,0.0,0.0,0.0,0.0,0.0,0.0,0.0,0.0,0.0,0.0,0.0,0.0,0.0,0.0,0.0,0.0,0.0,0.0,0.0,0.0,0.0,0.0,0.0,0.0,0.0,0.0,0.0,0.0,0.0,0.0,0.0,0.0,0.0,0.0,0.0,0.0,0.0,0.0,0.0,0.0,0.0,0.0,0.0,0.0,0.0,0.0,0.0,0.0,0.0,0.0,0.0,0.0,0.0,0.0,0.0,0.0,0.0,0.0,0.0,0.0,0.0,0.0,0.0,0.0,0.0,0.0,0.0,0.0,0.0,0.0,0.0,0.0,0.0,0.0,0.0,0.0,0.0,0.0,0.0,0.0,0.0,0.0,0.0,0.0,0.0,0.0,0.0,0.0,0.0,0.0,0.0,0.0,0.0,0.0,0.0,0.0,0.0,0.0,0.0,0.0,0.0,0.0,0.0,0.0,0.0,0.0,0.0,0.0,0.0,0.0,0.0,0.0,0.0,0.0,0.0,0.0,0.0,0.0,0.0,0.0,0.0,0.0,0.0,0.0,0.0,0.0,0.0,0.0,0.0,0.0,0.0,0.0,0.0,0.0,0.0,0.0,0.0,0.0,0.0,0.0,0.0,0.0,0.0,0.0,0.0,0.0,0.0,0.0,0.0,0.0,0.0,0.0,0.0,0.0,0.0,0.0,0.0,0.0,0.0,0.0,0.0,0.0,0.0,0.0,0.0,0.0,0.0,0.0,0.0,0.0,0.0,0.0,0.0,0.0,0.0,0.0,0.0,0.0,0.0,0.0,0.0,0.0,0.0,0.0,0.0,0.0,0.0,0.0,0.0,0.0,0.0,0.0,0.0,0.0,0.0,0.0,0.0,0.0,0.0,0.0,0.0,0.0,0.0,0.0,0.0,0.0,0.0,0.0,0.0,0.0,0.0,0.0,0.0,0.0,0.0,0.0,0.0,0.0,0.0,0.0,0.0,0.0,0.0,0.0,0.0,0.0,0.0,0.0,0.0,0.0,0.0,0.0,0.0,0.0,0.0,0.0,0.0,0.0,0.0,0.0,0.0,0.0,0.0,0.0,0.0,0.0,0.0,0.0,0.0,0.0,0.0,0.0,0.0,0.0,0.0,0.0,0.0,0.0,0.0,0.0,0.0,0.0,0.0,0.0,0.0,0.0,0.0,0.0,0.0,0.0,0.0,0.0,0.0,0.0,0.0,0.0,0.0,0.0,0.0,0.0,0.0,0.0,0.0,0.0,0.0,0.0,0.0,0.0,0.0,0.0,0.0,0.0,0.0,0.0,0.0,0.0,0.0,0.0,0.0,0.0,0.0,0.0,0.0,0.0,0.0,0.0,0.0,0.0,0.0,0.0,0.0,0.0,0.0,0.0,0.0,0.0,0.0,0.0,0.0,0.0,0.0,0.0,0.0,0.0,0.0,0.0,0.0,0.0,0.0,0.0,0.0,0.0,0.0,0.0,0.0,0.0,0.0,0.0,0.0,0.0,0.0,0.0,0.0,0.0,0.0,0.0,0.0,0.0,0.0,0.0,0.0,0.0,0.0,0.0,0.0,0.0,0.0,0.0,0.0,0.0,0.0,0.0,0.0,0.0,0.0,0.0,0.0,0.0,0.0,0.0,0.0,0.0,0.0,0.0,0.0,0.0,0.0,0.0,0.0,0.0,0.0,0.0,0.0,0.0,0.0,0.0,0.0,0.0,0.0,0.0,0.0,0.0,0.0,0.0,0.0,0.0,0.0,0.0,0.0,0.0,0.0,0.0,0.0,0.0,0.0,0.0,0.0,0.0,0.0,0.0,0.0,0.0,0.0,0.0,0.0,0.0,0.0,0.0,0.0,0.0,0.0,0.0,0.0,0.0,0.0,0.0,0.0,0.0,0.0,0.0,0.0,0.0,0.0,0.0,0.0,0.0,0.0,0.0,0.0,0.0,0.0,0.0,0.0,0.0,0.0,0.0,0.0,0.0,0.0,0.0,0.0,0.0,0.0,0.0,0.0,0.0,0.0,0.0,0.0,0.0,0.0,0.0,0.0,0.0,0.0,0.0,0.0,0.0,0.0,0.0,0.0,0.0,0.0,0.0,0.0,0.0,0.0,0.0,0.0,0.0,0.0,0.0,0.0,0.0,0.0,0.0,0.0,0.0,0.0,0.0,0.0,0.0,0.0,0.0,0.0,0.0,0.0,0.0,0.0,0.0,0.0,0.0,0.0,0.0,0.0,0.0,0.0,0.0,0.0,0.0,0.0,0.0,0.0,0.0,0.0,0.0,0.0,0.0,0.0,0.0,0.0,0.0,0.0,0.0,0.0,0.0,0.0,0.0,0.0,0.0,0.0,0.0,0.0,0.0,0.0,0.0,0.0,0.0,0.0,0.0,0.0,0.0,0.0,0.0,0.0,0.0,0.0,0.0,0.0,0.0,0.0,0.0,0.0,0.0,0.0,0.0,0.0,0.0,0.0,0.0,0.0,0.0,0.0,0.0,0.0,0.0,0.0,0.0,0.0,0.0,0.0,0.0,0.0,0.0,0.0,0.0,0.0,0.0,0.0,0.0,0.0,0.0,0.0,0.0,0.0,0.0,0.0,0.0,0.0,0.0,0.0,0.0,0.0,0.0,0.0,0.0,0.0,0.0,0.0,0.0,0.0,0.0,0.0,0.0,0.0,0.0,0.0,0.0,0.0,0.0,0.0,0.0,0.0,0.0,0.0,0.0,0.0,0.0,0.0,0.0,0.0,0.0,0.0,0.0,0.0,0.0,0.0,0.0,0.0,0.0,0.0,0.0,0.0,0.0,0.0,0.0,0.0,0.0,0.0,0.0,0.0,0.0,0.0,0.0,0.0,0.0,0.0,0.0,0.0,0.0,0.0,0.0,0.0,0.0,0.0,0.0,0.0,0.0,0.0,0.0,0.0,0.0,0.0,0.0,0.0,0.0,0.0,0.0,0.0,0.0,0.0,0.0,0.0,0.0,0.0,0.0,0.0,0.0,0.0,0.0,0.0,0.0,0.0,0.0,0.0,0.0,0.0,0.0,0.0,0.0,0.0,0.0,0.0,0.0,0.0,0.0,0.0,0.0,0.0,0.0,0.0,0.0,0.0,0.0,0.0,0.0,0.0,0.0,0.0,0.0,0.0,0.0,0.0,0.0,0.0,0.0,0.0,0.0,0.0,0.0,0.0,0.0,0.0,0.0,0.0,0.0,0.0,0.0,0.0,0.0,0.0,0.0,0.0,0.0,0.0,0.0,0.0,0.0,0.0,0.0,0.0,0.0,0.0,0.0,0.0,0.0,0.0,0.0,0.0,0.0,0.0,0.0,0.0,0.0,0.0,0.0,0.0,0.0,0.0,0.0,0.0,0.0,0.0,0.0,0.0,0.0,0.0,0.0,0.0,0.0,0.0,0.0,0.0,0.0,0.0,0.0,0.0,0.0,0.0,0.0,0.0,0.0,0.0,0.0,0.0,0.0,0.0,0.0,0.0,0.0,0.0,0.0,0.0,0.0,1.7785,0.0,0.0,0.0,0.0,0.0,0.0,0.0,0.0,0.0,0.0,0.0,0.0,0.0,0.0,0.0,0.0,0.0,0.0,0.0,0.0,0.0,0.0,0.0,0.0,0.0,0.0,0.0,0.0,0.0,0.0,0.0,0.0,0.0,0.0,0.0,0.0,0.0,0.0,0.0,0.0,0.0,0.0,0.0,0.0,0.0,0.0,0.0,0.0,0.0,0.0,0.0,0.0,0.0,0.0,0.0,0.0,0.0,0.0,0.0,0.0,0.0,0.0,0.0,0.0,0.0,0.0,0.0,0.0,0.0,0.0,0.0,0.0,0.0,0.0,0.0,0.0,0.0,0.0,0.0,0.0,0.0,0.0,0.0,0.0,0.0,0.0,0.0,0.0,0.0,0.0,0.0,0.0,0.0,0.0,0.0,0.0,0.0,0.0,0.0,0.0,0.0,0.0,0.0,0.0,0.0,0.0,0.0,0.0,0.0,0.0,1.6821,1.604,1.6769,1.7607,1.8476,0.0,0.0,0.0,0.0,0.0,0.0,0.0,0.0,0.0,0.0,0.0,0.0,0.0,0.0,0.0,0.0,0.0,0.0,0.0,0.0,0.0,0.0,0.0,0.0,0.0,0.0,0.0,0.0,0.0,0.0,0.0,0.0,0.0,0.0,0.0,0.0,0.0,0.0,0.0,0.0,0.0,0.0,0.0,0.0,0.0,0.0,0.0,0.0,0.0,0.0,0.0,0.0,0.0,0.0,0.0,0.0,0.0,0.0,0.0,0.0,0.0,0.0,0.0,0.0,0.0,0.0,0.0,0.0,0.0,0.0,0.0,0.0,0.0,0.0,0.0,0.0,0.0,0.0,0.0,0.0,0.0,0.0,0.0,0.0,0.0,0.0,0.0,0.0,0.0,0.0,0.0,0.0,0.0,0.0,0.0,0.0,0.0,0.0,0.0,0.0,0.0,0.0,0.0,0.0,0.0,0.0,0.0,0.0,0.0,0.0,0.0,0.0,1.7171,1.7951,1.9599,0.0,0.0,0.0,0.0,0.0,0.0,0.0,0.0,0.0,0.0,0.0,0.0,0.0,0.0,0.0,0.0,0.0,0.0,0.0,0.0,0.0,0.0,0.0,0.0,0.0,0.0,0.0,0.0,0.0,0.0,0.0,0.0,0.0,0.0,0.0,0.0,0.0,0.0,0.0,0.0,0.0,0.0,0.0,0.0,0.0,0.0,0.0,0.0,0.0,0.0,0.0,0.0,0.0,0.0,0.0,0.0,0.0,0.0,0.0,0.0,0.0,0.0,0.0,0.0,0.0,0.0,0.0,0.0,0.0,0.0,0.0,0.0,0.0,0.0,0.0,0.0,0.0,0.0,0.0,0.0,0.0,0.0,0.0,0.0,0.0,0.0,0.0,0.0,0.0,0.0,0.0,0.0,0.0,0.0,0.0,0.0,0.0,0.0,0.0,0.0,0.0,0.0,0.0,0.0,0.0,0.0,0.0,0.0,0.0,0.0,1.8139,1.8848,1.8857,0.0,2.1294,0.0,0.0,0.0,0.0,0.0,0.0,0.0,0.0,0.0,0.0,0.0,0.0,0.0,0.0,0.0,0.0,0.0,0.0,0.0,0.0,0.0,0.0,0.0,0.0,0.0,0.0,0.0,0.0,0.0,0.0,0.0,0.0,0.0,0.0,0.0,0.0,0.0,0.0,0.0,0.0,0.0,0.0,0.0,0.0,0.0,0.0,0.0,0.0,0.0,0.0,0.0,0.0,0.0,0.0,0.0,0.0,0.0,0.0,0.0,0.0,0.0,0.0,0.0,0.0,0.0,0.0,0.0,0.0,0.0,0.0,0.0,0.0,0.0,0.0,0.0,0.0,0.0,0.0,0.0,0.0,0.0,0.0,0.0,0.0,0.0,0.0,0.0,0.0,0.0,0.0,0.0,0.0,0.0,0.0,0.0,0.0,0.0,0.0,0.0,0.0,0.0,0.0,0.0,0.0,0.0,0.0,0.0,0.0,0.0,0.0,1.8818,1.9152,1.9604,2.0203,0.0,0.0,0.0,0.0,0.0,0.0,0.0,0.0,0.0,0.0,0.0,0.0,0.0,0.0,0.0,0.0,0.0,0.0,0.0,0.0,0.0,0.0,0.0,0.0,0.0,0.0,0.0,0.0,0.0,0.0,0.0,0.0,0.0,0.0,0.0,0.0,0.0,0.0,0.0,0.0,0.0,0.0,0.0,0.0,0.0,0.0,0.0,0.0,0.0,0.0,0.0,0.0,0.0,0.0,0.0,0.0,0.0,0.0,0.0,0.0,0.0,0.0,0.0,0.0,0.0,0.0,0.0,0.0,0.0,0.0,0.0,0.0,0.0,0.0,0.0,0.0,0.0,0.0,0.0,0.0,0.0,0.0,0.0,0.0,0.0,0.0,0.0,0.0,0.0,0.0,0.0,0.0,0.0,0.0,0.0,0.0,0.0,0.0,0.0,0.0,0.0,0.0,0.0,0.0,0.0,0.0,0.0,0.0,0.0,0.0,1.9109,1.9435,1.9875,2.0438,2.0751,2.0748,0.0,0.0,0.0,0.0,0.0,0.0,0.0,0.0,0.0,0.0,0.0,0.0,0.0,0.0,0.0,0.0,0.0,0.0,0.0,0.0,0.0,0.0,0.0,0.0,0.0,0.0,0.0,0.0,0.0,0.0,0.0,0.0,0.0,0.0,0.0,0.0,0.0,0.0,0.0,0.0,0.0,0.0,0.0,0.0,0.0,0.0,0.0,0.0,0.0,0.0,0.0,0.0,0.0,0.0,0.0,0.0,0.0,0.0,0.0,0.0,0.0,0.0,0.0,0.0,0.0,0.0,0.0,0.0,0.0,0.0,0.0,0.0,0.0,0.0,0.0,0.0,0.0,0.0,0.0,0.0,0.0,0.0,0.0,0.0,0.0,0.0,0.0,0.0,0.0,0.0,0.0,0.0,0.0,0.0,0.0,0.0,0.0,0.0,0.0,0.0,0.0,0.0,0.0,0.0,0.0,0.0,0.0,0.0,2.1361,2.0029,1.9981,2.1521,2.1629,2.1648,0.0,0.0,0.0,0.0,0.0,0.0,0.0,0.0,0.0,0.0,0.0,0.0,0.0,0.0,0.0,0.0,0.0,0.0,0.0,0.0,0.0,0.0,0.0,0.0,0.0,0.0,0.0,0.0,0.0,0.0,0.0,0.0,0.0,0.0,0.0,0.0,0.0,0.0,0.0,0.0,0.0,0.0,0.0,0.0,0.0,0.0,0.0,0.0,0.0,0.0,0.0,0.0,0.0,0.0,0.0,0.0,0.0,0.0,0.0,0.0,0.0,0.0,0.0,0.0,0.0,0.0,0.0,0.0,0.0,0.0,0.0,0.0,0.0,0.0,0.0,0.0,0.0,0.0,0.0,0.0,0.0,0.0,0.0,0.0,0.0,0.0,0.0,0.0,0.0,0.0,0.0,0.0,0.0,0.0,0.0,0.0,0.0,0.0,0.0,0.0,0.0,0.0,0.0,0.0,0.0,0.0,0.0,0.0,0.0,2.0142,2.1113,2.1954,2.2511,2.3065,2.284,0.0,0.0,0.0,0.0,0.0,0.0,0.0,0.0,0.0,0.0,0.0,0.0,0.0,0.0,0.0,0.0,0.0,0.0,0.0,0.0,0.0,0.0,0.0,0.0,0.0,0.0,0.0,0.0,0.0,0.0,0.0,0.0,0.0,0.0,0.0,0.0,0.0,0.0,0.0,0.0,0.0,0.0,0.0,0.0,0.0,0.0,0.0,0.0,0.0,0.0,0.0,0.0,0.0,0.0,0.0,0.0,0.0,0.0,0.0,0.0,0.0,0.0,0.0,0.0,0.0,0.0,0.0,0.0,0.0,0.0,0.0,0.0,0.0,0.0,0.0,0.0,0.0,0.0,0.0,0.0,0.0,0.0,0.0,0.0,0.0,0.0,0.0,0.0,0.0,0.0,0.0,0.0,0.0,0.0,0.0,0.0,0.0,0.0,0.0,0.0,0.0,0.0,0.0,0.0,0.0,0.0,0.0,0.0,0.0,2.0136,0.0,2.3473,2.3423,2.3972,2.3566,0.0,0.0,0.0,0.0,0.0,0.0,0.0,0.0,0.0,0.0,0.0,0.0,0.0,0.0,0.0,0.0,0.0,0.0,0.0,0.0,0.0,0.0,0.0,0.0,0.0,0.0,0.0,0.0,0.0,0.0,0.0,0.0,0.0,0.0,0.0,0.0,0.0,0.0,0.0,0.0,0.0,0.0,0.0,0.0,0.0,0.0,0.0,0.0,0.0,0.0,0.0,0.0,0.0,0.0,0.0,0.0,0.0,0.0,0.0,0.0,0.0,0.0,0.0,0.0,0.0,0.0,0.0,0.0,0.0,0.0,0.0,0.0,0.0,0.0,0.0,0.0,0.0,0.0,0.0,0.0,0.0,0.0,0.0,0.0,0.0,0.0,0.0,0.0,0.0,0.0,0.0,0.0,0.0,0.0,0.0,0.0,0.0,0.0,0.0,0.0,0.0,0.0,0.0,0.0,0.0,0.0,0.0,0.0,2.1047,2.1838,2.3441,2.4341,2.4329,2.4296,2.3828,0.0,0.0,0.0,0.0,0.0,0.0,0.0,0.0,0.0,0.0,0.0,0.0,0.0,0.0,0.0,0.0,0.0,0.0,0.0,0.0,0.0,0.0,0.0,0.0,0.0,0.0,0.0,0.0,0.0,0.0,0.0,0.0,0.0,0.0,0.0,0.0,0.0,0.0,0.0,0.0,0.0,0.0,0.0,0.0,0.0,0.0,0.0,0.0,0.0,0.0,0.0,0.0,0.0,0.0,0.0,0.0,0.0,0.0,0.0,0.0,0.0,0.0,0.0,0.0,0.0,0.0,0.0,0.0,0.0,0.0,0.0,0.0,0.0,0.0,0.0,0.0,0.0,0.0,0.0,0.0,0.0,0.0,0.0,0.0,0.0,0.0,0.0,0.0,0.0,0.0,0.0,0.0,0.0,0.0,0.0,0.0,0.0,0.0,0.0,0.0,0.0,0.0,0.0,0.0,0.0,0.0,0.0,0.0,0.0,2.3595,2.4693,2.5512,2.5977,2.5432,2.4923,0.0,0.0,0.0,0.0,0.0,0.0,0.0,0.0,0.0,0.0,0.0,0.0,0.0,0.0,0.0,0.0,0.0,0.0,0.0,0.0,0.0,0.0,0.0,0.0,0.0,0.0,0.0,0.0,0.0,0.0,0.0,0.0,0.0,0.0,0.0,0.0,0.0,0.0,0.0,0.0,0.0,0.0,0.0,0.0,0.0,0.0,0.0,0.0,0.0,0.0,0.0,0.0,0.0,0.0,0.0,0.0,0.0,0.0,0.0,0.0,0.0,0.0,0.0,0.0,0.0,0.0,0.0,0.0,0.0,0.0,0.0,0.0,0.0,0.0,0.0,0.0,0.0,0.0,0.0,0.0,0.0,0.0,0.0,0.0,0.0,0.0,0.0,0.0,0.0,0.0,0.0,0.0,0.0,0.0,0.0,0.0,0.0,0.0,0.0,0.0,0.0,0.0,0.0,0.0,0.0,0.0,0.0,0.0,0.0,2.5375,2.5866,2.6345,2.6786,2.6234,2.5738,2.5303,0.0,0.0,0.0,0.0,0.0,0.0,0.0,0.0,0.0,0.0,0.0,0.0,0.0,0.0,0.0,0.0,0.0,0.0,0.0,0.0,0.0,0.0,0.0,0.0,0.0,0.0,0.0,0.0,0.0,0.0,0.0,0.0,0.0,0.0,0.0,0.0,0.0,0.0,0.0,0.0,0.0,0.0,0.0,0.0,0.0,0.0,0.0,0.0,0.0,0.0,0.0,0.0,0.0,0.0,0.0,0.0,0.0,0.0,0.0,0.0,0.0,0.0,0.0,0.0,0.0,0.0,0.0,0.0,0.0,0.0,0.0,0.0,0.0,0.0,0.0,0.0,0.0,0.0,0.0,0.0,0.0,0.0,0.0,0.0,0.0,0.0,0.0,0.0,0.0,0.0,0.0,0.0,0.0,0.0,0.0,0.0,0.0,0.0,0.0,0.0,0.0,0.0,0.0,0.0,0.0,0.0,0.0,0.0,2.7054,2.7094,2.7084,2.6974,2.6854,2.6351,0.0,0.0,0.0,0.0,0.0,0.0,0.0,0.0,0.0,0.0,0.0,0.0,0.0,0.0,0.0,0.0,0.0,0.0,0.0,0.0,0.0,0.0,0.0,0.0,0.0,0.0,0.0,0.0,0.0,0.0,0.0,0.0,0.0,0.0,0.0,0.0,0.0,0.0,0.0,0.0,0.0,0.0,0.0,0.0,0.0,0.0,0.0,0.0,0.0,0.0,0.0,0.0,0.0,0.0,0.0,0.0,0.0,0.0,0.0,0.0,0.0,0.0,0.0,0.0,0.0,0.0,0.0,0.0,0.0,0.0,0.0,0.0,0.0,0.0,0.0,0.0,0.0,0.0,0.0,0.0,0.0,0.0,0.0,0.0,0.0,0.0,0.0,0.0,0.0,0.0,0.0,0.0,0.0,0.0,0.0,0.0,0.0,0.0,0.0,0.0,0.0,0.0,0.0,0.0,0.0,0.0,0.0,0.0,0.0,2.8793,2.9435,2.9413,2.8671,2.8063,2.7565,0.0,0.0,0.0,0.0,0.0,0.0,0.0,0.0,0.0,0.0,0.0,0.0,0.0,0.0,0.0,0.0,0.0,0.0,0.0,0.0,0.0,0.0,0.0,0.0,0.0,0.0,0.0,0.0,0.0,0.0,0.0,0.0,0.0,0.0,0.0,0.0,0.0,0.0,0.0,0.0,0.0,0.0,0.0,0.0,0.0,0.0,0.0,0.0,0.0,0.0,0.0,0.0,0.0,0.0,0.0,0.0,0.0,0.0,0.0,0.0,0.0,0.0,0.0,0.0,0.0,0.0,0.0,0.0,0.0,0.0,0.0,0.0,0.0,0.0,0.0,0.0,0.0,0.0,0.0,0.0,0.0,0.0,0.0,0.0,0.0,0.0,0.0,0.0,0.0,0.0,0.0,0.0,0.0,0.0,0.0,0.0,0.0,0.0,0.0,0.0,0.0,0.0,0.0,0.0,0.0,0.0,0.0,0.0,2.853,2.9491,3.1407,3.1767,3.0463,2.9959,2.8952,0.0,0.0,0.0,0.0,0.0,0.0,0.0,0.0,0.0,0.0,0.0,0.0,0.0,0.0,0.0,0.0,0.0,0.0,0.0,0.0,0.0,0.0,0.0,0.0,0.0,0.0,0.0,0.0,0.0,0.0,0.0,0.0,0.0,0.0,0.0,0.0,0.0,0.0,0.0,0.0,0.0,0.0,0.0,0.0,0.0,0.0,0.0,0.0,0.0,0.0,0.0,0.0,0.0,0.0,0.0,0.0,0.0,0.0,0.0,0.0,0.0,0.0,0.0,0.0,0.0,0.0,0.0,0.0,0.0,0.0,0.0,0.0,0.0,0.0,0.0,0.0,0.0,0.0,0.0,0.0,0.0,0.0,0.0,0.0,0.0,0.0,0.0,0.0,0.0,0.0,0.0,0.0,0.0,0.0,0.0,0.0,0.0,0.0,0.0,0.0,0.0,0.0,0.0,0.0,0.0,0.0,0.0,0.0,2.9584,2.982,3.2931,3.3803,3.2225,3.1903,3.0222,0.0,0.0,0.0,0.0,0.0,0.0,0.0,0.0,0.0,0.0,0.0,0.0,0.0,0.0,0.0,0.0,0.0,0.0,0.0,0.0,0.0,0.0,0.0,0.0,0.0,0.0,0.0,0.0,0.0,0.0,0.0,0.0,0.0,0.0,0.0,0.0,0.0,0.0,0.0,0.0,0.0,0.0,0.0,0.0,0.0,0.0,0.0,0.0,0.0,0.0,0.0,0.0,0.0,0.0,0.0,0.0,0.0,0.0,0.0,0.0,0.0,0.0,0.0,0.0,0.0,0.0,0.0,0.0,0.0,0.0,0.0,0.0,0.0,0.0,0.0,0.0,0.0,0.0,0.0,0.0,0.0,0.0,0.0,0.0,0.0,0.0,0.0,0.0,0.0,0.0,0.0,0.0,0.0,0.0,0.0,0.0,0.0,0.0,0.0,0.0,0.0,0.0,0.0,0.0,0.0,0.0,0.0,0.0,3.0164,3.1529,3.354,3.4094,3.3051,3.1689,2.995,0.0,0.0,0.0,0.0,0.0,0.0,0.0,0.0,0.0,0.0,0.0,0.0,0.0,0.0,0.0,0.0,0.0,0.0,0.0,0.0,0.0,0.0,0.0,0.0,0.0,0.0,0.0,0.0,0.0,0.0,0.0,0.0,0.0,0.0,0.0,0.0,0.0,0.0,0.0,0.0,0.0,0.0,0.0,0.0,0.0,0.0,0.0,0.0,2.186,0.0,0.0,0.0,0.0,0.0,0.0,0.0,0.0,0.0,0.0,0.0,0.0,0.0,0.0,0.0,0.0,0.0,0.0,0.0,0.0,0.0,0.0,0.0,0.0,0.0,0.0,0.0,0.0,0.0,0.0,0.0,0.0,0.0,0.0,0.0,0.0,0.0,0.0,0.0,0.0,0.0,0.0,0.0,0.0,0.0,0.0,0.0,0.0,0.0,0.0,0.0,0.0,0.0,0.0,0.0,0.0,0.0,0.0,0.0,3.0768,3.2099,3.3726,3.4202,3.3354,3.1662,2.9894,0.0,0.0,0.0,0.0,0.0,0.0,0.0,0.0,0.0,0.0,0.0,0.0,0.0,0.0,0.0,0.0,0.0,0.0,0.0,0.0,0.0,0.0,0.0,0.0,0.0,0.0,0.0,0.0,0.0,0.0,0.0,0.0,0.0,0.0,0.0,0.0,0.0,0.0,0.0,0.0,0.0,0.0,0.0,0.0,0.0,0.0,0.0,0.0,0.0,0.0,0.0,0.0,0.0,0.0,0.0,0.0,0.0,0.0,0.0,0.0,0.0,0.0,0.0,0.0,0.0,0.0,0.0,0.0,0.0,0.0,0.0,0.0,0.0,0.0,0.0,0.0,0.0,0.0,0.0,0.0,0.0,0.0,0.0,0.0,0.0,0.0,0.0,0.0,0.0,0.0,0.0,0.0,0.0,0.0,0.0,0.0,0.0,0.0,0.0,0.0,0.0,0.0,0.0,0.0,0.0,0.0,0.0,2.964,3.1292,3.2311,3.3814,3.4213,3.3404,3.184,3.008,2.821,0.0,0.0,0.0,0.0,0.0,0.0,0.0,0.0,0.0,0.0,0.0,0.0,0.0,0.0,0.0,0.0,0.0,0.0,0.0,0.0,0.0,0.0,0.0,0.0,0.0,0.0,0.0,0.0,0.0,0.0,0.0,0.0,0.0,0.0,0.0,0.0,0.0,0.0,2.0065,2.1874,0.0,0.0,0.0,0.0,0.0,0.0,0.0,0.0,2.1685,0.0,0.0,0.0,0.0,0.0,0.0,0.0,0.0,0.0,0.0,0.0,0.0,0.0,0.0,0.0,0.0,0.0,0.0,0.0,0.0,0.0,0.0,0.0,0.0,0.0,0.0,0.0,0.0,0.0,0.0,0.0,0.0,0.0,0.0,0.0,0.0,0.0,0.0,0.0,0.0,0.0,0.0,0.0,0.0,0.0,0.0,0.0,0.0,0.0,0.0,0.0,0.0,0.0,0.0,0.0,0.0,2.9057,3.0227,3.1578,3.3142,3.4096,3.4213,3.3414,3.2411,3.0689,2.8249,0.0,0.0,0.0,0.0,0.0,0.0,0.0,0.0,0.0,0.0,0.0,0.0,0.0,0.0,0.0,0.0,0.0,0.0,0.0,0.0,0.0,0.0,0.0,0.0,0.0,0.0,0.0,0.0,0.0,0.0,0.0,0.0,0.0,0.0,0.0,0.0,0.0,0.0,0.0,2.2046,2.3012,0.0,0.0,0.0,0.0,0.0,0.0,0.0,0.0,2.0665,0.0,0.0,0.0,0.0,0.0,0.0,0.0,0.0,0.0,0.0,0.0,0.0,0.0,0.0,0.0,0.0,0.0,0.0,0.0,0.0,0.0,0.0,0.0,0.0,0.0,0.0,0.0,0.0,0.0,0.0,0.0,0.0,0.0,0.0,0.0,0.0,0.0,0.0,0.0,0.0,0.0,0.0,0.0,0.0,0.0,0.0,0.0,0.0,0.0,0.0,0.0,0.0,0.0,0.0,0.0,2.8821,3.0149,3.1425,3.2684,3.3556,3.357,3.2732,3.1442,2.993,0.0,0.0,0.0,0.0,0.0,0.0,0.0,0.0,0.0,0.0,0.0,0.0,0.0,0.0,0.0,0.0,0.0,0.0,0.0,0.0,0.0,0.0,0.0,0.0,0.0,0.0,0.0,0.0,0.0,0.0,0.0,0.0,0.0,0.0,0.0,0.0,0.0,0.0,0.0,0.0,2.2078,2.2665,2.2144,0.0,0.0,0.0,0.0,0.0,0.0,2.1776,2.1209,0.0,0.0,0.0,0.0,0.0,0.0,0.0,0.0,0.0,0.0,0.0,0.0,0.0,0.0,0.0,0.0,0.0,0.0,0.0,0.0,0.0,0.0,0.0,0.0,0.0,0.0,0.0,0.0,0.0,0.0,0.0,0.0,0.0,0.0,0.0,0.0,0.0,0.0,0.0,0.0,0.0,0.0,0.0,0.0,0.0,0.0,0.0,0.0,0.0,0.0,0.0,0.0,0.0,0.0,0.0,2.8288,2.9938,3.1217,3.2088,3.2781,3.281,3.209,3.0589,2.923,0.0,0.0,0.0,0.0,0.0,0.0,0.0,0.0,0.0,0.0,0.0,0.0,0.0,0.0,0.0,0.0,0.0,0.0,0.0,0.0,0.0,0.0,0.0,0.0,0.0,0.0,0.0,0.0,0.0,0.0,0.0,0.0,0.0,0.0,0.0,0.0,0.0,0.0,0.0,0.0,0.0,2.26,2.2434,2.2752,0.0,0.0,0.0,0.0,2.2654,2.2365,0.0,0.0,0.0,0.0,0.0,0.0,0.0,0.0,0.0,0.0,0.0,0.0,0.0,0.0,0.0,0.0,0.0,0.0,0.0,0.0,0.0,0.0,0.0,0.0,0.0,0.0,0.0,0.0,0.0,0.0,0.0,0.0,0.0,0.0,0.0,0.0,0.0,0.0,0.0,0.0,0.0,0.0,0.0,0.0,0.0,0.0,0.0,0.0,0.0,0.0,0.0,0.0,0.0,0.0,0.0,0.0,2.8315,2.9941,3.1204,3.2055,3.2206,3.2192,3.209,3.1154,2.9844,0.0,0.0,0.0,0.0,0.0,0.0,0.0,0.0,0.0,0.0,0.0,0.0,0.0,0.0,0.0,0.0,0.0,0.0,0.0,0.0,0.0,0.0,0.0,0.0,0.0,0.0,0.0,0.0,0.0,0.0,0.0,0.0,0.0,0.0,0.0,0.0,0.0,0.0,0.0,0.0,0.0,2.3566,2.3374,2.32,2.2943,0.0,0.0,2.3448,2.3443,2.3182,0.0,0.0,0.0,0.0,0.0,0.0,0.0,0.0,0.0,0.0,0.0,0.0,0.0,0.0,0.0,0.0,0.0,0.0,0.0,0.0,0.0,0.0,0.0,0.0,0.0,0.0,0.0,0.0,0.0,0.0,0.0,0.0,0.0,0.0,0.0,0.0,0.0,0.0,0.0,0.0,0.0,0.0,0.0,0.0,0.0,0.0,0.0,0.0,0.0,0.0,0.0,0.0,0.0,0.0,0.0,2.7435,2.8327,2.9941,3.0975,3.1363,3.1841,3.1875,3.1369,3.0059,2.8953,0.0,0.0,0.0,0.0,0.0,0.0,0.0,0.0,0.0,0.0,0.0,0.0,0.0,0.0,0.0,0.0,0.0,0.0,0.0,0.0,0.0,0.0,0.0,0.0,0.0,0.0,0.0,0.0,0.0,0.0,0.0,0.0,0.0,0.0,0.0,0.0,0.0,0.0,0.0,0.0,0.0,0.0,2.3482,2.3649,0.0,0.0,0.0,2.4615,2.4083,0.0,0.0,0.0,0.0,0.0,0.0,0.0,0.0,0.0,0.0,0.0,0.0,0.0,0.0,0.0,0.0,0.0,0.0,0.0,0.0,0.0,0.0,0.0,0.0,0.0,0.0,0.0,0.0,0.0,0.0,0.0,0.0,0.0,0.0,0.0,0.0,0.0,0.0,0.0,0.0,0.0,0.0,0.0,0.0,0.0,0.0,0.0,0.0,0.0,0.0,0.0,0.0,0.0,0.0,0.0,0.0,0.0,2.8314,2.9941,3.0784,3.0813,3.1436,3.1466,3.0804,2.9518,0.0,0.0,0.0,0.0,0.0,0.0,0.0,0.0,0.0,0.0,0.0,0.0,0.0,0.0,0.0,0.0,0.0,0.0,0.0,0.0,0.0,0.0,0.0,0.0,0.0,0.0,0.0,2.0985,0.0,0.0,0.0,0.0,0.0,0.0,0.0,0.0,0.0,0.0,0.0,0.0,0.0,0.0,2.3389,2.37,2.4184,2.4462,0.0,0.0,2.5488,2.4974,2.5146,2.5077,0.0,0.0,0.0,0.0,0.0,0.0,0.0,0.0,0.0,0.0,0.0,0.0,0.0,0.0,0.0,0.0,0.0,0.0,0.0,0.0,0.0,0.0,0.0,0.0,0.0,0.0,0.0,0.0,0.0,0.0,0.0,0.0,0.0,0.0,0.0,0.0,0.0,0.0,0.0,0.0,0.0,0.0,0.0,0.0,0.0,0.0,0.0,0.0,0.0,0.0,0.0,0.0,0.0,0.0,2.8237,2.8353,2.9961,3.079,3.0788,3.0837,3.0847,3.0798,3.0672,3.0229,0.0,0.0,0.0,0.0,0.0,0.0,0.0,0.0,0.0,0.0,0.0,0.0,0.0,0.0,0.0,0.0,0.0,0.0,0.0,0.0,0.0,0.0,0.0,0.0,0.0,0.0,0.0,0.0,0.0,0.0,0.0,0.0,0.0,0.0,0.0,0.0,0.0,0.0,0.0,0.0,0.0,2.473,2.4468,2.4787,2.5207,0.0,2.5524,2.5598,2.632,2.6386,2.6099,2.5229,0.0,0.0,0.0,0.0,0.0,0.0,0.0,0.0,0.0,0.0,0.0,0.0,0.0,0.0,0.0,0.0,0.0,0.0,0.0,0.0,0.0,0.0,0.0,0.0,0.0,0.0,0.0,0.0,0.0,0.0,0.0,0.0,0.0,0.0,0.0,0.0,0.0,0.0,0.0,0.0,0.0,0.0,0.0,0.0,0.0,0.0,0.0,0.0,0.0,0.0,0.0,0.0,0.0,2.8296,2.8311,2.9941,3.0792,3.0788,3.0786,3.0798,3.0802,3.0282,2.9844,0.0,0.0,0.0,0.0,0.0,0.0,0.0,0.0,0.0,0.0,0.0,0.0,0.0,0.0,0.0,0.0,0.0,0.0,0.0,0.0,0.0,0.0,0.0,0.0,0.0,0.0,0.0,0.0,2.269,2.2696,2.2825,0.0,0.0,0.0,0.0,0.0,0.0,0.0,0.0,0.0,0.0,2.4962,2.5134,2.5557,0.0,0.0,2.6469,2.6809,2.6674,2.6872,2.6764,2.5963,2.5231,0.0,0.0,0.0,0.0,0.0,0.0,0.0,0.0,0.0,0.0,0.0,0.0,0.0,0.0,0.0,0.0,0.0,0.0,0.0,0.0,0.0,0.0,0.0,0.0,0.0,0.0,0.0,0.0,0.0,0.0,0.0,0.0,0.0,0.0,0.0,0.0,0.0,0.0,0.0,0.0,0.0,0.0,0.0,0.0,0.0,0.0,0.0,0.0,0.0,0.0,0.0,0.0,2.8296,2.827,2.9941,3.0793,3.0791,3.079,3.0802,3.0782,3.0204,2.9883,0.0,0.0,0.0,0.0,0.0,0.0,0.0,0.0,0.0,0.0,0.0,0.0,0.0,0.0,0.0,0.0,0.0,0.0,0.0,0.0,0.0,0.0,0.0,0.0,0.0,0.0,0.0,0.0,2.2825,2.2901,2.3651,0.0,0.0,0.0,0.0,0.0,0.0,0.0,0.0,0.0,0.0,2.5508,2.5862,2.6295,2.6684,2.7057,2.73,2.7452,2.7368,2.7226,2.6914,2.633,0.0,0.0,0.0,0.0,0.0,0.0,0.0,0.0,0.0,0.0,0.0,0.0,0.0,0.0,0.0,0.0,0.0,0.0,0.0,0.0,0.0,0.0,0.0,0.0,0.0,0.0,0.0,2.3054,0.0,0.0,2.3007,0.0,0.0,0.0,0.0,0.0,0.0,0.0,0.0,0.0,0.0,0.0,0.0,0.0,0.0,0.0,0.0,0.0,0.0,0.0,0.0,0.0,0.0,2.8262,2.8231,2.9922,3.0793,3.0791,3.079,3.0802,3.0802,3.0769,3.076,3.074,0.0,0.0,0.0,0.0,0.0,0.0,0.0,0.0,0.0,0.0,0.0,0.0,0.0,0.0,0.0,0.0,0.0,0.0,0.0,0.0,0.0,0.0,0.0,0.0,0.0,0.0,2.4053,2.3165,2.2897,0.0,0.0,0.0,0.0,0.0,0.0,0.0,0.0,0.0,2.4841,2.5943,2.6711,2.6606,2.6931,2.7681,2.9145,2.7896,2.7232,2.8586,2.7479,2.64,0.0,0.0,0.0,0.0,0.0,0.0,0.0,0.0,0.0,0.0,0.0,0.0,0.0,0.0,0.0,0.0,0.0,0.0,0.0,0.0,0.0,0.0,0.0,0.0,0.0,0.0,0.0,2.3097,2.3097,0.0,0.0,0.0,0.0,0.0,0.0,0.0,0.0,0.0,0.0,0.0,2.6556,2.7649,0.0,0.0,0.0,0.0,0.0,0.0,0.0,0.0,0.0,0.0,0.0,0.0,2.8283,2.8337,2.9941,3.0793,3.0796,3.0788,3.0801,3.0794,3.0802,3.0789,3.0779,0.0,0.0,0.0,0.0,0.0,0.0,0.0,0.0,0.0,0.0,0.0,0.0,0.0,0.0,0.0,0.0,0.0,0.0,0.0,0.0,0.0,0.0,0.0,0.0,0.0,2.5149,0.0,0.0,0.0,0.0,0.0,0.0,0.0,0.0,0.0,0.0,0.0,2.5339,2.6017,2.6605,2.7041,2.7291,2.7695,2.8146,0.0,0.0,0.0,0.0,0.0,0.0,0.0,0.0,0.0,0.0,0.0,0.0,0.0,0.0,2.5781,2.5003,2.4941,2.5148,2.5582,0.0,0.0,0.0,0.0,0.0,0.0,0.0,0.0,0.0,0.0,0.0,0.0,0.0,0.0,2.4771,2.5262,2.4682,0.0,0.0,0.0,0.0,0.0,0.0,0.0,0.0,2.6976,2.7624,2.7405,2.8525,2.8457,2.7439,2.8251,2.7901,0.0,0.0,0.0,0.0,0.0,0.0,0.0,0.0,2.8442,2.8772,3.0389,3.1108,3.0821,3.1111,3.1103,3.0813,3.0802,3.0789,3.0799,3.0222,2.9894,0.0,0.0,0.0,0.0,0.0,0.0,0.0,0.0,0.0,0.0,0.0,0.0,0.0,0.0,0.0,0.0,0.0,0.0,0.0,0.0,0.0,0.0,0.0,2.5171,0.0,0.0,0.0,0.0,0.0,0.0,0.0,0.0,0.0,2.4723,2.5059,2.5572,2.6331,2.6907,2.7455,2.8029,0.0,0.0,0.0,0.0,0.0,0.0,0.0,2.7665,2.7547,2.7189,2.6969,2.7032,2.6945,2.6851,2.6867,0.0,0.0,2.6045,2.5846,2.5851,2.6225,2.6109,2.6174,2.6782,2.658,2.6424,0.0,0.0,0.0,0.0,0.0,0.0,0.0,0.0,2.6965,2.7862,0.0,2.7589,0.0,0.0,0.0,0.0,2.5697,2.5751,0.0,0.0,2.7089,2.7493,2.8272,2.8412,2.8376,2.8365,2.9193,2.9127,2.8174,2.6641,0.0,0.0,0.0,0.0,0.0,0.0,2.8719,2.9507,3.1187,3.1678,3.086,3.1641,3.1672,3.0841,3.0789,3.0799,3.0799,3.0769,3.0784,3.0764,2.9141,0.0,0.0,0.0,0.0,0.0,0.0,0.0,0.0,0.0,0.0,0.0,0.0,0.0,0.0,0.0,0.0,0.0,0.0,0.0,0.0,2.519,0.0,0.0,0.0,0.0,0.0,0.0,0.0,0.0,0.0,0.0,2.4403,2.5193,2.5806,2.5893,0.0,0.0,0.0,0.0,2.9106,3.0543,2.9863,2.9369,2.9867,2.9037,2.8279,2.8145,0.0,0.0,2.7376,2.7264,2.7064,2.665,2.6992,2.7162,2.7178,2.7083,2.7067,2.713,2.7546,2.7939,2.7807,2.7734,2.7813,3.0552,0.0,0.0,0.0,0.0,2.8427,2.8773,2.8753,2.8753,2.9026,2.9435,2.8325,0.0,0.0,0.0,0.0,0.0,0.0,2.8175,2.7945,2.9742,3.0424,3.0097,3.1293,3.1514,3.0951,3.117,3.0549,2.9162,2.8656,2.8108,2.756,0.0,0.0,0.0,0.0,2.9355,2.9667,3.1247,3.1706,3.0899,3.168,3.1672,3.0833,3.0802,3.0789,3.0799,3.0759,3.0753,3.0784,2.9674,0.0,0.0,0.0,0.0,0.0,0.0,0.0,0.0,0.0,0.0,0.0,0.0,0.0,0.0,0.0,0.0,0.0,0.0,0.0,2.5313,2.5262,2.5432,0.0,0.0,0.0,0.0,0.0,0.0,0.0,0.0,0.0,2.6436,2.7224,2.7671,0.0,0.0,2.9733,2.9751,2.9998,3.0266,3.0413,3.0517,0.0,2.9603,2.9147,2.8837,2.8698,2.8683,2.8889,2.9521,2.8884,2.8263,2.8339,2.8446,2.8537,2.8489,2.7731,2.7336,2.7668,2.7973,2.8357,2.8998,2.8857,2.8606,3.3565,3.1422,3.0236,2.9554,2.9323,3.0161,3.0531,3.0511,3.0531,3.0901,3.1408,2.9907,2.942,2.9693,2.8656,0.0,0.0,0.0,2.907,2.9274,3.0852,3.1646,3.1863,3.283,3.3025,3.2531,3.2516,3.1994,3.0992,3.1008,3.0598,2.9783,0.0,2.8472,2.8828,2.9667,3.0289,3.0637,3.2279,3.2727,3.1923,3.2014,3.1694,3.0837,3.0786,3.0793,3.0799,3.0764,3.0764,3.0769,2.9919,2.9454,0.0,0.0,0.0,0.0,0.0,0.0,0.0,0.0,0.0,0.0,0.0,2.5951,2.564,0.0,0.0,0.0,2.5998,2.5906,2.5782,2.6036,0.0,0.0,0.0,0.0,0.0,0.0,0.0,2.7248,2.7371,2.7492,2.7852,2.9078,2.9565,2.8581,2.9568,3.0411,3.0525,0.0,3.0854,3.0896,3.104,3.0841,3.0004,2.9963,3.0018,2.9789,2.9492,2.9416,3.0,2.9406,2.8905,2.892,2.9029,2.9075,2.8982,2.8352,2.8015,2.8426,2.8722,2.912,2.9701,2.9482,2.9309,3.6356,3.4759,3.3239,3.1992,3.1111,3.1934,3.2284,3.2309,3.2304,3.3161,3.4389,3.207,3.1447,3.2031,2.9625,0.0,2.85,2.8501,2.9377,3.0886,3.1042,3.1927,3.3369,3.3485,3.3492,3.341,3.3468,3.3432,3.3278,3.3348,3.2986,3.2163,2.9871,2.9061,2.9805,3.0599,3.1389,3.2187,3.3845,3.4277,3.3394,3.2545,3.1675,3.082,3.079,3.0798,3.0804,3.0799,3.0799,3.076,3.0039,2.9594,2.9574,0.0,0.0,0.0,0.0,0.0,0.0,0.0,0.0,0.0,0.0,0.0,0.0,0.0,0.0,0.0,2.6794,0.0,2.6611,2.7198,0.0,0.0,0.0,2.7618,2.742,2.7389,2.7604,2.8135,0.0,0.0,2.8927,3.0674,3.1345,2.9609,2.9978,3.0607,3.1194,3.108,3.1131,3.1625,3.1419,3.1002,3.0675,3.0971,3.1292,3.112,3.0322,2.9822,2.9856,2.9561,2.9234,2.9092,2.9077,2.9139,2.8889,2.8998,2.9107,2.9138,2.9609,2.9974,2.9937,2.9734,2.975,3.7954,3.7545,3.7136,3.5363,3.2869,3.3668,3.3999,3.3999,3.3999,3.4233,3.4506,3.3336,3.2908,3.3005,3.1739,3.1174,3.1174,3.1169,3.1373,3.1791,3.3092,3.3905,3.4322,3.4964,3.4938,3.4345,3.4913,3.454,3.3387,3.3963,3.3892,3.3087,3.248,3.1965,3.1542,3.1717,3.2238,3.3088,3.4148,3.4289,3.3414,3.2547,3.1677,3.081,3.0788,3.0798,3.0798,3.0789,3.0799,3.0799,3.0559,3.0436,3.0467,2.9677,0.0,0.0,0.0,0.0,0.0,0.0,0.0,0.0,0.0,2.7446,2.6579,0.0,2.7726,0.0,2.7707,2.7624,2.7484,2.7651,0.0,0.0,2.8522,2.8666,2.9075,2.9099,2.9288,2.9776,2.9764,3.0145,3.1229,3.1606,3.1813,3.1884,3.1966,3.2029,3.2124,3.1935,3.1721,3.1634,3.1788,3.1631,3.075,3.0898,3.1377,3.1841,3.1435,3.1278,3.1806,3.1261,3.0669,3.0588,3.0211,2.9975,2.9832,2.947,2.9343,2.9753,2.9548,2.9486,3.0323,2.9681,2.9304,3.9176,3.8539,3.8909,3.7759,3.5713,3.6142,3.6337,3.6317,3.5908,3.5752,3.5675,3.4467,3.3726,3.338,3.2893,3.2679,3.2679,3.2679,3.2864,3.3237,3.4197,3.4834,3.5191,3.5671,3.5631,3.5174,3.5585,3.5329,3.4478,3.4944,3.4759,3.3957,3.3975,3.3754,3.3272,3.3259,3.3496,3.3975,3.4837,3.4664,3.3453,3.2918,3.2068,3.0872,3.1181,3.1194,3.0802,3.1187,3.1203,3.0818,3.0769,3.0764,3.0784,3.035,2.9886,0.0,0.0,0.0,0.0,0.0,0.0,0.0,0.0,0.0,0.0,0.0,2.8473,2.8089,2.8704,2.8907,2.8418,2.9056,2.9621,2.9942,2.9578,2.9564,3.0114,2.987,2.9828,3.0305,3.021,3.0615,3.1991,3.1995,3.2072,3.2716,3.2722,3.2623,3.2457,3.2267,3.2001,3.1688,3.1764,3.1678,3.099,3.1068,3.1397,3.1987,3.1657,3.1454,3.2063,3.1469,3.0908,3.1112,3.0907,3.0638,3.0622,3.0354,3.0212,3.04,3.0177,3.0063,3.0651,3.0114,2.9871,4.0163,3.8883,3.9649,3.9526,3.8844,3.8831,3.8636,3.8285,3.7642,3.7292,3.7097,3.548,3.4369,3.3712,3.359,3.3556,3.3561,3.3565,3.3975,3.4686,3.4806,3.5223,3.5879,3.5885,3.5799,3.5671,3.576,3.5749,3.5655,3.582,3.5521,3.4798,3.4827,3.4861,3.4866,3.4861,3.4876,3.4879,3.5741,3.5331,3.3628,3.3561,3.2734,3.1106,3.1613,3.1585,3.0845,3.1515,3.1625,3.1018,3.0959,3.0974,3.0984,3.0964,3.052,0.0,2.9463,0.0,0.0,0.0,0.0,0.0,0.0,0.0,0.0,2.9501,2.9229,2.8405,2.9728,3.0312,2.949,3.074,3.156,3.1473,3.0703,3.0364,3.0884,3.0357,3.0066,3.0577,3.0454,3.0856,3.2154,3.2162,3.2169,3.2695,3.2805,3.2707,3.2541,3.2284,3.2037,3.1819,3.1466,3.1375,3.1656,3.1611,3.1651,3.2148,3.185,3.1292,3.1919,3.1406,3.099,3.1415,3.146,3.1349,3.1349,3.127,3.1223,3.1318,3.1087,3.092,3.0947,3.067,3.0629,4.0818,4.0565,4.0753,4.076,4.0598,4.0604,3.9396,3.7506,3.8013,3.7876,3.7136,3.6103,3.5558,3.5363,3.4739,3.4447,3.4452,3.4452,3.4544,3.4719,3.5373,3.5772,3.5898,3.5845,3.5468,3.4892,3.5485,3.5465,3.4847,3.5554,3.5836,3.5728,3.5731,3.5769,3.576,0.0,0.0,0.0,3.6623,3.6213,3.4535,3.4454,3.3632,3.1914,3.1326,0.0,3.0807,3.0957,3.1297,3.1831,3.1841,0.0,0.0,0.0,0.0,0.0,0.0,0.0,0.0,0.0,0.0,0.0,2.9162,2.9227,2.9387,3.004,3.0358,3.0153,3.0925,3.1372,3.1148,3.1341,3.1757,3.2313,3.1603,3.1322,3.1921,3.171,3.1747,3.2249,3.1543,3.1555,3.2842,3.2409,3.212,3.2741,3.2838,3.274,3.2606,3.2353,3.2073,3.1837,3.1329,3.1398,3.249,3.2281,3.2236,3.2945,3.3324,3.3239,3.3269,3.3083,3.2867,3.299,3.2542,3.206,3.2111,3.1618,3.146,3.1966,3.1829,3.1596,3.1602,3.099,3.0735,4.0984,4.1011,4.1052,4.1039,0.0,4.1085,4.0097,3.8558,3.9415,3.9532,3.9084,3.8207,3.7818,3.7798,3.7395,3.6982,3.6575,3.661,3.6395,3.6009,3.6382,3.6312,3.5885,3.5872,3.5604,3.5228,3.5613,3.5582,3.5223,3.5652,3.5872,3.5948,3.5942,3.5958,3.596,3.5978,3.6018,3.601,3.6428,3.5796,3.4156,3.4042,3.3222,3.1543,3.1446,0.0,0.0,0.0,0.0,0.0,0.0,0.0,0.0,3.2333,0.0,3.0838,3.0385,2.9946,2.9491,2.9427,2.9609,2.9996,3.0423,3.0642,3.0649,3.1019,3.138,3.1757,3.2516,3.2779,3.2308,3.2544,3.2896,3.3176,3.2378,3.2069,3.2636,3.2285,3.2143,3.2563,3.193,3.1879,3.3205,3.2559,3.2265,3.2773,3.287,3.2805,3.2606,3.237,3.2073,3.1726,3.1269,3.1146,3.1674,3.1836,3.1863,3.2275,3.2643,3.3047,3.3319,3.3166,3.3125,3.3375,3.3097,3.2787,3.2756,3.2471,3.2361,3.2661,3.2568,3.2379,3.2335,3.1843,3.1567,4.098,4.0996,4.0991,4.0986,4.1006,4.1039,4.0753,4.0273,4.0526,0.0,0.0,4.0019,3.9571,3.9571,3.9583,3.9087,3.8294,3.8346,3.7909,3.7063,3.6999,3.6592,3.5898,3.5898,3.5864,3.5826,3.5807,3.5788,3.5811,3.5818,3.5846,3.5889,3.5914,3.5919,3.5914,3.5971,3.601,3.6016,3.6142,3.5386,3.3707,3.3632,3.2795,3.1075,3.1563,3.1953,3.2109,3.2792,3.3308,3.3618,3.3629,3.3645,3.36,3.2942,3.2474,3.2304,3.1656,3.1212,3.115,3.1028,3.0938,3.0923,3.167,3.2064,3.1922,3.1981,3.2299,3.2968,3.3786,3.3961,3.3204,3.367,3.4059,3.4042,3.3013,3.2657,3.3404,3.2664,3.2312,3.2785,3.2238,3.2085,3.3198,3.2636,3.2272,3.2751,3.2884,3.2787,3.2573,3.2301,3.2037,3.1596,3.1291,3.1026,3.1074,3.1212,3.1347,3.1557,3.186,3.2191,3.2676,3.2737,3.2876,3.3443,3.3398,3.3277,3.3293,3.3214,3.3293,3.3293,3.3081,3.2935,3.2897,3.2633,3.2407,4.0991,4.0991,4.0988,4.0991,4.0986,4.1013,4.137,4.1773,3.9766,3.9688,4.0994,3.9396,3.8675,3.8675,3.8675,3.822,3.7396,3.744,3.7005,3.6201,3.6125,3.6008,3.5897,3.5892,3.5898,3.5891,3.583,3.5838,3.5878,3.5892,3.5878,3.5924,3.5958,3.6001,3.599,3.5994,3.6015,3.6016,3.6728,3.6267,3.4569,3.451,3.369,3.2012,3.1309,3.1348,3.207,3.2241,3.2976,3.4417,3.4499,3.451,3.4506,3.4321,3.3921,3.3204,3.3009,3.2953,3.2901,3.2234,3.1812,3.1767,3.2546,3.2714,3.2,3.2522,3.2957,3.3045,3.38,3.4154,3.3953,3.4012,3.432,3.4761,3.3444,3.2959,3.4273,3.3527,3.3072,3.3672,3.2926,3.2529,3.3151,3.2624,3.2313,3.2751,3.2852,3.2657,3.2353,3.2179,3.1965,3.1654,3.1389,3.1467,3.159,3.1648,3.1654,3.2183,3.2066,3.2299,3.2854,3.282,3.2894,3.3531,3.345,3.3361,3.3309,3.3293,3.3293,3.3293,3.3156,3.3087,3.3058,3.2812,3.2563,4.0945,4.0945,4.0991,4.0988,4.0976,4.0979,4.1779,4.2786,4.0799,4.0857,4.2253,4.113,4.0565,4.0623,4.0623,4.0129,3.9312,3.9349,3.8642,3.7395,3.7325,3.6812,3.5955,3.5885,3.5892,3.5878,3.5872,3.6112,3.6554,3.6612,3.6826,3.7244,3.6879,3.6416,3.5992,3.5982,3.6014,3.6016,3.6384,3.5968,3.4744,3.4237,3.3378,3.2148,3.1699,3.1914,3.2773,3.3258,3.4114,3.5357,3.5412,3.5385,3.5344,3.4915,3.4462,3.4033,3.3554,3.329,3.3304,3.2927,3.2672,3.264,3.341,3.3723,3.3256,3.3546,3.3928,3.4308,3.4725,3.4859,3.4769,3.4726,3.4837,3.5107,3.428,3.4017,3.444,3.4151,3.3831,3.3931,3.3582,3.3323,3.3386,3.3027,3.2751,3.2912,3.277,3.2557,3.2249,3.2144,3.2001,3.1637,3.1466,3.1426,3.1486,3.1274,3.1189,3.1287,3.1532,3.1965,3.2557,3.2724,3.311,3.3636,3.3607,3.3398,3.3293,3.3293,3.3293,3.3309,3.3171,3.3118,3.3058,3.2881,3.2703,4.0888,4.0907,4.0954,4.0982,4.0991,4.0984,4.1792,4.2838,4.1611,4.1825,4.2844,4.2318,4.2059,4.2104,4.2104,4.1617,4.0896,4.0818,3.9961,3.8617,3.8519,3.7773,3.6592,3.6495,3.6489,3.6469,3.6462,3.6819,3.7397,3.7481,3.7799,3.8351,3.7812,3.715,3.6498,3.6524,3.6571,3.6562,3.6581,3.5972,3.4732,3.4027,3.3261,3.2461,3.2402,3.2792,3.3649,3.4334,3.5112,3.5926,3.6007,3.5981,3.5899,3.5314,3.4959,3.4837,3.4275,3.379,3.3596,3.3755,3.3743,3.3525,3.4283,3.472,3.4615,3.4573,3.4827,3.5386,3.5435,3.5388,3.5277,3.5281,3.5258,3.5129,3.4983,3.4755,3.4626,3.4454,3.4293,3.4049,3.3972,3.3788,3.3491,3.3364,3.3196,3.2848,3.2672,3.2489,3.2267,3.2126,3.1965,3.1728,3.1559,3.1402,3.1112,3.0929,3.0842,3.0641,3.0909,3.1593,3.2289,3.2818,3.308,3.3625,3.371,3.3503,3.3346,3.3293,3.3293,3.3309,3.324,3.315,3.3112,3.2989,3.2827,4.0888,4.0888,4.0907,4.0965,4.0991,4.0988,4.1128,4.1298,4.1064,4.1091,4.1442,4.1247,4.1247,4.1208,4.1247,4.0792,4.0033,3.9941,3.9454,3.863,3.8519,3.8402,3.8188,3.8227,3.8228,3.8116,3.8077,3.8116,3.8291,3.8335,3.8335,3.8408,3.839,3.8312,3.8238,3.8221,3.8251,3.8262,3.8331,3.7177,3.4862,3.4619,3.4181,3.3302,3.328,3.3688,3.4468,3.4666,3.5115,3.5913,3.6004,3.5997,3.5966,3.5836,3.5763,3.5755,3.5658,3.5307,3.4552,3.5119,3.5152,3.4526,3.5107,3.5523,3.5442,3.5469,3.547,3.552,3.5446,3.5379,3.5315,3.5324,3.5245,3.511,3.4983,3.4831,3.4682,3.4427,3.4221,3.4023,3.4068,3.3726,3.3615,3.3497,3.3176,3.2829,3.2677,3.2473,3.2196,3.2108,3.2037,3.1819,3.1671,3.1483,3.123,3.1055,3.1065,3.1229,3.0879,3.1451,3.2544,3.2782,3.2544,3.3709,3.3813,3.3607,3.3398,3.3293,3.3293,3.3293,3.3256,3.3256,3.3165,3.3112,3.2935,4.0839,4.0839,4.0878,4.0927,4.0982,4.0999,4.1299,4.1712,4.1227,4.1318,4.1739,4.1335,4.1106,4.111,4.111,4.0896,4.0578,4.0565,4.0097,3.9331,3.9279,3.9006,3.8539,3.8519,3.8488,3.8468,3.8461,3.8707,3.9186,3.9684,3.9677,3.9229,3.9201,3.8988,3.8565,3.8516,3.8512,3.8514,3.8532,3.8023,3.7022,3.5979,3.531,3.492,3.4452,3.4315,3.4703,3.5174,3.5639,3.5985,3.602,3.5994,3.5938,3.5929,3.5899,3.5891,3.5878,3.5675,3.5294,3.5605,3.5666,3.5262,3.5543,3.5669,3.562,3.5604,3.5566,3.552,3.5427,3.5383,3.5315,3.5308,3.5245,3.5127,3.5038,3.5078,3.5281,3.5229,3.5235,3.538,3.5016,3.4743,3.4697,3.4222,3.3698,3.3293,3.2944,3.2508,3.2214,3.2108,3.2037,3.1893,3.1783,3.1596,3.1329,3.119,3.1304,3.1482,3.1404,3.1814,3.3057,3.3313,3.3286,3.4022,3.3903,3.3748,3.3503,3.3398,3.3398,3.3346,3.3293,3.3256,3.3187,3.3203,3.3096,4.1001,4.0807,4.0848,4.0927,4.0965,4.0965,4.1332,4.1824,4.1259,4.1407,4.1937,4.1381,4.1117,4.1111,4.11,4.1109,4.111,4.111,4.076,4.0195,4.0156,3.9825,3.926,3.9221,3.9195,3.9182,3.9215,3.9512,4.0073,4.0657,4.0649,4.0107,4.0042,3.9765,3.9259,3.9202,3.9208,3.9236,3.9199,3.9232,3.9081,3.7828,3.6813,3.6345,3.5506,3.5154,3.5425,3.601,3.6479,3.6707,3.6508,3.6325,3.627,3.6026,3.5894,3.5885,3.5845,3.5795,3.5799,3.5791,3.5801,3.5775,3.5718,3.5669,3.5612,3.5604,3.5586,3.5507,3.5427,3.5383,3.5315,3.5289,3.5229,3.511,3.5092,3.5287,3.5697,3.5781,3.5941,3.6377,3.5919,3.5643,3.5605,3.486,3.4013,3.3754,3.3262,3.2666,3.2389,3.2318,3.2457,3.2277,3.2184,3.1932,3.1513,3.1545,3.1702,3.196,3.2031,3.2453,3.3703,3.3813,3.3771,3.4154,3.4039,3.3889,3.3598,3.3543,3.3323,3.3314,3.3293,3.3293,3.3293,3.3293,3.3256,4.1543,4.0846,4.0807,4.0848,4.0907,4.0907,4.0956,4.1146,4.1023,4.1078,4.1202,4.1124,4.1116,4.1101,4.1108,4.11,4.1117,4.111,4.1071,4.0974,4.0994,4.1013,4.0994,4.0994,4.0909,4.0675,4.0636,4.0758,4.0874,4.0971,4.0935,4.0858,4.0863,4.0898,4.0828,4.0799,4.0935,4.0799,4.08,4.0899,4.0795,4.0015,3.8746,3.7399,3.6423,3.6384,3.7028,3.7204,3.7594,3.8434,3.7608,3.7187,3.7058,3.6343,3.5889,3.5885,3.5838,3.5795,3.5799,3.5818,3.5782,3.5718,3.5718,3.5688,3.5628,3.5681,3.5701,3.5545,3.56,3.5552,3.5507,3.5446,3.5329,3.53,3.5188,3.5382,3.5848,3.5991,3.6072,3.6567,3.6648,3.6387,3.5932,3.4918,3.4383,3.4038,3.3811,3.3424,3.2774,3.2948,3.312,3.3043,3.2916,3.2648,3.185,3.1862,3.2374,3.2496,3.2579,3.3088,3.3844,3.4402,3.4294,3.4085,3.3582,3.3421,3.3579,3.3454,3.3153,3.3061,3.3245,3.3293,3.3293,3.3293,3.3256,4.1091,4.0792,4.0792,4.0815,4.0837,4.0837,4.0868,4.0917,4.0924,4.0967,4.1037,4.1097,4.1111,4.1116,4.1104,4.11,4.1109,4.1117,4.111,4.111,4.111,4.111,4.111,4.111,4.1059,4.0993,4.0986,4.0991,4.0991,4.098,4.1254,4.1567,4.1224,4.1249,4.1626,4.1298,4.1058,4.1109,4.1105,4.1113,4.1035,4.0288,3.9546,3.8961,3.8121,3.7809,3.8121,3.8141,3.8277,3.8525,3.7714,3.7219,3.7108,3.6367,3.5891,3.5885,3.5872,3.5857,3.5803,3.585,3.5823,3.5779,3.5765,3.5747,3.5753,3.6072,3.6344,3.6392,3.6752,3.6953,3.683,3.6419,3.6239,3.6592,3.6252,3.6255,3.7046,3.6967,3.6956,3.7821,3.7919,3.7497,3.668,3.5728,3.5247,3.5398,3.4603,3.3935,3.3846,3.3705,3.3614,3.3696,3.306,3.255,3.3356,3.2667,3.2473,3.2428,3.2522,3.2687,3.3273,3.3544,3.3458,3.3387,3.2954,3.3012,3.3193,3.3393,3.3077,3.3133,3.3303,3.3151,3.3293,3.3245,3.3261,4.0803,4.0808,4.0808,4.08,4.0815,4.0796,4.0807,4.0877,4.0887,4.0957,4.1013,4.1081,4.1104,4.1108,4.1101,4.1105,4.11,4.1103,4.1091,4.1085,4.1085,4.1065,4.1065,4.1104,4.1085,4.1032,4.1006,4.1128,4.1388,4.1388,4.1818,4.2529,4.1799,4.1824,4.2416,4.1855,4.1454,4.1495,4.1537,4.1423,4.1086,4.0591,4.0294,4.0213,3.9688,3.9259,3.9039,3.9,3.9133,3.9165,3.8495,3.778,3.722,3.6927,3.6612,3.6359,3.6333,3.6287,3.6215,3.6027,3.5872,3.5795,3.5801,3.5766,3.5727,3.6115,3.6473,3.6834,3.7224,3.7655,3.8073,3.7718,3.7458,3.7581,3.6861,3.6767,3.7804,3.7408,3.7636,3.8535,3.8693,3.8291,3.7617,3.6649,3.6276,3.6538,3.5331,3.4801,3.4658,3.4566,3.4335,3.4696,3.397,3.3842,3.4194,3.3957,3.323,3.3083,3.3042,3.2984,3.267,3.2811,3.2823,3.2663,3.2636,3.2714,3.2918,3.3157,3.3227,3.3236,3.3022,3.2807,3.2997,3.3166,3.3151,4.079,4.0803,4.079,4.0796,4.08,4.08,4.0792,4.0818,4.0869,4.0941,4.1013,4.1056,4.109,4.1104,4.1108,4.1113,4.1106,4.1114,4.1058,4.1025,4.1059,4.1059,4.1032,4.1085,4.1169,4.1201,4.1091,4.1505,4.228,4.2283,4.2665,4.3229,4.2665,4.2682,4.3583,4.2778,4.2312,4.2284,4.2252,4.1909,4.123,4.1033,4.0986,4.1035,4.0945,4.0594,3.9937,3.9839,4.0132,4.0737,4.0106,3.8959,3.7571,3.777,3.7974,3.7229,3.7138,3.717,3.7111,3.6508,3.6163,3.597,3.5879,3.5882,3.5697,3.5778,3.6151,3.6848,3.7123,3.7565,3.8837,3.9035,3.8716,3.7829,3.7109,3.6806,3.7251,3.7209,3.7511,3.86,3.8862,3.8743,3.8295,3.7435,3.6826,3.6593,3.6168,3.5685,3.5256,3.5322,3.5633,3.5679,3.5074,3.47,3.4978,3.5163,3.4494,3.3945,3.3911,3.3811,3.2934,3.2739,3.2653,3.253,3.2838,3.2889,3.2753,3.295,3.2976,3.2955,3.2711,3.2482,3.2447,3.2621,3.2966,4.079,4.079,4.079,4.0803,4.0803,4.0803,4.08,4.0807,4.0819,4.0897,4.1003,4.1013,4.1061,4.1105,4.1101,4.1124,4.1113,4.1111,4.1071,4.1011,4.1006,4.1052,4.1052,4.1085,4.1403,4.1851,4.1903,4.2337,4.3055,4.3163,4.3605,4.4074,4.352,4.3587,4.4344,4.3631,4.2972,4.2435,4.2381,4.1984,4.125,4.1133,4.1128,4.1153,4.1114,4.0957,4.074,4.0698,4.0834,4.1088,4.0262,3.9017,3.7654,3.7449,3.7473,3.7254,3.7196,3.7507,3.8007,3.7839,3.7345,3.691,3.6705,3.6354,3.5922,3.619,3.6779,3.7596,3.818,3.8969,3.9739,3.9994,3.975,3.9489,3.8137,3.7395,3.7839,3.784,3.8145,3.8776,3.8921,3.8833,3.8554,3.782,3.7279,3.7374,3.6862,3.6292,3.6317,3.6028,3.6166,3.6439,3.5836,3.5423,3.5757,3.5734,3.5191,3.4607,3.4463,3.4096,3.3262,3.2749,3.2614,3.2727,3.2978,3.308,3.2929,3.2853,3.2966,3.2802,3.2622,3.2299,3.1946,3.2056,3.2419,4.1081,4.081,4.079,4.079,4.079,4.079,4.0796,4.0792,4.0804,4.0849,4.0991,4.1337,4.1532,4.1642,4.1901,4.1866,4.1624,4.1554,4.1357,4.1042,4.0979,4.1142,4.1493,4.1896,4.226,4.2682,4.2779,4.3233,4.4008,4.4075,4.445,4.4968,4.4404,4.4414,4.5104,4.448,4.3767,4.3351,4.3017,4.2449,4.1738,4.1308,4.1132,4.1144,4.1136,4.1114,4.1116,4.1114,4.1108,4.103,4.0558,3.9591,3.8307,3.8205,3.8015,3.7745,3.772,3.7948,3.8429,3.8435,3.8124,3.7404,3.7143,3.6709,3.6085,3.6279,3.6872,3.7997,3.8497,3.9287,4.0156,4.0396,4.0362,4.029,3.8632,3.7832,3.7967,3.7836,3.8126,3.8674,3.8921,3.8862,3.8626,3.8261,3.7735,3.7871,3.7397,3.6899,3.6993,3.6685,3.6802,3.6798,3.6274,3.6212,3.6516,3.6273,3.5838,3.5346,3.4947,3.4257,3.3437,3.3102,3.2892,3.3188,3.3454,3.3667,3.3563,3.3291,3.3242,3.2918,3.2433,3.1919,3.1502,3.1581,3.1914,4.1545,4.0906,4.0887,4.0926,4.0945,4.1042,4.1151,4.1035,4.1059,4.1147,4.1344,4.2035,4.2396,4.2637,4.3127,4.3053,4.2583,4.2426,4.2039,4.1524,4.1408,4.1739,4.2385,4.3011,4.3415,4.363,4.3656,4.4102,4.4837,4.4884,4.5248,4.5774,4.5239,4.523,4.5697,4.522,4.4839,4.4557,4.4002,4.3283,4.2363,4.1719,4.123,4.1133,4.1142,4.1158,4.1125,4.1099,4.1111,4.1111,4.103,4.0538,3.9903,3.9735,3.9102,3.8424,3.8466,3.8519,3.8578,3.8909,3.8494,3.7761,3.7416,3.6814,3.62,3.598,3.6461,3.779,3.8132,3.8772,3.9969,4.0425,4.0321,4.0002,3.8594,3.7564,3.7111,3.7099,3.7642,3.8553,3.8876,3.8862,3.8822,3.8499,3.8296,3.805,3.7808,3.7524,3.7228,3.7023,3.7034,3.6851,3.6558,3.6566,3.6771,3.6638,3.622,3.6035,3.5576,3.4919,3.4062,3.3709,3.3254,3.3527,3.3943,3.4157,3.4052,3.3745,3.3242,3.2725,3.216,3.1469,3.1357,3.1534,3.1757,4.1874,4.1699,4.1699,4.168,4.1796,4.2338,4.2621,4.2627,4.262,4.2559,4.2791,4.3058,4.3182,4.3312,4.3572,4.3564,4.34,4.3344,4.3239,4.2955,4.2921,4.2996,4.3233,4.3494,4.3969,4.4425,4.4522,4.4923,4.5693,4.5685,4.5852,4.6065,4.5783,4.5725,4.5939,4.5813,4.5386,4.4899,4.4701,4.3829,4.2637,4.2266,4.1777,4.1211,4.1206,4.1206,4.1171,4.1108,4.1099,4.1111,4.1108,4.0695,3.9907,3.9271,3.879,3.8585,3.8531,3.8811,3.9396,4.0,3.9916,3.9176,3.8403,3.77,3.6888,3.6114,3.6328,3.7204,3.7796,3.8543,3.9427,4.0111,4.0085,3.9332,3.8384,3.7566,3.7265,3.7107,3.736,3.8193,3.872,3.8894,3.8881,3.8743,3.8559,3.8271,3.8036,3.781,3.7468,3.7223,3.7185,3.7048,3.6882,3.6856,3.6829,3.6771,3.6655,3.6574,3.6243,3.5859,3.5143,3.4567,3.4007,3.3676,3.4421,3.4758,3.4405,3.3986,3.3337,3.282,3.2626,3.2319,3.1869,3.1854,3.2031,4.2899,4.255,4.255,4.2531,4.2609,4.3111,4.3318,4.3312,4.3292,4.3318,4.3369,4.3451,4.3736,4.4078,4.4202,4.4243,4.4243,4.4207,4.3953,4.3643,4.3892,4.4061,4.4178,4.442,4.4943,4.5321,4.5363,4.5643,4.6021,4.6111,4.6095,4.6046,4.6016,4.5997,4.5988,4.6037,4.5862,4.5366,4.5082,4.4364,4.3518,4.3104,4.25,4.1894,4.1679,4.1601,4.1289,4.1151,4.1129,4.1105,4.1094,4.0867,4.032,3.915,3.8536,3.8512,3.8511,3.8733,3.9337,4.0351,4.0643,3.9916,3.9208,3.8369,3.7374,3.6559,3.6551,3.7005,3.7433,3.8151,3.9182,4.0027,4.014,3.9656,3.8726,3.7966,3.7385,3.754,3.776,3.8165,3.8643,3.9036,3.8968,3.8881,3.8701,3.8465,3.8285,3.8034,3.7739,3.7504,3.7299,3.7203,3.7048,3.697,3.6908,3.6869,3.6771,3.6766,3.665,3.6336,3.6025,3.5437,3.5028,3.472,3.5099,3.5161,3.4758,3.4388,3.3921,3.3612,3.3435,3.303,3.2479,3.2303,3.2466,4.4156,4.3421,4.346,4.344,4.346,4.3556,4.375,4.3614,4.3711,4.3718,4.3749,4.3753,4.4335,4.4926,4.5045,4.5133,4.5109,4.508,4.4629,4.4428,4.4606,4.4919,4.4986,4.5501,4.5838,4.6037,4.6177,4.6119,4.6138,4.6115,4.6083,4.6037,4.5997,4.5977,4.5977,4.6007,4.6056,4.5891,4.5444,4.4993,4.4493,4.3886,4.3086,4.2363,4.1992,4.1738,4.1348,4.1191,4.1152,4.1113,4.1113,4.1065,4.0831,3.9462,3.8673,3.8536,3.8502,3.8505,3.8578,3.9747,4.05,3.9818,3.9597,3.8984,3.7638,3.7083,3.6833,3.6705,3.6864,3.7822,3.9094,3.9988,4.0236,4.0018,3.9506,3.8671,3.7923,3.814,3.8482,3.8272,3.8816,3.923,3.9165,3.905,3.8951,3.9006,3.8702,3.8219,3.7984,3.7739,3.7522,3.7429,3.7223,3.7069,3.7009,3.6908,3.6869,3.6829,3.6766,3.6591,3.6693,3.6293,3.6071,3.5905,3.5667,3.5487,3.527,3.4855,3.4488,3.4197,3.3954,3.3383,3.2784,3.2917,3.308,4.4504,4.4311,4.433,4.433,4.4427,4.4987,4.5239,4.52,4.522,4.5131,4.5299,4.5384,4.5483,4.5697,4.5754,4.5952,4.5864,4.5894,4.5838,4.571,4.5648,4.5735,4.5726,4.5969,4.6056,4.613,4.6123,4.6135,4.6166,4.6122,4.6085,4.6095,4.6026,4.5997,4.5997,4.5997,4.6007,4.6017,4.5852,4.5454,4.4868,4.4181,4.3378,4.2534,4.1855,4.1406,4.1269,4.1191,4.1191,4.1172,4.1128,4.1116,4.0886,4.0055,3.9213,3.8701,3.8512,3.8224,3.7873,3.8583,3.9312,3.9611,3.9181,3.8537,3.8222,3.7461,3.6794,3.6358,3.6598,3.7607,3.9044,3.9411,3.9832,4.013,4.0096,3.9603,3.8823,3.8586,3.8584,3.8649,3.9432,4.0198,3.9944,3.9893,3.9767,3.959,3.9103,3.851,3.8204,3.7967,3.7792,3.7631,3.7411,3.7223,3.7031,3.697,3.6948,3.7013,3.6986,3.7068,3.7113,3.7126,3.6853,3.6423,3.5932,3.5807,3.5814,3.5484,3.5198,3.4828,3.4506,3.4067,3.3775,3.3761,3.3583,4.5162,4.5181,4.5162,4.5162,4.522,4.5606,4.58,4.58,4.58,4.5814,4.5757,4.5572,4.5595,4.5886,4.5713,4.5721,4.6112,4.6228,4.6228,4.615,4.6093,4.6037,4.6027,4.6017,4.6037,4.6127,4.6144,4.617,4.619,4.6177,4.6151,4.6163,4.6095,4.6085,4.6055,4.6035,4.6016,4.6026,4.6047,4.5852,4.5421,4.5059,4.4143,4.311,4.2187,4.1601,4.125,4.1191,4.1191,4.1172,4.1133,4.1105,4.0968,4.0294,3.9591,3.9197,3.8662,3.8376,3.8093,3.8224,3.8714,3.913,3.9006,3.8797,3.8474,3.7897,3.7298,3.6571,3.6522,3.7038,3.8581,3.9161,3.9564,4.0166,4.0344,4.0041,3.9643,3.9431,3.9077,3.898,3.9733,4.0304,4.0477,4.0603,4.0381,4.0124,3.9872,3.9245,3.8515,3.8271,3.8018,3.7845,3.7595,3.7374,3.7147,3.7048,3.697,3.7141,3.7346,3.7539,3.7703,3.7683,3.7585,3.7172,3.6775,3.6566,3.6508,3.6209,3.5946,3.5646,3.534,3.5015,3.464,3.4314,3.4153,4.58,4.58,4.58,4.58,4.58,4.58,4.58,4.58,4.58,4.58,4.5717,4.5112,4.5421,4.5665,4.5385,4.5529,4.594,4.6137,4.617,4.6151,4.613,4.6095,4.6066,4.6027,4.6056,4.6203,4.6197,4.6206,4.621,4.6195,4.6186,4.6201,4.6183,4.6144,4.6095,4.6085,4.6055,4.6026,4.6037,4.6066,4.5982,4.5818,4.4928,4.3746,4.2734,4.2051,4.1562,4.1328,4.1191,4.1191,4.1152,4.1113,4.0923,4.0496,3.988,3.9809,3.9138,3.8697,3.8337,3.8312,3.8297,3.8461,3.8838,3.8992,3.8471,3.8263,3.7782,3.7114,3.6706,3.6817,3.8112,3.8878,3.9596,4.0166,4.0342,4.0308,4.0291,4.0234,3.9678,3.9299,4.0188,4.1046,4.1194,4.1285,4.0963,4.0707,4.0425,4.0031,3.9307,3.8839,3.8743,3.8466,3.8276,3.7738,3.7445,3.7143,3.7083,3.7238,3.7589,3.8023,3.8263,3.8373,3.8293,3.8061,3.7776,3.7585,3.7435,3.7257,3.6978,3.6599,3.6095,3.5635,3.5226,3.4818,3.4675,4.58,4.58,4.58,4.58,4.58,4.58,4.58,4.58,4.58,4.58,4.5775,4.5725,4.5674,4.5803,4.5928,4.5977,4.6068,4.6103,4.613,4.6118,4.6111,4.6085,4.6037,4.6017,4.6075,4.6183,4.6197,4.6214,4.6218,4.6206,4.6214,4.6183,4.6154,4.6122,4.6104,4.6047,4.6046,4.6026,4.6017,4.6066,4.5998,4.5589,4.4863,4.3778,4.2939,4.238,4.1992,4.1504,4.1191,4.1191,4.1191,4.1152,4.1091,4.0923,4.0525,4.005,3.9653,3.9217,3.8705,3.7912,3.7956,3.8149,3.817,3.8123,3.8218,3.8369,3.7994,3.7414,3.7085,3.739,3.8981,3.9248,3.9657,4.0159,4.0379,4.0344,4.0291,4.033,4.0233,3.9897,4.0906,4.1856,4.1958,4.2089,4.2025,4.1699,4.1342,4.0953,4.0386,4.0061,3.9984,3.9579,3.9152,3.842,3.7719,3.7405,3.727,3.739,3.7774,3.8485,3.8802,3.9059,3.9021,3.9068,3.8894,3.8642,3.8493,3.8298,3.7929,3.7529,3.6878,3.6223,3.573,3.5271,3.4998,4.58,4.58,4.58,4.58,4.58,4.58,4.58,4.58,4.58,4.58,4.5814,4.5822,4.5822,4.5841,4.588,4.5975,4.6037,4.608,4.6115,4.6142,4.613,4.6084,4.6027,4.5998,4.6027,4.6111,4.6151,4.6221,4.6241,4.6261,4.6253,4.626,4.622,4.6183,4.615,4.6141,4.6085,4.6056,4.6037,4.6037,4.6105,4.5667,4.4991,4.3911,4.3283,4.2648,4.1736,4.1445,4.1152,4.1152,4.1172,4.1172,4.1191,4.1094,4.0957,4.0545,4.0129,3.9715,3.9123,3.8374,3.799,3.7776,3.7759,3.7774,3.7921,3.8035,3.8205,3.7812,3.7181,3.7618,3.9174,3.9345,3.9685,4.0236,4.0432,4.0381,4.0423,4.0711,4.0768,4.0762,4.1575,4.2335,4.2769,4.2894,4.3032,4.2761,4.2279,4.182,4.1379,4.1189,4.1034,4.0479,3.9944,3.9282,3.8582,3.8219,3.7851,3.7845,3.8245,3.9,3.95,3.9887,4.0278,4.0499,4.022,3.9678,3.9467,3.9254,3.8842,3.8362,3.7609,3.6899,3.6241,3.5756,3.5585,4.58,4.58,4.58,4.58,4.58,4.58,4.58,4.58,4.58,4.5935,4.6032,4.593,4.6027,4.6239,4.6195,4.61,4.6019,4.6036,4.6111,4.6138,4.6122,4.6074,4.6046,4.6027,4.6017,4.6056,4.6119,4.6222,4.626,4.6296,4.63,4.6277,4.6277,4.626,4.6196,4.6185,4.6149,4.6095,4.6047,4.6047,4.6132,4.6098,4.5631,4.4335,4.4061,4.332,4.2431,4.1988,4.1874,4.1777,4.1641,4.1562,4.1621,4.1328,4.1211,4.1199,4.0567,4.0207,3.9891,3.9259,3.8569,3.8224,3.8283,3.8129,3.8202,3.8556,3.8749,3.8627,3.8161,3.8164,3.9515,3.9615,3.9873,4.0252,4.0468,4.0494,4.0784,4.115,4.1705,4.193,4.2392,4.274,4.3182,4.3549,4.3655,4.3472,4.2989,4.277,4.2345,4.2114,4.1849,4.1275,4.0702,4.0129,3.9626,3.9301,3.8956,3.8736,3.9263,3.9962,4.043,4.0806,4.1145,4.1341,4.1078,4.0604,4.0411,4.0207,3.9829,3.9237,3.8321,3.7661,3.7189,3.6827,3.6622,4.58,4.58,4.58,4.58,4.58,4.58,4.58,4.58,4.58,4.6264,4.667,4.6206,4.6573,4.7323,4.7099,4.6545,4.6119,4.5988,4.6027,4.6037,4.6076,4.6056,4.6027,4.5988,4.6017,4.6066,4.6093,4.6146,4.6216,4.626,4.63,4.6277,4.624,4.6201,4.6209,4.6166,4.6095,4.6037,4.6007,4.6046,4.6144,4.6205,4.6021,4.5668,4.5141,4.4504,4.3844,4.3286,4.3019,4.3105,4.2539,4.2656,4.3008,4.1914,4.1777,4.1756,4.1515,4.0952,4.0737,4.0106,3.9513,3.9095,3.8926,3.8945,3.9072,3.9264,3.9652,4.0538,3.9791,3.9644,4.028,4.0475,4.0535,4.0485,4.0482,4.0854,4.1243,4.1646,4.2221,4.2984,4.3433,4.3426,4.3611,4.396,4.424,4.3986,4.3725,4.3449,4.3221,4.2883,4.2702,4.213,4.1714,4.1139,4.0635,4.033,3.995,3.9624,4.0175,4.0788,4.1029,4.1304,4.1658,4.175,4.1558,4.135,4.113,4.0892,4.0687,4.0145,3.9309,3.8739,3.8294,3.7925,3.7577,4.58,4.58,4.58,4.58,4.58,4.58,4.58,4.58,4.5819,4.5993,4.6264,4.6013,4.6264,4.6839,4.6557,4.6274,4.5963,4.5972,4.5986,4.5986,4.6035,4.6046,4.6056,4.6016,4.6016,4.6047,4.6084,4.6122,4.6162,4.6216,4.6245,4.624,4.6201,4.6196,4.6196,4.6119,4.6093,4.6066,4.6017,4.6046,4.6124,4.6119,4.5955,4.5551,4.5158,4.4816,4.4286,4.3434,4.3283,4.3353,4.2869,4.2832,4.3359,4.3008,4.2675,4.2257,4.208,4.1626,4.113,4.0753,4.034,3.9903,3.9477,3.9418,3.9695,3.9863,4.0388,4.1509,4.083,4.0768,4.1105,4.092,4.067,4.0577,4.0707,4.1116,4.166,4.2219,4.2776,4.3616,4.4338,4.422,4.4132,4.4271,4.4449,4.4229,4.4011,4.3831,4.3615,4.3395,4.3217,4.3039,4.2658,4.2244,4.1791,4.1394,4.0853,4.0619,4.0853,4.1353,4.1396,4.1636,4.1996,4.2044,4.1846,4.1674,4.1631,4.1383,4.1056,4.0722,4.0308,3.979,3.9239,3.8614,3.8328,4.58,4.58,4.58,4.58,4.58,4.58,4.58,4.58,4.58,4.5916,4.6148,4.6341,4.6303,4.5969,4.6137,4.6215,4.5872,4.5932,4.596,4.5972,4.5983,4.6014,4.6025,4.5983,4.5983,4.5986,4.6056,4.6085,4.6113,4.6138,4.6157,4.6195,4.6196,4.6196,4.6162,4.6111,4.6084,4.6066,4.6017,4.6046,4.6095,4.6113,4.5788,4.5472,4.5176,4.4949,4.4348,4.3911,4.3954,4.4139,4.3683,4.373,4.4336,4.3887,4.3535,4.3173,4.2993,4.2524,4.1931,4.14,4.0812,4.043,4.0398,4.0593,4.0533,4.0485,4.0968,4.2479,4.2034,4.1953,4.2047,4.1712,4.1393,4.1277,4.1216,4.155,4.1961,4.2696,4.3446,4.4287,4.4836,4.4903,4.4801,4.4726,4.464,4.4411,4.4285,4.4135,4.3897,4.3682,4.3526,4.3348,4.3204,4.2896,4.2697,4.2227,4.1792,4.1594,4.1832,4.1977,4.2082,4.2145,4.2408,4.2333,4.2086,4.1934,4.1805,4.1604,4.1408,4.1091,4.0791,4.0617,4.0127,3.95,3.9243,4.58,4.58,4.58,4.58,4.58,4.58,4.58,4.58,4.58,4.6206,4.6806,4.756,4.6922,4.6278,4.6355,4.6394,4.5833,4.5893,4.5919,4.5944,4.5968,4.596,4.596,4.596,4.598,4.596,4.5994,4.6046,4.6066,4.6056,4.6102,4.6169,4.6162,4.6146,4.613,4.6093,4.6047,4.6027,4.5988,4.6046,4.6085,4.6095,4.6027,4.6076,4.6074,4.6076,4.6008,4.5552,4.5475,4.5683,4.4898,4.4855,4.5254,4.4668,4.4294,4.423,4.3888,4.3479,4.2985,4.2123,4.1319,4.1289,4.1608,4.2017,4.1922,4.2818,4.3362,4.3363,4.3122,4.316,4.323,4.3073,4.2361,4.2116,4.2075,4.2453,4.29,4.3423,4.4173,4.4977,4.526,4.5213,4.5125,4.4967,4.477,4.4551,4.4266,4.4116,4.3961,4.3749,4.3649,4.3545,4.3495,4.3387,4.3406,4.3043,4.2627,4.2538,4.2649,4.2796,4.2905,4.2975,4.2768,4.2573,4.2374,4.2169,4.1934,4.1762,4.1604,4.1453,4.1241,4.1049,4.0951,4.0548,4.0412,4.58,4.58,4.58,4.58,4.58,4.58,4.58,4.58,4.58,4.5955,4.6341,4.6593,4.6457,4.6051,4.6032,4.6148,4.5833,4.586,4.5887,4.5887,4.5912,4.5925,4.5925,4.5925,4.5937,4.5949,4.5972,4.5994,4.6026,4.6026,4.6017,4.6056,4.6084,4.6075,4.6056,4.6056,4.6017,4.6007,4.5977,4.6016,4.6016,4.6035,4.6085,4.6143,4.6134,4.6163,4.6065,4.5628,4.5813,4.5891,4.5392,4.564,4.6088,4.5409,4.5176,4.5095,4.464,4.4321,4.3849,4.3105,4.2744,4.2733,4.3012,4.3173,4.3163,4.3916,4.4258,4.4303,4.4296,4.4258,4.4184,4.3666,4.3046,4.2879,4.3034,4.3412,4.3724,4.4132,4.4594,4.5227,4.5341,4.5317,4.5192,4.5103,4.4895,4.4667,4.4393,4.4128,4.3974,4.3832,4.3701,4.3634,4.3566,4.3532,4.3497,4.3463,4.3428,4.3393,4.3358,4.3322,4.3286,4.3178,4.3013,4.2824,4.2613,4.2374,4.2145,4.1909,4.1736,4.1604,4.1515,4.148,4.1418,4.1328,4.1209,4.58,4.58,4.58,4.58,4.58,4.58,4.58,4.58,4.58,4.58,4.58,4.58,4.58,4.58,4.5819,4.5838,4.5833,4.5847,4.5893,4.5906,4.5899,4.5912,4.5893,4.5925,4.5956,4.598,4.5991,4.5994,4.6005,4.5997,4.6007,4.6007,4.5997,4.6007,4.6007,4.5977,4.5977,4.5977,4.5977,4.5977,4.5977,4.5997,4.6016,4.6074,4.6065,4.6104,4.6017,4.5745,4.5732,4.5874,4.5754,4.5679,4.5987,4.6161,4.5913,4.5585,4.5273,4.5018,4.4605,4.3928,4.3739,4.3494,4.3919,4.4002,4.422,4.4761,4.5222,4.5235,4.5218,4.5162,4.5052,4.4614,4.4066,4.3902,4.4094,4.4393,4.428,4.4514,4.4919,4.5381,4.5361,4.5338,4.5254,4.5125,4.4895,4.4693,4.444,4.4188,4.4017,4.3878,4.3753,4.3667,4.36,4.3566,4.3532,4.3532,4.3497,4.3463,4.3428,4.3428,4.3358,4.3286,4.3214,4.3013,4.2768,4.2552,4.231,4.2103,4.1909,4.1692,4.1666,4.1577,4.156,4.1453,4.1391,4.58,4.58,4.58,4.58,4.58,4.58,4.58,4.58,4.58,4.58,4.58,4.58,4.58,4.58,4.58,4.58,4.58,4.5814,4.5847,4.5874,4.5867,4.5893,4.5917,4.5937,4.5956,4.5937,4.596,4.6003,4.5983,4.5986,4.5997,4.6055,4.6113,4.6171,4.6035,4.5977,4.5977,4.6016,4.6085,4.5977,4.5977,4.5977,4.5997,4.6016,4.6016,4.6035,4.5988,4.591,4.591,4.5996,4.6016,4.5986,4.6137,4.6211,4.6128,4.6066,4.6069,4.6078,4.6069,4.462,4.413,4.4161,4.4723,4.4929,4.5045,4.5546,4.6001,4.5815,4.5944,4.5974,4.594,4.5759,4.5144,4.491,4.5067,4.5047,4.4914,4.4895,4.5263,4.5419,4.5361,4.5317,4.5235,4.5148,4.4919,4.4693,4.4468,4.4266,4.4128,4.3942,4.3786,4.3719,4.3634,4.3548,4.3513,4.3548,4.3548,4.3513,4.3497,4.3444,4.3428,4.3358,4.3251,4.316,4.2957,4.2709,4.2512,4.2351,4.2103,4.1909,4.1692,4.1666,4.1604,4.156,4.1498,4.58,4.58,4.58,4.58,4.58,4.58,4.58,4.58,4.58,4.58,4.58,4.58,4.58,4.58,4.58,4.58,4.58,4.58,4.5847,4.5827,4.5822,4.5854,4.5899,4.5925,4.5956,4.598,4.5991,4.5983,4.5986,4.5986,4.5986,4.6055,4.6521,4.6832,4.6696,4.6482,4.6201,4.6629,4.6396,4.5977,4.5977,4.5977,4.5977,4.5977,4.5977,4.5997,4.6035,4.5997,4.6017,4.6076,4.6076,4.6132,4.6142,4.6164,4.6209,4.6196,4.6196,4.6225,4.6241,4.5643,4.5489,4.548,4.5527,4.5733,4.5835,4.5981,4.617,4.6201,4.6212,4.6158,4.6065,4.5933,4.5557,4.5504,4.5557,4.5464,4.5374,4.5413,4.5549,4.5513,4.5458,4.538,4.5319,4.5213,4.4991,4.477,4.4551,4.4373,4.4207,4.4023,4.3851,4.3753,4.3686,4.3582,4.3548,4.3582,4.3548,4.3513,4.3479,4.3479,4.3428,4.3393,4.3286,4.3196,4.3013,4.2862,4.2709,4.2552,4.231,4.2121,4.1952,4.1736,4.1648,4.1648,4.156,4.58,4.58,4.58,4.58,4.58,4.58,4.58,4.58,4.58,4.58,4.58,4.58,4.58,4.58,4.58,4.58,4.58,4.5805,4.58,4.58,4.58,4.5841,4.5887,4.5919,4.5925,4.596,4.5991,4.5983,4.5964,4.5983,4.6197,4.6566,4.7023,4.7614,4.7606,4.7373,4.6502,4.6648,4.6162,4.5977,4.5977,4.5977,4.5977,4.5977,4.5977,4.5997,4.5997,4.5977,4.5997,4.6007,4.6047,4.6114,4.6102,4.6138,4.6185,4.6205,4.6208,4.622,4.6209,4.6225,4.6054,4.6148,4.629,4.6264,4.6211,4.6181,4.6177,4.6196,4.6201,4.6174,4.6122,4.6014,4.5917,4.5861,4.5786,4.5645,4.5618,4.5637,4.5586,4.5531,4.5495,4.5458,4.5399,4.5256,4.5103,4.4889,4.4659,4.4468,4.4285,4.4085,4.3897,4.3818,4.3753,4.3667,4.3634,4.3634,4.36,4.3513,4.3479,4.3479,4.3497,4.3428,4.3322,4.3232,4.316,4.305,4.2938,4.2786,4.257,4.2391,4.2228,4.2019,4.178,4.1736,4.1736,4.58,4.58,4.58,4.58,4.58,4.58,4.58,4.58,4.58,4.58,4.58,4.58,4.58,4.58,4.58,4.58,4.58,4.581,4.5805,4.5896,4.5993,4.5957,4.5977,4.6028,4.6048,4.5995,4.5949,4.5949,4.5898,4.596,4.6356,4.6906,4.728,4.7966,4.8218,4.8107,4.7209,4.6948,4.6249,4.6074,4.5997,4.5977,4.5977,4.5977,4.5977,4.5977,4.5977,4.5977,4.5977,4.6007,4.6066,4.6076,4.6085,4.6104,4.6141,4.6185,4.6208,4.6203,4.6211,4.6218,4.6234,4.6267,4.6305,4.6264,4.624,4.6231,4.6209,4.6209,4.6196,4.6196,4.6181,4.6074,4.5968,4.5902,4.5815,4.5752,4.568,4.5651,4.5601,4.5566,4.5531,4.5495,4.5419,4.5298,4.5213,4.5033,4.4815,4.4578,4.4383,4.4116,4.3961,4.3851,4.3818,4.3786,4.3753,4.3686,4.3634,4.3548,4.3479,4.3479,4.3497,4.3463,4.3376,4.334,4.334,4.3269,4.3142,4.2994,4.2804,4.2649,4.257,4.2269,4.2037,4.197,4.197,4.58,4.58,4.58,4.58,4.58,4.58,4.58,4.58,4.58,4.58,4.58,4.58,4.58,4.58,4.58,4.58,4.58,4.5819,4.5819,4.5974,4.6308,4.6201,4.6247,4.6358,4.6332,4.6074,4.5919,4.5912,4.5905,4.5937,4.5983,4.6287,4.7534,4.8141,4.8451,4.871,4.8301,4.7703,4.6771,4.6238,4.6074,4.6074,4.6035,4.6016,4.5997,4.5977,4.5977,4.5977,4.5977,4.6007,4.6007,4.6037,4.6105,4.6105,4.6143,4.6185,4.6208,4.6209,4.6196,4.6203,4.6211,4.6245,4.6286,4.6306,4.6287,4.6264,4.625,4.6228,4.6209,4.6203,4.6196,4.6119,4.6036,4.5988,4.5891,4.5835,4.5766,4.5692,4.5648,4.5603,4.5568,4.5513,4.5458,4.5419,4.5339,4.517,4.4986,4.4745,4.4496,4.4248,4.4055,4.3947,4.3851,4.3851,4.3786,4.3719,4.3634,4.3582,4.3548,4.3513,4.3497,4.3481,4.3411,4.3394,4.3376,4.3376,4.3359,4.3196,4.3049,4.303,4.2899,4.257,4.2328,4.2264,4.2139,4.58,4.58,4.58,4.58,4.58,4.58,4.58,4.58,4.58,4.58,4.5805,4.5819,4.5766,4.5757,4.5791,4.5791,4.5752,4.5746,4.5765,4.5959,4.663,4.6283,4.6317,4.6559,4.6462,4.6129,4.5852,4.5866,4.5912,4.5996,4.6061,4.7119,4.8153,4.8468,4.8914,4.9398,4.9387,4.8677,4.7804,4.6779,4.6355,4.6288,4.6327,4.6035,4.5997,4.5997,4.5997,4.5997,4.5977,4.5977,4.5977,4.6007,4.6066,4.6085,4.6114,4.6158,4.6193,4.6174,4.6162,4.6189,4.6196,4.6211,4.6245,4.6265,4.6286,4.629,4.6249,4.624,4.6222,4.6209,4.6169,4.6135,4.6111,4.6065,4.5988,4.591,4.5829,4.5761,4.5692,4.5654,4.5603,4.5549,4.5513,4.5514,4.5458,4.53,4.5175,4.5,4.4707,4.4402,4.4218,4.4092,4.3979,4.3915,4.3818,4.3786,4.3734,4.3649,4.3582,4.3548,4.3532,4.3497,4.3481,4.3446,4.3429,4.3429,4.3411,4.3394,4.3323,4.3251,4.3178,4.288,4.2631,4.257,4.2409,4.58,4.58,4.58,4.58,4.58,4.58,4.58,4.58,4.58,4.5805,4.581,4.5805,4.5791,4.5746,4.5761,4.5761,4.5712,4.5715,4.5719,4.5764,4.6571,4.6491,4.6163,4.6471,4.6426,4.602,4.5804,4.5926,4.6023,4.6375,4.7196,4.8372,4.8576,4.9021,4.9896,4.9973,4.9775,4.9059,4.8703,4.8075,4.6829,4.6704,4.6899,4.6141,4.5997,4.5997,4.5997,4.5997,4.5977,4.5977,4.5977,4.5977,4.6017,4.6066,4.6104,4.6122,4.6158,4.6138,4.613,4.6158,4.6174,4.619,4.6211,4.6245,4.6265,4.63,4.6273,4.6255,4.6245,4.6209,4.6177,4.6183,4.6169,4.6127,4.6093,4.5997,4.5917,4.5827,4.5712,4.5671,4.564,4.5603,4.5531,4.5532,4.5514,4.54,4.5282,4.5159,4.5076,4.4749,4.4543,4.4349,4.4141,4.4029,4.3897,4.3865,4.3851,4.3767,4.3701,4.3634,4.3634,4.3566,4.3532,4.3463,4.3446,4.3481,4.3481,4.3446,4.3411,4.3376,4.3305,4.3178,4.3013,4.288,4.2688,4.58,4.58,4.58,4.58,4.58,4.58,4.58,4.58,4.58,4.58,4.5805,4.581,4.5795,4.5765,4.5715,4.5715,4.57,4.5684,4.5684,4.5954,4.6555,4.6461,4.6015,4.6497,4.6397,4.5954,4.5796,4.619,4.6761,4.7352,4.7865,4.845,4.889,4.9707,5.019,5.019,4.9997,4.9305,4.9558,4.8897,4.7449,4.6957,4.6841,4.6232,4.5953,4.5994,4.5994,4.5986,4.5997,4.5977,4.5977,4.5977,4.6007,4.6056,4.6085,4.6114,4.6113,4.6113,4.6113,4.6141,4.6149,4.6166,4.6164,4.6201,4.6228,4.6267,4.628,4.6273,4.626,4.6231,4.6201,4.6209,4.6196,4.6183,4.6169,4.6095,4.6003,4.586,4.5731,4.5703,4.5693,4.564,4.5586,4.5568,4.555,4.5476,4.5342,4.53,4.5464,4.5295,4.5085,4.4824,4.4349,4.4191,4.4116,4.3961,4.3897,4.3851,4.3786,4.3753,4.3753,4.3634,4.3566,4.3532,4.3479,4.3497,4.3497,4.3497,4.3463,4.3428,4.3393,4.3286,4.3251,4.3123,4.2974,4.58,4.58,4.58,4.58,4.58,4.58,4.58,4.58,4.58,4.5819,4.5824,4.5815,4.5785,4.5754,4.5703,4.5668,4.5651,4.5671,4.5654,4.5921,4.6307,4.6271,4.6348,4.6444,4.6232,4.5905,4.6259,4.6773,4.7558,4.8013,4.843,4.8952,4.9571,4.9881,5.0113,5.0345,5.0136,4.9633,5.0221,4.9442,4.8056,4.7856,4.7049,4.6383,4.596,4.5991,4.5983,4.5986,4.5997,4.5977,4.5977,4.5977,4.6007,4.6047,4.6076,4.6076,4.6085,4.6123,4.6123,4.6123,4.6104,4.6122,4.6158,4.6209,4.622,4.6264,4.63,4.6293,4.6288,4.6255,4.625,4.6245,4.6209,4.6196,4.6183,4.6138,4.6026,4.5899,4.5805,4.577,4.5738,4.5687,4.5635,4.5637,4.5603,4.5622,4.5495,4.5419,4.559,4.6042,4.5779,4.5495,4.5134,4.4808,4.4786,4.4395,4.3961,4.3897,4.3902,4.3855,4.3841,4.3686,4.36,4.364,4.3605,4.3479,4.3479,4.3479,4.3479,4.3497,4.3463,4.3393,4.3376,4.334,4.3196,4.5684,4.578,4.58,4.58,4.58,4.58,4.58,4.5819,4.5819,4.5791,4.5781,4.5765,4.5758,4.5726,4.5673,4.564,4.564,4.562,4.5603,4.5796,4.6334,4.6103,4.6084,4.6201,4.6005,4.6251,4.6706,4.7394,4.8179,4.8767,4.9378,4.9765,4.9958,5.0152,5.0364,5.021,4.9745,4.9707,4.9784,4.9436,4.9059,4.8798,4.7546,4.6622,4.6007,4.5999,4.5972,4.5964,4.5986,4.5997,4.5997,4.5977,4.6007,4.6037,4.6037,4.6037,4.6066,4.6076,4.6105,4.6105,4.6114,4.6123,4.618,4.6212,4.6216,4.6234,4.6268,4.6303,4.6287,4.6288,4.6284,4.6255,4.6245,4.6209,4.6196,4.6169,4.6056,4.5949,4.5874,4.5829,4.5765,4.5715,4.5684,4.5687,4.569,4.5673,4.5676,4.564,4.5818,4.6474,4.6729,4.6506,4.6202,4.5914,4.5431,4.4712,4.4055,4.4023,4.3979,4.3939,4.3985,4.4136,4.4107,4.391,4.3858,4.3621,4.3513,4.3513,4.3513,4.3479,4.3497,4.3463,4.3446,4.3411,4.334,4.522,4.58,4.58,4.58,4.58,4.58,4.5805,4.5795,4.5795,4.5781,4.5715,4.5722,4.5709,4.5673,4.564,4.5603,4.5622,4.5603,4.5586,4.5701,4.5913,4.5778,4.574,4.5913,4.5791,4.6249,4.7053,4.8031,4.8491,4.9579,5.0345,5.0403,5.0596,5.0403,4.9803,4.9649,4.9571,4.9475,4.9126,4.8759,4.8256,4.7981,4.7865,4.7041,4.6255,4.6042,4.5912,4.5917,4.5941,4.5983,4.5986,4.5997,4.6007,4.6007,4.6007,4.6007,4.6026,4.6066,4.6076,4.6095,4.6105,4.6114,4.6152,4.6177,4.6183,4.6201,4.6234,4.6289,4.6306,4.6306,4.6296,4.6288,4.6255,4.624,4.6228,4.6169,4.6084,4.5975,4.5893,4.5847,4.581,4.5761,4.5696,4.57,4.57,4.5703,4.5709,4.5693,4.583,4.6665,4.7626,4.7302,4.7015,4.6418,4.5683,4.4748,4.4135,4.4085,4.4092,4.4109,4.4304,4.479,4.4757,4.4214,4.3889,4.3637,4.36,4.3566,4.3532,4.3513,4.3479,4.3497,4.3463,4.3446,4.3411]},{"header":{"parameterUnit":"m.s-1","parameterCategory":1,"la1":31.0,"la2":29.5877,"lo1":-88.7671,"lo2":-86.6584,"dy":0.0162,"dx":0.0185,"nx":115,"ny":88,"refTime":"2023-06-03T18:00:00:Z","depth":0,"parameterNumber":3,"parameterNumberName":"V-component_of_WINDS"},"data":[0.0,0.0,0.0,0.0,0.0,0.0,0.0,0.0,0.0,0.0,0.0,0.0,0.0,0.0,0.0,0.0,0.0,0.0,0.0,0.0,0.0,0.0,0.0,0.0,0.0,0.0,0.0,0.0,0.0,0.0,0.0,0.0,0.0,0.0,0.0,0.0,0.0,0.0,0.0,0.0,0.0,0.0,0.0,0.0,0.0,0.0,0.0,0.0,0.0,0.0,0.0,0.0,0.0,0.0,0.0,0.0,0.0,0.0,0.0,0.0,0.0,0.0,0.0,0.0,0.0,0.0,0.0,0.0,0.0,0.0,0.0,0.0,0.0,0.0,0.0,0.0,0.0,0.0,0.0,0.0,0.0,0.0,0.0,0.0,0.0,0.0,0.0,0.0,0.0,0.0,0.0,0.0,0.0,0.0,0.0,0.0,0.0,0.0,0.0,0.0,0.0,0.0,0.0,0.0,0.0,0.0,0.0,0.0,0.0,0.0,0.0,0.0,0.0,0.0,0.0,0.0,0.0,0.0,0.0,0.0,0.0,0.0,0.0,0.0,0.0,0.0,0.0,0.0,0.0,0.0,0.0,0.0,0.0,0.0,0.0,0.0,0.0,0.0,0.0,0.0,0.0,0.0,0.0,0.0,0.0,0.0,0.0,0.0,0.0,0.0,0.0,0.0,0.0,0.0,0.0,0.0,0.0,0.0,0.0,0.0,0.0,0.0,0.0,0.0,0.0,0.0,0.0,0.0,0.0,0.0,0.0,0.0,0.0,0.0,0.0,0.0,0.0,0.0,0.0,0.0,0.0,0.0,0.0,0.0,0.0,0.0,0.0,0.0,0.0,0.0,0.0,0.0,0.0,0.0,0.0,0.0,0.0,0.0,0.0,0.0,0.0,0.0,0.0,0.0,0.0,0.0,0.0,0.0,0.0,0.0,0.0,0.0,0.0,0.0,0.0,0.0,0.0,0.0,0.0,0.0,0.0,0.0,0.0,0.0,0.0,0.0,0.0,0.0,0.0,0.0,0.0,0.0,0.0,0.0,0.0,0.0,0.0,0.0,0.0,0.0,0.0,0.0,0.0,0.0,0.0,0.0,0.0,0.0,0.0,0.0,0.0,0.0,0.0,0.0,0.0,0.0,0.0,0.0,0.0,0.0,0.0,0.0,0.0,0.0,0.0,0.0,0.0,0.0,0.0,0.0,0.0,0.0,0.0,0.0,0.0,0.0,0.0,0.0,0.0,0.0,0.0,0.0,0.0,0.0,0.0,0.0,0.0,0.0,0.0,0.0,0.0,0.0,0.0,0.0,0.0,0.0,0.0,0.0,0.0,0.0,0.0,0.0,0.0,0.0,0.0,0.0,0.0,0.0,0.0,0.0,0.0,0.0,0.0,0.0,0.0,0.0,0.0,0.0,0.0,0.0,0.0,0.0,0.0,0.0,0.0,0.0,0.0,0.0,0.0,0.0,0.0,0.0,0.0,0.0,0.0,0.0,0.0,0.0,0.0,0.0,0.0,0.0,0.0,0.0,0.0,0.0,0.0,0.0,0.0,0.0,0.0,0.0,0.0,0.0,0.0,0.0,0.0,0.0,0.0,0.0,0.0,0.0,0.0,0.0,0.0,0.0,0.0,0.0,0.0,0.0,0.0,0.0,0.0,0.0,0.0,0.0,0.0,0.0,0.0,0.0,0.0,0.0,0.0,0.0,0.0,0.0,0.0,0.0,0.0,0.0,0.0,0.0,0.0,0.0,0.0,0.0,0.0,0.0,0.0,0.0,0.0,0.0,0.0,0.0,0.0,0.0,0.0,0.0,0.0,0.0,0.0,0.0,0.0,0.0,0.0,0.0,0.0,0.0,0.0,0.0,0.0,0.0,0.0,0.0,0.0,0.0,0.0,0.0,0.0,0.0,0.0,0.0,0.0,0.0,0.0,0.0,0.0,0.0,0.0,0.0,0.0,0.0,0.0,0.0,0.0,0.0,0.0,0.0,0.0,0.0,0.0,0.0,0.0,0.0,0.0,0.0,0.0,0.0,0.0,0.0,0.0,0.0,0.0,0.0,0.0,0.0,0.0,0.0,0.0,0.0,0.0,0.0,0.0,0.0,0.0,0.0,0.0,0.0,0.0,0.0,0.0,0.0,0.0,0.0,0.0,0.0,0.0,0.0,0.0,0.0,0.0,0.0,0.0,0.0,0.0,0.0,0.0,0.0,0.0,0.0,0.0,0.0,0.0,0.0,0.0,0.0,0.0,0.0,0.0,0.0,0.0,0.0,0.0,0.0,0.0,0.0,0.0,0.0,0.0,0.0,0.0,0.0,0.0,0.0,0.0,0.0,0.0,0.0,0.0,0.0,0.0,0.0,0.0,0.0,0.0,0.0,0.0,0.0,0.0,0.0,0.0,0.0,0.0,0.0,0.0,0.0,0.0,0.0,0.0,0.0,0.0,0.0,0.0,0.0,0.0,0.0,0.0,0.0,0.0,0.0,0.0,0.0,0.0,0.0,0.0,0.0,0.0,0.0,0.0,0.0,0.0,0.0,0.0,0.0,0.0,0.0,0.0,0.0,0.0,0.0,0.0,0.0,0.0,0.0,0.0,0.0,0.0,0.0,0.0,0.0,0.0,0.0,0.0,0.0,0.0,0.0,0.0,0.0,0.0,0.0,0.0,0.0,0.0,0.0,0.0,0.0,0.0,0.0,0.0,0.0,0.0,0.0,0.0,0.0,0.0,0.0,0.0,0.0,0.0,0.0,0.0,0.0,0.0,0.0,0.0,0.0,0.0,0.0,0.0,0.0,0.0,0.0,0.0,0.0,0.0,0.0,0.0,0.0,0.0,0.0,0.0,0.0,0.0,0.0,0.0,0.0,0.0,0.0,0.0,0.0,0.0,0.0,0.0,0.0,0.0,0.0,0.0,0.0,0.0,0.0,0.0,0.0,0.0,0.0,0.0,0.0,0.0,0.0,0.0,0.0,0.0,0.0,0.0,0.0,0.0,0.0,0.0,0.0,0.0,0.0,0.0,0.0,0.0,0.0,0.0,0.0,0.0,0.0,0.0,0.0,0.0,0.0,0.0,0.0,0.0,0.0,0.0,0.0,0.0,0.0,0.0,0.0,0.0,0.0,0.0,0.0,0.0,0.0,0.0,0.0,0.0,0.0,0.0,0.0,0.0,0.0,0.0,0.0,0.0,0.0,0.0,0.0,0.0,0.0,0.0,0.0,0.0,0.0,0.0,0.0,0.0,0.0,0.0,0.0,0.0,0.0,0.0,0.0,0.0,0.0,0.0,0.0,0.0,0.0,0.0,0.0,0.0,0.0,0.0,0.0,0.0,0.0,0.0,0.0,0.0,0.0,0.0,0.0,0.0,0.0,0.0,0.0,0.0,0.0,0.0,0.0,0.0,0.0,0.0,0.0,0.0,0.0,0.0,0.0,0.0,0.0,0.0,0.0,0.0,0.0,0.0,0.0,0.0,0.0,0.0,0.0,0.0,0.0,0.0,0.0,0.0,0.0,0.0,0.0,0.0,0.0,0.0,0.0,0.0,0.0,0.0,0.0,0.0,0.0,0.0,0.0,0.0,0.0,0.0,0.0,0.0,0.0,0.0,0.0,0.0,0.0,0.0,0.0,0.0,0.0,0.0,0.0,0.0,0.0,0.0,0.0,0.0,0.0,0.0,0.0,0.0,0.0,0.0,0.0,0.0,0.0,0.0,0.0,0.0,0.0,0.0,0.0,0.0,0.0,0.0,0.0,0.0,0.0,0.0,0.0,0.0,0.0,0.0,0.0,0.0,0.0,0.0,0.0,0.0,0.0,0.0,0.0,0.0,0.0,0.0,0.0,0.0,0.0,0.0,0.0,0.0,0.0,0.0,0.0,0.0,0.0,0.0,0.0,0.0,0.0,0.0,0.0,0.0,0.0,0.0,0.0,0.0,0.0,0.0,0.0,0.0,0.0,0.0,0.0,0.0,0.0,0.0,0.0,0.0,0.0,0.0,0.0,0.0,0.0,0.0,0.0,0.0,0.0,0.0,0.0,0.0,0.0,0.0,0.0,0.0,0.0,0.0,0.0,0.0,0.0,0.0,0.0,0.0,0.0,0.0,0.0,0.0,0.0,0.0,0.0,0.0,0.0,0.0,0.0,0.0,0.0,0.0,0.0,0.0,0.0,0.0,0.0,0.0,0.0,0.0,0.0,0.0,0.0,0.0,0.0,0.0,0.0,0.0,0.0,0.0,0.0,0.0,0.0,0.0,0.0,0.0,0.0,0.0,0.0,0.0,0.0,0.242,0.0,0.0,0.0,0.0,0.0,0.0,0.0,0.0,0.0,0.0,0.0,0.0,0.0,0.0,0.0,0.0,0.0,0.0,0.0,0.0,0.0,0.0,0.0,0.0,0.0,0.0,0.0,0.0,0.0,0.0,0.0,0.0,0.0,0.0,0.0,0.0,0.0,0.0,0.0,0.0,0.0,0.0,0.0,0.0,0.0,0.0,0.0,0.0,0.0,0.0,0.0,0.0,0.0,0.0,0.0,0.0,0.0,0.0,0.0,0.0,0.0,0.0,0.0,0.0,0.0,0.0,0.0,0.0,0.0,0.0,0.0,0.0,0.0,0.0,0.0,0.0,0.0,0.0,0.0,0.0,0.0,0.0,0.0,0.0,0.0,0.0,0.0,0.0,0.0,0.0,0.0,0.0,0.0,0.0,0.0,0.0,0.0,0.0,0.0,0.0,0.0,0.0,0.0,0.0,0.0,0.0,0.0,0.0,0.0,0.0,0.1768,0.1898,0.2059,0.2279,0.2556,0.0,0.0,0.0,0.0,0.0,0.0,0.0,0.0,0.0,0.0,0.0,0.0,0.0,0.0,0.0,0.0,0.0,0.0,0.0,0.0,0.0,0.0,0.0,0.0,0.0,0.0,0.0,0.0,0.0,0.0,0.0,0.0,0.0,0.0,0.0,0.0,0.0,0.0,0.0,0.0,0.0,0.0,0.0,0.0,0.0,0.0,0.0,0.0,0.0,0.0,0.0,0.0,0.0,0.0,0.0,0.0,0.0,0.0,0.0,0.0,0.0,0.0,0.0,0.0,0.0,0.0,0.0,0.0,0.0,0.0,0.0,0.0,0.0,0.0,0.0,0.0,0.0,0.0,0.0,0.0,0.0,0.0,0.0,0.0,0.0,0.0,0.0,0.0,0.0,0.0,0.0,0.0,0.0,0.0,0.0,0.0,0.0,0.0,0.0,0.0,0.0,0.0,0.0,0.0,0.0,0.0,0.0,0.0,0.0,0.0,0.0,0.0,0.2146,0.2363,0.2711,0.0,0.0,0.0,0.0,0.0,0.0,0.0,0.0,0.0,0.0,0.0,0.0,0.0,0.0,0.0,0.0,0.0,0.0,0.0,0.0,0.0,0.0,0.0,0.0,0.0,0.0,0.0,0.0,0.0,0.0,0.0,0.0,0.0,0.0,0.0,0.0,0.0,0.0,0.0,0.0,0.0,0.0,0.0,0.0,0.0,0.0,0.0,0.0,0.0,0.0,0.0,0.0,0.0,0.0,0.0,0.0,0.0,0.0,0.0,0.0,0.0,0.0,0.0,0.0,0.0,0.0,0.0,0.0,0.0,0.0,0.0,0.0,0.0,0.0,0.0,0.0,0.0,0.0,0.0,0.0,0.0,0.0,0.0,0.0,0.0,0.0,0.0,0.0,0.0,0.0,0.0,0.0,0.0,0.0,0.0,0.0,0.0,0.0,0.0,0.0,0.0,0.0,0.0,0.0,0.0,0.0,0.0,0.0,0.0,0.0,0.1747,0.2272,0.2357,0.0,0.2851,0.0,0.0,0.0,0.0,0.0,0.0,0.0,0.0,0.0,0.0,0.0,0.0,0.0,0.0,0.0,0.0,0.0,0.0,0.0,0.0,0.0,0.0,0.0,0.0,0.0,0.0,0.0,0.0,0.0,0.0,0.0,0.0,0.0,0.0,0.0,0.0,0.0,0.0,0.0,0.0,0.0,0.0,0.0,0.0,0.0,0.0,0.0,0.0,0.0,0.0,0.0,0.0,0.0,0.0,0.0,0.0,0.0,0.0,0.0,0.0,0.0,0.0,0.0,0.0,0.0,0.0,0.0,0.0,0.0,0.0,0.0,0.0,0.0,0.0,0.0,0.0,0.0,0.0,0.0,0.0,0.0,0.0,0.0,0.0,0.0,0.0,0.0,0.0,0.0,0.0,0.0,0.0,0.0,0.0,0.0,0.0,0.0,0.0,0.0,0.0,0.0,0.0,0.0,0.0,0.0,0.0,0.0,0.0,0.0,0.0,0.2019,0.2013,0.2364,0.2615,0.0,0.0,0.0,0.0,0.0,0.0,0.0,0.0,0.0,0.0,0.0,0.0,0.0,0.0,0.0,0.0,0.0,0.0,0.0,0.0,0.0,0.0,0.0,0.0,0.0,0.0,0.0,0.0,0.0,0.0,0.0,0.0,0.0,0.0,0.0,0.0,0.0,0.0,0.0,0.0,0.0,0.0,0.0,0.0,0.0,0.0,0.0,0.0,0.0,0.0,0.0,0.0,0.0,0.0,0.0,0.0,0.0,0.0,0.0,0.0,0.0,0.0,0.0,0.0,0.0,0.0,0.0,0.0,0.0,0.0,0.0,0.0,0.0,0.0,0.0,0.0,0.0,0.0,0.0,0.0,0.0,0.0,0.0,0.0,0.0,0.0,0.0,0.0,0.0,0.0,0.0,0.0,0.0,0.0,0.0,0.0,0.0,0.0,0.0,0.0,0.0,0.0,0.0,0.0,0.0,0.0,0.0,0.0,0.0,0.0,0.2051,0.2128,0.2045,0.2464,0.264,0.2502,0.0,0.0,0.0,0.0,0.0,0.0,0.0,0.0,0.0,0.0,0.0,0.0,0.0,0.0,0.0,0.0,0.0,0.0,0.0,0.0,0.0,0.0,0.0,0.0,0.0,0.0,0.0,0.0,0.0,0.0,0.0,0.0,0.0,0.0,0.0,0.0,0.0,0.0,0.0,0.0,0.0,0.0,0.0,0.0,0.0,0.0,0.0,0.0,0.0,0.0,0.0,0.0,0.0,0.0,0.0,0.0,0.0,0.0,0.0,0.0,0.0,0.0,0.0,0.0,0.0,0.0,0.0,0.0,0.0,0.0,0.0,0.0,0.0,0.0,0.0,0.0,0.0,0.0,0.0,0.0,0.0,0.0,0.0,0.0,0.0,0.0,0.0,0.0,0.0,0.0,0.0,0.0,0.0,0.0,0.0,0.0,0.0,0.0,0.0,0.0,0.0,0.0,0.0,0.0,0.0,0.0,0.0,0.0,0.2104,0.1884,0.1968,0.2452,0.2704,0.2706,0.0,0.0,0.0,0.0,0.0,0.0,0.0,0.0,0.0,0.0,0.0,0.0,0.0,0.0,0.0,0.0,0.0,0.0,0.0,0.0,0.0,0.0,0.0,0.0,0.0,0.0,0.0,0.0,0.0,0.0,0.0,0.0,0.0,0.0,0.0,0.0,0.0,0.0,0.0,0.0,0.0,0.0,0.0,0.0,0.0,0.0,0.0,0.0,0.0,0.0,0.0,0.0,0.0,0.0,0.0,0.0,0.0,0.0,0.0,0.0,0.0,0.0,0.0,0.0,0.0,0.0,0.0,0.0,0.0,0.0,0.0,0.0,0.0,0.0,0.0,0.0,0.0,0.0,0.0,0.0,0.0,0.0,0.0,0.0,0.0,0.0,0.0,0.0,0.0,0.0,0.0,0.0,0.0,0.0,0.0,0.0,0.0,0.0,0.0,0.0,0.0,0.0,0.0,0.0,0.0,0.0,0.0,0.0,0.0,0.1718,0.2033,0.2259,0.2565,0.2526,0.2602,0.0,0.0,0.0,0.0,0.0,0.0,0.0,0.0,0.0,0.0,0.0,0.0,0.0,0.0,0.0,0.0,0.0,0.0,0.0,0.0,0.0,0.0,0.0,0.0,0.0,0.0,0.0,0.0,0.0,0.0,0.0,0.0,0.0,0.0,0.0,0.0,0.0,0.0,0.0,0.0,0.0,0.0,0.0,0.0,0.0,0.0,0.0,0.0,0.0,0.0,0.0,0.0,0.0,0.0,0.0,0.0,0.0,0.0,0.0,0.0,0.0,0.0,0.0,0.0,0.0,0.0,0.0,0.0,0.0,0.0,0.0,0.0,0.0,0.0,0.0,0.0,0.0,0.0,0.0,0.0,0.0,0.0,0.0,0.0,0.0,0.0,0.0,0.0,0.0,0.0,0.0,0.0,0.0,0.0,0.0,0.0,0.0,0.0,0.0,0.0,0.0,0.0,0.0,0.0,0.0,0.0,0.0,0.0,0.0,0.1541,0.0,0.2571,0.2669,0.2678,0.2789,0.0,0.0,0.0,0.0,0.0,0.0,0.0,0.0,0.0,0.0,0.0,0.0,0.0,0.0,0.0,0.0,0.0,0.0,0.0,0.0,0.0,0.0,0.0,0.0,0.0,0.0,0.0,0.0,0.0,0.0,0.0,0.0,0.0,0.0,0.0,0.0,0.0,0.0,0.0,0.0,0.0,0.0,0.0,0.0,0.0,0.0,0.0,0.0,0.0,0.0,0.0,0.0,0.0,0.0,0.0,0.0,0.0,0.0,0.0,0.0,0.0,0.0,0.0,0.0,0.0,0.0,0.0,0.0,0.0,0.0,0.0,0.0,0.0,0.0,0.0,0.0,0.0,0.0,0.0,0.0,0.0,0.0,0.0,0.0,0.0,0.0,0.0,0.0,0.0,0.0,0.0,0.0,0.0,0.0,0.0,0.0,0.0,0.0,0.0,0.0,0.0,0.0,0.0,0.0,0.0,0.0,0.0,0.0,0.0551,0.1575,0.2309,0.2719,0.2826,0.3091,0.3349,0.0,0.0,0.0,0.0,0.0,0.0,0.0,0.0,0.0,0.0,0.0,0.0,0.0,0.0,0.0,0.0,0.0,0.0,0.0,0.0,0.0,0.0,0.0,0.0,0.0,0.0,0.0,0.0,0.0,0.0,0.0,0.0,0.0,0.0,0.0,0.0,0.0,0.0,0.0,0.0,0.0,0.0,0.0,0.0,0.0,0.0,0.0,0.0,0.0,0.0,0.0,0.0,0.0,0.0,0.0,0.0,0.0,0.0,0.0,0.0,0.0,0.0,0.0,0.0,0.0,0.0,0.0,0.0,0.0,0.0,0.0,0.0,0.0,0.0,0.0,0.0,0.0,0.0,0.0,0.0,0.0,0.0,0.0,0.0,0.0,0.0,0.0,0.0,0.0,0.0,0.0,0.0,0.0,0.0,0.0,0.0,0.0,0.0,0.0,0.0,0.0,0.0,0.0,0.0,0.0,0.0,0.0,0.0,0.0,0.165,0.1889,0.24,0.319,0.3292,0.3558,0.0,0.0,0.0,0.0,0.0,0.0,0.0,0.0,0.0,0.0,0.0,0.0,0.0,0.0,0.0,0.0,0.0,0.0,0.0,0.0,0.0,0.0,0.0,0.0,0.0,0.0,0.0,0.0,0.0,0.0,0.0,0.0,0.0,0.0,0.0,0.0,0.0,0.0,0.0,0.0,0.0,0.0,0.0,0.0,0.0,0.0,0.0,0.0,0.0,0.0,0.0,0.0,0.0,0.0,0.0,0.0,0.0,0.0,0.0,0.0,0.0,0.0,0.0,0.0,0.0,0.0,0.0,0.0,0.0,0.0,0.0,0.0,0.0,0.0,0.0,0.0,0.0,0.0,0.0,0.0,0.0,0.0,0.0,0.0,0.0,0.0,0.0,0.0,0.0,0.0,0.0,0.0,0.0,0.0,0.0,0.0,0.0,0.0,0.0,0.0,0.0,0.0,0.0,0.0,0.0,0.0,0.0,0.0,0.0,0.1941,0.1922,0.2305,0.317,0.3337,0.3789,0.4519,0.0,0.0,0.0,0.0,0.0,0.0,0.0,0.0,0.0,0.0,0.0,0.0,0.0,0.0,0.0,0.0,0.0,0.0,0.0,0.0,0.0,0.0,0.0,0.0,0.0,0.0,0.0,0.0,0.0,0.0,0.0,0.0,0.0,0.0,0.0,0.0,0.0,0.0,0.0,0.0,0.0,0.0,0.0,0.0,0.0,0.0,0.0,0.0,0.0,0.0,0.0,0.0,0.0,0.0,0.0,0.0,0.0,0.0,0.0,0.0,0.0,0.0,0.0,0.0,0.0,0.0,0.0,0.0,0.0,0.0,0.0,0.0,0.0,0.0,0.0,0.0,0.0,0.0,0.0,0.0,0.0,0.0,0.0,0.0,0.0,0.0,0.0,0.0,0.0,0.0,0.0,0.0,0.0,0.0,0.0,0.0,0.0,0.0,0.0,0.0,0.0,0.0,0.0,0.0,0.0,0.0,0.0,0.0,0.2486,0.2251,0.237,0.2895,0.3416,0.4174,0.0,0.0,0.0,0.0,0.0,0.0,0.0,0.0,0.0,0.0,0.0,0.0,0.0,0.0,0.0,0.0,0.0,0.0,0.0,0.0,0.0,0.0,0.0,0.0,0.0,0.0,0.0,0.0,0.0,0.0,0.0,0.0,0.0,0.0,0.0,0.0,0.0,0.0,0.0,0.0,0.0,0.0,0.0,0.0,0.0,0.0,0.0,0.0,0.0,0.0,0.0,0.0,0.0,0.0,0.0,0.0,0.0,0.0,0.0,0.0,0.0,0.0,0.0,0.0,0.0,0.0,0.0,0.0,0.0,0.0,0.0,0.0,0.0,0.0,0.0,0.0,0.0,0.0,0.0,0.0,0.0,0.0,0.0,0.0,0.0,0.0,0.0,0.0,0.0,0.0,0.0,0.0,0.0,0.0,0.0,0.0,0.0,0.0,0.0,0.0,0.0,0.0,0.0,0.0,0.0,0.0,0.0,0.0,0.0,0.2772,0.2381,0.2638,0.352,0.3508,0.412,0.0,0.0,0.0,0.0,0.0,0.0,0.0,0.0,0.0,0.0,0.0,0.0,0.0,0.0,0.0,0.0,0.0,0.0,0.0,0.0,0.0,0.0,0.0,0.0,0.0,0.0,0.0,0.0,0.0,0.0,0.0,0.0,0.0,0.0,0.0,0.0,0.0,0.0,0.0,0.0,0.0,0.0,0.0,0.0,0.0,0.0,0.0,0.0,0.0,0.0,0.0,0.0,0.0,0.0,0.0,0.0,0.0,0.0,0.0,0.0,0.0,0.0,0.0,0.0,0.0,0.0,0.0,0.0,0.0,0.0,0.0,0.0,0.0,0.0,0.0,0.0,0.0,0.0,0.0,0.0,0.0,0.0,0.0,0.0,0.0,0.0,0.0,0.0,0.0,0.0,0.0,0.0,0.0,0.0,0.0,0.0,0.0,0.0,0.0,0.0,0.0,0.0,0.0,0.0,0.0,0.0,0.0,0.0,0.1183,0.2645,0.2472,0.2849,0.3673,0.3612,0.394,0.0,0.0,0.0,0.0,0.0,0.0,0.0,0.0,0.0,0.0,0.0,0.0,0.0,0.0,0.0,0.0,0.0,0.0,0.0,0.0,0.0,0.0,0.0,0.0,0.0,0.0,0.0,0.0,0.0,0.0,0.0,0.0,0.0,0.0,0.0,0.0,0.0,0.0,0.0,0.0,0.0,0.0,0.0,0.0,0.0,0.0,0.0,0.0,0.0,0.0,0.0,0.0,0.0,0.0,0.0,0.0,0.0,0.0,0.0,0.0,0.0,0.0,0.0,0.0,0.0,0.0,0.0,0.0,0.0,0.0,0.0,0.0,0.0,0.0,0.0,0.0,0.0,0.0,0.0,0.0,0.0,0.0,0.0,0.0,0.0,0.0,0.0,0.0,0.0,0.0,0.0,0.0,0.0,0.0,0.0,0.0,0.0,0.0,0.0,0.0,0.0,0.0,0.0,0.0,0.0,0.0,0.0,0.0,0.1227,0.2216,0.2519,0.2883,0.3387,0.3635,0.3711,0.0,0.0,0.0,0.0,0.0,0.0,0.0,0.0,0.0,0.0,0.0,0.0,0.0,0.0,0.0,0.0,0.0,0.0,0.0,0.0,0.0,0.0,0.0,0.0,0.0,0.0,0.0,0.0,0.0,0.0,0.0,0.0,0.0,0.0,0.0,0.0,0.0,0.0,0.0,0.0,0.0,0.0,0.0,0.0,0.0,0.0,0.0,0.0,0.0,0.0,0.0,0.0,0.0,0.0,0.0,0.0,0.0,0.0,0.0,0.0,0.0,0.0,0.0,0.0,0.0,0.0,0.0,0.0,0.0,0.0,0.0,0.0,0.0,0.0,0.0,0.0,0.0,0.0,0.0,0.0,0.0,0.0,0.0,0.0,0.0,0.0,0.0,0.0,0.0,0.0,0.0,0.0,0.0,0.0,0.0,0.0,0.0,0.0,0.0,0.0,0.0,0.0,0.0,0.0,0.0,0.0,0.0,0.0,0.1383,0.2412,0.2492,0.2683,0.2964,0.3051,0.3346,0.0,0.0,0.0,0.0,0.0,0.0,0.0,0.0,0.0,0.0,0.0,0.0,0.0,0.0,0.0,0.0,0.0,0.0,0.0,0.0,0.0,0.0,0.0,0.0,0.0,0.0,0.0,0.0,0.0,0.0,0.0,0.0,0.0,0.0,0.0,0.0,0.0,0.0,0.0,0.0,0.0,0.0,0.0,0.0,0.0,0.0,0.0,0.0,1.2877,0.0,0.0,0.0,0.0,0.0,0.0,0.0,0.0,0.0,0.0,0.0,0.0,0.0,0.0,0.0,0.0,0.0,0.0,0.0,0.0,0.0,0.0,0.0,0.0,0.0,0.0,0.0,0.0,0.0,0.0,0.0,0.0,0.0,0.0,0.0,0.0,0.0,0.0,0.0,0.0,0.0,0.0,0.0,0.0,0.0,0.0,0.0,0.0,0.0,0.0,0.0,0.0,0.0,0.0,0.0,0.0,0.0,0.0,0.0,0.1411,0.2104,0.2358,0.2542,0.2625,0.2701,0.2944,0.0,0.0,0.0,0.0,0.0,0.0,0.0,0.0,0.0,0.0,0.0,0.0,0.0,0.0,0.0,0.0,0.0,0.0,0.0,0.0,0.0,0.0,0.0,0.0,0.0,0.0,0.0,0.0,0.0,0.0,0.0,0.0,0.0,0.0,0.0,0.0,0.0,0.0,0.0,0.0,0.0,0.0,0.0,0.0,0.0,0.0,0.0,0.0,0.0,0.0,0.0,0.0,0.0,0.0,0.0,0.0,0.0,0.0,0.0,0.0,0.0,0.0,0.0,0.0,0.0,0.0,0.0,0.0,0.0,0.0,0.0,0.0,0.0,0.0,0.0,0.0,0.0,0.0,0.0,0.0,0.0,0.0,0.0,0.0,0.0,0.0,0.0,0.0,0.0,0.0,0.0,0.0,0.0,0.0,0.0,0.0,0.0,0.0,0.0,0.0,0.0,0.0,0.0,0.0,0.0,0.0,0.0,0.0711,0.1503,0.1835,0.2216,0.2392,0.2482,0.2436,0.2632,0.309,0.0,0.0,0.0,0.0,0.0,0.0,0.0,0.0,0.0,0.0,0.0,0.0,0.0,0.0,0.0,0.0,0.0,0.0,0.0,0.0,0.0,0.0,0.0,0.0,0.0,0.0,0.0,0.0,0.0,0.0,0.0,0.0,0.0,0.0,0.0,0.0,0.0,0.0,0.826,1.0026,0.0,0.0,0.0,0.0,0.0,0.0,0.0,0.0,1.3616,0.0,0.0,0.0,0.0,0.0,0.0,0.0,0.0,0.0,0.0,0.0,0.0,0.0,0.0,0.0,0.0,0.0,0.0,0.0,0.0,0.0,0.0,0.0,0.0,0.0,0.0,0.0,0.0,0.0,0.0,0.0,0.0,0.0,0.0,0.0,0.0,0.0,0.0,0.0,0.0,0.0,0.0,0.0,0.0,0.0,0.0,0.0,0.0,0.0,0.0,0.0,0.0,0.0,0.0,0.0,0.0,-0.0571,0.066,0.1655,0.2317,0.2384,0.2392,0.2337,0.2409,0.2618,0.2907,0.0,0.0,0.0,0.0,0.0,0.0,0.0,0.0,0.0,0.0,0.0,0.0,0.0,0.0,0.0,0.0,0.0,0.0,0.0,0.0,0.0,0.0,0.0,0.0,0.0,0.0,0.0,0.0,0.0,0.0,0.0,0.0,0.0,0.0,0.0,0.0,0.0,0.0,0.0,0.9643,1.0731,0.0,0.0,0.0,0.0,0.0,0.0,0.0,0.0,1.3292,0.0,0.0,0.0,0.0,0.0,0.0,0.0,0.0,0.0,0.0,0.0,0.0,0.0,0.0,0.0,0.0,0.0,0.0,0.0,0.0,0.0,0.0,0.0,0.0,0.0,0.0,0.0,0.0,0.0,0.0,0.0,0.0,0.0,0.0,0.0,0.0,0.0,0.0,0.0,0.0,0.0,0.0,0.0,0.0,0.0,0.0,0.0,0.0,0.0,0.0,0.0,0.0,0.0,0.0,0.0,-0.0629,0.0658,0.1578,0.2142,0.2273,0.2347,0.2289,0.2268,0.2553,0.0,0.0,0.0,0.0,0.0,0.0,0.0,0.0,0.0,0.0,0.0,0.0,0.0,0.0,0.0,0.0,0.0,0.0,0.0,0.0,0.0,0.0,0.0,0.0,0.0,0.0,0.0,0.0,0.0,0.0,0.0,0.0,0.0,0.0,0.0,0.0,0.0,0.0,0.0,0.0,0.9371,1.0269,1.0326,0.0,0.0,0.0,0.0,0.0,0.0,1.302,1.3382,0.0,0.0,0.0,0.0,0.0,0.0,0.0,0.0,0.0,0.0,0.0,0.0,0.0,0.0,0.0,0.0,0.0,0.0,0.0,0.0,0.0,0.0,0.0,0.0,0.0,0.0,0.0,0.0,0.0,0.0,0.0,0.0,0.0,0.0,0.0,0.0,0.0,0.0,0.0,0.0,0.0,0.0,0.0,0.0,0.0,0.0,0.0,0.0,0.0,0.0,0.0,0.0,0.0,0.0,0.0,-0.0864,0.0457,0.1431,0.1963,0.2149,0.2294,0.2244,0.2139,0.2493,0.0,0.0,0.0,0.0,0.0,0.0,0.0,0.0,0.0,0.0,0.0,0.0,0.0,0.0,0.0,0.0,0.0,0.0,0.0,0.0,0.0,0.0,0.0,0.0,0.0,0.0,0.0,0.0,0.0,0.0,0.0,0.0,0.0,0.0,0.0,0.0,0.0,0.0,0.0,0.0,0.0,0.9886,1.0164,1.0913,0.0,0.0,0.0,0.0,1.2752,1.3174,0.0,0.0,0.0,0.0,0.0,0.0,0.0,0.0,0.0,0.0,0.0,0.0,0.0,0.0,0.0,0.0,0.0,0.0,0.0,0.0,0.0,0.0,0.0,0.0,0.0,0.0,0.0,0.0,0.0,0.0,0.0,0.0,0.0,0.0,0.0,0.0,0.0,0.0,0.0,0.0,0.0,0.0,0.0,0.0,0.0,0.0,0.0,0.0,0.0,0.0,0.0,0.0,0.0,0.0,0.0,0.0,-0.1174,0.0065,0.1294,0.2171,0.2252,0.2181,0.2244,0.2179,0.2414,0.0,0.0,0.0,0.0,0.0,0.0,0.0,0.0,0.0,0.0,0.0,0.0,0.0,0.0,0.0,0.0,0.0,0.0,0.0,0.0,0.0,0.0,0.0,0.0,0.0,0.0,0.0,0.0,0.0,0.0,0.0,0.0,0.0,0.0,0.0,0.0,0.0,0.0,0.0,0.0,0.0,0.9761,1.0163,1.088,1.1501,0.0,0.0,1.3132,1.3061,1.3519,0.0,0.0,0.0,0.0,0.0,0.0,0.0,0.0,0.0,0.0,0.0,0.0,0.0,0.0,0.0,0.0,0.0,0.0,0.0,0.0,0.0,0.0,0.0,0.0,0.0,0.0,0.0,0.0,0.0,0.0,0.0,0.0,0.0,0.0,0.0,0.0,0.0,0.0,0.0,0.0,0.0,0.0,0.0,0.0,0.0,0.0,0.0,0.0,0.0,0.0,0.0,0.0,0.0,0.0,0.0,-0.1198,-0.0865,0.0131,0.1149,0.1987,0.2157,0.2229,0.2194,0.2168,0.2279,0.0,0.0,0.0,0.0,0.0,0.0,0.0,0.0,0.0,0.0,0.0,0.0,0.0,0.0,0.0,0.0,0.0,0.0,0.0,0.0,0.0,0.0,0.0,0.0,0.0,0.0,0.0,0.0,0.0,0.0,0.0,0.0,0.0,0.0,0.0,0.0,0.0,0.0,0.0,0.0,0.0,0.0,1.021,1.1028,0.0,0.0,0.0,1.3926,1.3834,0.0,0.0,0.0,0.0,0.0,0.0,0.0,0.0,0.0,0.0,0.0,0.0,0.0,0.0,0.0,0.0,0.0,0.0,0.0,0.0,0.0,0.0,0.0,0.0,0.0,0.0,0.0,0.0,0.0,0.0,0.0,0.0,0.0,0.0,0.0,0.0,0.0,0.0,0.0,0.0,0.0,0.0,0.0,0.0,0.0,0.0,0.0,0.0,0.0,0.0,0.0,0.0,0.0,0.0,0.0,0.0,0.0,-0.0618,0.0196,0.1008,0.1682,0.206,0.22,0.2154,0.2064,0.0,0.0,0.0,0.0,0.0,0.0,0.0,0.0,0.0,0.0,0.0,0.0,0.0,0.0,0.0,0.0,0.0,0.0,0.0,0.0,0.0,0.0,0.0,0.0,0.0,0.0,0.0,0.2949,0.0,0.0,0.0,0.0,0.0,0.0,0.0,0.0,0.0,0.0,0.0,0.0,0.0,0.0,0.9628,1.049,1.1406,1.2263,0.0,0.0,1.4642,1.4711,1.5334,1.567,0.0,0.0,0.0,0.0,0.0,0.0,0.0,0.0,0.0,0.0,0.0,0.0,0.0,0.0,0.0,0.0,0.0,0.0,0.0,0.0,0.0,0.0,0.0,0.0,0.0,0.0,0.0,0.0,0.0,0.0,0.0,0.0,0.0,0.0,0.0,0.0,0.0,0.0,0.0,0.0,0.0,0.0,0.0,0.0,0.0,0.0,0.0,0.0,0.0,0.0,0.0,0.0,0.0,0.0,-0.1171,-0.0619,0.0131,0.0806,0.1412,0.1954,0.2089,0.1951,0.2078,0.2246,0.0,0.0,0.0,0.0,0.0,0.0,0.0,0.0,0.0,0.0,0.0,0.0,0.0,0.0,0.0,0.0,0.0,0.0,0.0,0.0,0.0,0.0,0.0,0.0,0.0,0.0,0.0,0.0,0.0,0.0,0.0,0.0,0.0,0.0,0.0,0.0,0.0,0.0,0.0,0.0,0.0,1.037,1.1022,1.2089,1.3122,0.0,1.4736,1.5305,1.5581,1.5776,1.576,1.5461,0.0,0.0,0.0,0.0,0.0,0.0,0.0,0.0,0.0,0.0,0.0,0.0,0.0,0.0,0.0,0.0,0.0,0.0,0.0,0.0,0.0,0.0,0.0,0.0,0.0,0.0,0.0,0.0,0.0,0.0,0.0,0.0,0.0,0.0,0.0,0.0,0.0,0.0,0.0,0.0,0.0,0.0,0.0,0.0,0.0,0.0,0.0,0.0,0.0,0.0,0.0,0.0,0.0,-0.1174,-0.0741,0.0,0.0739,0.1412,0.1816,0.1951,0.1884,0.2051,0.2152,0.0,0.0,0.0,0.0,0.0,0.0,0.0,0.0,0.0,0.0,0.0,0.0,0.0,0.0,0.0,0.0,0.0,0.0,0.0,0.0,0.0,0.0,0.0,0.0,0.0,0.0,0.0,0.0,0.4257,0.4824,0.5322,0.0,0.0,0.0,0.0,0.0,0.0,0.0,0.0,0.0,0.0,1.0724,1.1587,1.2603,0.0,0.0,1.5052,1.5713,1.5556,1.6066,1.6321,1.5833,1.6229,0.0,0.0,0.0,0.0,0.0,0.0,0.0,0.0,0.0,0.0,0.0,0.0,0.0,0.0,0.0,0.0,0.0,0.0,0.0,0.0,0.0,0.0,0.0,0.0,0.0,0.0,0.0,0.0,0.0,0.0,0.0,0.0,0.0,0.0,0.0,0.0,0.0,0.0,0.0,0.0,0.0,0.0,0.0,0.0,0.0,0.0,0.0,0.0,0.0,0.0,0.0,0.0,-0.1174,-0.0802,-0.0065,0.0672,0.1344,0.1748,0.1884,0.1883,0.2046,0.2155,0.0,0.0,0.0,0.0,0.0,0.0,0.0,0.0,0.0,0.0,0.0,0.0,0.0,0.0,0.0,0.0,0.0,0.0,0.0,0.0,0.0,0.0,0.0,0.0,0.0,0.0,0.0,0.0,0.4488,0.5077,0.5733,0.0,0.0,0.0,0.0,0.0,0.0,0.0,0.0,0.0,0.0,1.1424,1.2197,1.3182,1.3965,1.4387,1.5288,1.585,1.5801,1.6198,1.6412,1.6056,0.0,0.0,0.0,0.0,0.0,0.0,0.0,0.0,0.0,0.0,0.0,0.0,0.0,0.0,0.0,0.0,0.0,0.0,0.0,0.0,0.0,0.0,0.0,0.0,0.0,0.0,0.0,-0.1814,0.0,0.0,-0.1659,0.0,0.0,0.0,0.0,0.0,0.0,0.0,0.0,0.0,0.0,0.0,0.0,0.0,0.0,0.0,0.0,0.0,0.0,0.0,0.0,0.0,0.0,-0.1049,-0.0801,-0.0065,0.0672,0.1344,0.1748,0.1884,0.1884,0.2084,0.2218,0.2217,0.0,0.0,0.0,0.0,0.0,0.0,0.0,0.0,0.0,0.0,0.0,0.0,0.0,0.0,0.0,0.0,0.0,0.0,0.0,0.0,0.0,0.0,0.0,0.0,0.0,0.0,0.4404,0.4871,0.5444,0.0,0.0,0.0,0.0,0.0,0.0,0.0,0.0,0.0,1.0609,1.1551,1.2456,1.2905,1.387,1.4796,1.5578,1.5543,1.5723,1.6504,1.6267,1.5941,0.0,0.0,0.0,0.0,0.0,0.0,0.0,0.0,0.0,0.0,0.0,0.0,0.0,0.0,0.0,0.0,0.0,0.0,0.0,0.0,0.0,0.0,0.0,0.0,0.0,0.0,0.0,-0.1767,-0.1767,0.0,0.0,0.0,0.0,0.0,0.0,0.0,0.0,0.0,0.0,0.0,-0.1857,-0.2176,0.0,0.0,0.0,0.0,0.0,0.0,0.0,0.0,0.0,0.0,0.0,0.0,-0.0988,-0.1113,-0.0131,0.0672,0.121,0.1412,0.1547,0.1681,0.1884,0.2085,0.222,0.0,0.0,0.0,0.0,0.0,0.0,0.0,0.0,0.0,0.0,0.0,0.0,0.0,0.0,0.0,0.0,0.0,0.0,0.0,0.0,0.0,0.0,0.0,0.0,0.0,0.4491,0.0,0.0,0.0,0.0,0.0,0.0,0.0,0.0,0.0,0.0,0.0,1.0431,1.172,1.1985,1.2394,1.3237,1.4264,1.5044,0.0,0.0,0.0,0.0,0.0,0.0,0.0,0.0,0.0,0.0,0.0,0.0,0.0,0.0,1.8645,1.7752,1.7872,1.8187,1.8586,0.0,0.0,0.0,0.0,0.0,0.0,0.0,0.0,0.0,0.0,0.0,0.0,0.0,0.0,-0.1895,-0.1877,-0.178,0.0,0.0,0.0,0.0,0.0,0.0,0.0,0.0,-0.2005,-0.1992,-0.2037,-0.2245,-0.2365,-0.234,-0.2472,-0.2441,0.0,0.0,0.0,0.0,0.0,0.0,0.0,0.0,-0.0931,-0.1445,-0.0332,0.0543,0.1076,0.1154,0.1358,0.1682,0.1884,0.2085,0.2221,0.2578,0.2747,0.0,0.0,0.0,0.0,0.0,0.0,0.0,0.0,0.0,0.0,0.0,0.0,0.0,0.0,0.0,0.0,0.0,0.0,0.0,0.0,0.0,0.0,0.0,0.5007,0.0,0.0,0.0,0.0,0.0,0.0,0.0,0.0,0.0,0.9552,1.0188,1.0986,1.2069,1.2404,1.2802,1.3595,0.0,0.0,0.0,0.0,0.0,0.0,0.0,1.7203,1.7465,1.7911,1.8622,1.9912,2.0029,1.996,1.9971,0.0,0.0,1.8578,1.8521,1.8782,1.9229,1.8623,1.8498,2.0182,2.0029,1.9912,0.0,0.0,0.0,0.0,0.0,0.0,0.0,0.0,-0.1886,-0.1948,0.0,-0.1929,0.0,0.0,0.0,0.0,-0.2079,-0.214,0.0,0.0,-0.2072,-0.2164,-0.2225,-0.2423,-0.2607,-0.2731,-0.2682,-0.2548,-0.2465,-0.2038,0.0,0.0,0.0,0.0,0.0,0.0,-0.0815,-0.1611,-0.0544,0.0346,0.1078,0.1105,0.1314,0.1886,0.2085,0.2221,0.2221,0.2354,0.2423,0.2421,0.2614,0.0,0.0,0.0,0.0,0.0,0.0,0.0,0.0,0.0,0.0,0.0,0.0,0.0,0.0,0.0,0.0,0.0,0.0,0.0,0.0,0.5011,0.0,0.0,0.0,0.0,0.0,0.0,0.0,0.0,0.0,0.0,0.9185,1.0629,1.176,1.1664,0.0,0.0,0.0,0.0,1.5233,1.5984,1.6384,1.6786,1.7331,1.762,1.7843,1.8017,0.0,0.0,1.9437,1.9627,1.9935,2.0357,2.0064,1.9734,1.9746,1.9677,1.9666,1.9711,1.9467,1.9654,2.067,2.0899,2.1054,-0.1802,0.0,0.0,0.0,0.0,-0.1988,-0.2075,-0.2074,-0.2074,-0.2093,-0.2123,-0.2043,0.0,0.0,0.0,0.0,0.0,0.0,-0.2217,-0.2383,-0.221,-0.2261,-0.2435,-0.2669,-0.2826,-0.298,-0.3139,-0.2874,-0.2359,-0.2067,-0.1781,-0.1444,0.0,0.0,0.0,0.0,-0.0128,-0.0194,0.0409,0.0899,0.1079,0.1106,0.1314,0.1683,0.1884,0.2085,0.2221,0.2488,0.2555,0.2423,0.2792,0.0,0.0,0.0,0.0,0.0,0.0,0.0,0.0,0.0,0.0,0.0,0.0,0.0,0.0,0.0,0.0,0.0,0.0,0.0,0.4349,0.4739,0.529,0.0,0.0,0.0,0.0,0.0,0.0,0.0,0.0,0.0,1.048,1.1138,1.1889,0.0,0.0,1.3786,1.443,1.512,1.5839,1.6599,1.7178,0.0,1.823,1.848,1.8638,1.8815,1.9714,2.0511,2.0767,2.0986,2.1105,2.097,2.0857,2.0733,2.0699,2.0148,1.9861,2.0102,2.0045,2.0414,2.1654,2.1745,2.1753,-0.2421,-0.2266,-0.1849,-0.1808,-0.205,-0.2109,-0.2135,-0.2134,-0.2135,-0.2161,-0.2196,-0.2091,-0.2057,-0.2076,-0.2067,0.0,0.0,0.0,-0.2288,-0.2432,-0.2293,-0.2421,-0.2648,-0.28,-0.3035,-0.3276,-0.3418,-0.3151,-0.2507,-0.2304,-0.2006,-0.1561,0.0,-0.0497,-0.0,0.0259,0.0463,0.0669,0.0634,0.0714,0.0836,0.1048,0.1245,0.1616,0.1816,0.2018,0.2221,0.2421,0.2421,0.2354,0.2683,0.2836,0.0,0.0,0.0,0.0,0.0,0.0,0.0,0.0,0.0,0.0,0.0,0.2728,0.2695,0.0,0.0,0.0,0.348,0.3987,0.472,0.5061,0.0,0.0,0.0,0.0,0.0,0.0,0.0,0.8985,0.9827,1.0622,1.1253,1.197,1.2626,1.3252,1.3631,1.4181,1.4805,0.0,1.6147,1.6775,1.7562,1.8257,1.8658,1.9089,1.9401,1.9717,2.0364,2.0982,2.1104,2.1365,2.1486,2.14,2.1285,2.1221,2.1348,2.0788,2.0354,2.0653,2.0677,2.106,2.228,2.2116,2.2086,-0.2542,-0.2431,-0.2324,-0.2237,-0.2244,-0.2233,-0.2258,-0.2188,-0.2259,-0.2319,-0.2405,-0.2243,-0.2199,-0.224,-0.2202,0.0,-0.2055,-0.2306,-0.2376,-0.2363,-0.2375,-0.2583,-0.2919,-0.293,-0.3077,-0.3511,-0.3518,-0.3293,-0.2838,-0.2698,-0.2307,-0.1686,-0.0847,-0.0317,-0.0,0.0601,0.1028,0.1124,0.0443,0.0224,0.051,0.0923,0.1245,0.1548,0.1748,0.1951,0.2154,0.2221,0.2221,0.2218,0.243,0.2589,0.2587,0.0,0.0,0.0,0.0,0.0,0.0,0.0,0.0,0.0,0.0,0.0,0.0,0.0,0.0,0.0,0.4124,0.0,0.5173,0.5719,0.0,0.0,0.0,0.6694,0.754,0.7724,0.8242,0.9414,0.0,0.0,1.1614,1.2863,1.3629,1.3728,1.4138,1.4681,1.5215,1.5751,1.6292,1.6904,1.7686,1.8444,1.8798,1.9542,2.0128,2.05,2.0743,2.0882,2.1003,2.1183,2.1435,2.1724,2.1516,2.1366,2.167,2.136,2.1244,2.1267,2.1217,2.1479,2.2355,2.2203,2.2215,-0.2654,-0.2625,-0.2597,-0.2473,-0.2298,-0.2354,-0.2377,-0.2377,-0.2377,-0.2394,-0.2413,-0.2331,-0.2301,-0.2308,-0.2219,-0.218,-0.218,-0.2248,-0.24,-0.2572,-0.2459,-0.2594,-0.3003,-0.3059,-0.3133,-0.3383,-0.3593,-0.3402,-0.2701,-0.2598,-0.2221,-0.1589,-0.1134,-0.0697,-0.0275,0.0277,0.0703,0.1083,0.0894,0.0748,0.051,0.0852,0.1175,0.1345,0.1412,0.1614,0.1951,0.2085,0.2221,0.2221,0.2539,0.2596,0.2465,0.2531,0.0,0.0,0.0,0.0,0.0,0.0,0.0,0.0,0.0,0.3066,0.2911,0.0,0.3527,0.0,0.3956,0.4499,0.497,0.525,0.0,0.0,0.6519,0.7015,0.7927,0.8207,0.8815,1.0108,1.0907,1.1723,1.2538,1.3416,1.4164,1.453,1.4821,1.5191,1.5581,1.6009,1.6513,1.7176,1.7985,1.8725,1.9122,1.9874,2.0572,2.1075,2.1504,2.1901,2.2271,2.2298,2.2384,2.2428,2.205,2.1778,2.1874,2.1509,2.1417,2.1617,2.1567,2.1719,2.285,2.2468,2.2384,-0.2825,-0.2695,-0.2721,-0.264,-0.2497,-0.2527,-0.2541,-0.254,-0.2511,-0.25,-0.2495,-0.241,-0.2358,-0.2261,-0.2228,-0.2214,-0.2214,-0.2214,-0.237,-0.2616,-0.2616,-0.2741,-0.2924,-0.3042,-0.3274,-0.3542,-0.374,-0.3557,-0.3016,-0.2827,-0.2431,-0.178,-0.1409,-0.1031,-0.0799,-0.0435,0.0073,0.0815,0.0684,0.0529,0.0511,0.0862,0.119,0.128,0.1361,0.1498,0.1884,0.1976,0.2045,0.2223,0.2354,0.2421,0.2423,0.2455,0.2615,0.0,0.0,0.0,0.0,0.0,0.0,0.0,0.0,0.0,0.0,0.0,0.3685,0.376,0.4162,0.4643,0.5075,0.5385,0.5959,0.6706,0.6897,0.7371,0.8493,0.8636,0.9119,1.0435,1.0995,1.1752,1.2844,1.3499,1.4112,1.4824,1.4999,1.5213,1.5655,1.6,1.6482,1.7116,1.7789,1.8567,1.9365,2.008,2.0683,2.1172,2.1454,2.182,2.2347,2.2343,2.2353,2.2604,2.2455,2.226,2.2249,2.2053,2.195,2.2189,2.2228,2.2449,2.3097,2.2899,2.3025,-0.2985,-0.2804,-0.2773,-0.2851,-0.2801,-0.2715,-0.2702,-0.2677,-0.2632,-0.2608,-0.2594,-0.2481,-0.2403,-0.2283,-0.2349,-0.2273,-0.22,-0.2126,-0.2152,-0.2349,-0.2587,-0.2772,-0.2902,-0.3061,-0.3368,-0.3671,-0.3759,-0.3679,-0.3433,-0.3134,-0.2718,-0.2128,-0.1597,-0.1217,-0.1065,-0.1217,-0.0685,0.0533,0.0312,0.0308,0.0587,0.0952,0.1143,0.129,0.1311,0.1517,0.1819,0.1721,0.1865,0.2169,0.2165,0.2234,0.237,0.2369,0.2536,0.0,0.2513,0.0,0.0,0.0,0.0,0.0,0.0,0.0,0.0,0.3492,0.3783,0.4182,0.4576,0.5005,0.5399,0.5836,0.6421,0.7194,0.723,0.7712,0.8856,0.892,0.9408,1.0603,1.1009,1.1613,1.2909,1.3404,1.3987,1.4728,1.4864,1.5078,1.5434,1.5921,1.6412,1.683,1.7442,1.8389,1.9589,2.0138,2.0653,2.1177,2.1483,2.1607,2.2246,2.2195,2.2207,2.272,2.2857,2.2777,2.2777,2.2719,2.2685,2.2754,2.3003,2.3194,2.332,2.3427,2.3609,-0.3123,-0.3103,-0.2939,-0.285,-0.2928,-0.2839,-0.2755,-0.2623,-0.2658,-0.2649,-0.2597,-0.2525,-0.2486,-0.2473,-0.2429,-0.2409,-0.2334,-0.1655,-0.1357,-0.1364,-0.2009,-0.2501,-0.2904,-0.3294,-0.3337,-0.3206,-0.3573,-0.3571,-0.3049,-0.2798,-0.2427,-0.1951,-0.1482,-0.0937,-0.0312,0.0,0.0,0.0,0.1119,0.1106,0.1055,0.1128,0.1174,0.1114,0.1162,0.0,0.1412,0.1555,0.1777,0.2017,0.2157,0.0,0.0,0.0,0.0,0.0,0.0,0.0,0.0,0.0,0.0,0.0,0.3194,0.3136,0.3283,0.3423,0.3727,0.4238,0.476,0.518,0.5562,0.6021,0.6533,0.7016,0.7151,0.7664,0.8553,0.9093,0.9858,1.1026,1.1559,1.2192,1.3186,1.3674,1.405,1.4577,1.4792,1.5007,1.5204,1.578,1.6342,1.6839,1.7725,1.8773,1.991,2.0467,2.0935,2.16,2.2371,2.2844,2.2972,2.3273,2.3444,2.364,2.3427,2.3293,2.3223,2.2972,2.2857,2.3224,2.3445,2.3594,2.3814,2.378,2.4013,-0.3496,-0.3408,-0.3141,-0.305,0.0,-0.2963,-0.2804,-0.2696,-0.2756,-0.2764,-0.2733,-0.2672,-0.2644,-0.2643,-0.2533,-0.2262,-0.1837,-0.1919,-0.1907,-0.1808,-0.2146,-0.2619,-0.3061,-0.3217,-0.335,-0.3392,-0.3665,-0.3583,-0.3237,-0.3041,-0.2744,-0.2199,-0.1962,-0.1649,-0.1099,-0.1649,-0.11,0.0629,0.1113,0.1328,0.1267,0.1189,0.116,0.1102,0.1098,0.0,0.0,0.0,0.0,0.0,0.0,0.0,0.0,0.2119,0.0,0.2224,0.2258,0.2357,0.2645,0.2704,0.2851,0.3285,0.3332,0.3491,0.3763,0.3946,0.4201,0.4746,0.5077,0.5412,0.5842,0.6179,0.6618,0.7279,0.7699,0.8219,0.8974,0.9563,1.0289,1.1133,1.1464,1.1998,1.3331,1.357,1.3862,1.4506,1.4721,1.4864,1.5204,1.57,1.6342,1.7047,1.7872,1.8622,1.941,2.0184,2.0791,2.1161,2.1914,2.2501,2.29,2.3223,2.3519,2.3806,2.3826,2.3821,2.3798,2.3592,2.3511,2.3729,2.3989,2.4178,2.4366,2.4434,2.4662,-0.3765,-0.3587,-0.3406,-0.3226,-0.3227,-0.305,-0.2939,-0.2816,-0.2834,0.0,0.0,-0.2798,-0.2767,-0.2767,-0.2594,-0.2048,-0.1421,-0.2345,-0.2734,-0.251,-0.2587,-0.28,-0.3141,-0.3141,-0.3295,-0.3686,-0.3684,-0.3682,-0.3448,-0.337,-0.3057,-0.251,-0.2433,-0.2354,-0.2118,-0.1335,-0.0629,0.0,0.0868,0.1313,0.1251,0.1174,0.1074,0.1085,0.1102,0.1116,0.1121,0.1145,0.1454,0.1909,0.1689,0.1763,0.2202,0.2087,0.2057,0.2259,0.2283,0.2456,0.2725,0.2783,0.2911,0.325,0.3608,0.3937,0.4274,0.4423,0.4683,0.5222,0.5427,0.5683,0.6154,0.6316,0.6775,0.7703,0.8231,0.875,0.9421,1.0064,1.0655,1.1209,1.1416,1.1837,1.3245,1.3435,1.3698,1.4411,1.4641,1.4856,1.5275,1.5842,1.6412,1.7245,1.7794,1.8367,1.8856,1.9599,2.026,2.0689,2.1188,2.1815,2.2353,2.2711,2.3127,2.3745,2.4043,2.4177,2.4189,2.4131,2.4189,2.4189,2.4478,2.4706,2.479,2.504,2.5205,-0.3857,-0.3857,-0.3676,-0.3406,-0.3226,-0.3138,-0.3074,-0.2921,-0.2781,-0.2775,-0.2867,-0.2755,-0.2704,-0.2704,-0.2704,-0.217,-0.1388,-0.2126,-0.2507,-0.2531,-0.2764,-0.2755,-0.2668,-0.2982,-0.3141,-0.3219,-0.345,-0.3372,-0.3139,-0.2982,-0.2666,-0.2276,-0.2042,-0.1965,-0.1807,-0.0393,0.0236,0.0,0.0882,0.1266,0.1207,0.1205,0.1176,0.1118,0.1093,0.1095,0.112,0.1267,0.144,0.1578,0.1884,0.2035,0.211,0.225,0.2372,0.254,0.2525,0.2738,0.3096,0.3104,0.3203,0.3619,0.3852,0.4089,0.4284,0.4354,0.4632,0.5234,0.558,0.5946,0.6293,0.6611,0.7061,0.7706,0.8029,0.8524,0.9505,1.025,1.0906,1.1512,1.1984,1.2487,1.331,1.3513,1.38,1.4411,1.4713,1.5141,1.578,1.6132,1.6551,1.7097,1.7579,1.8076,1.8794,1.9489,2.0069,2.0801,2.1124,2.148,2.216,2.2557,2.3033,2.3588,2.397,2.4127,2.42,2.4189,2.4189,2.4189,2.4311,2.4371,2.4574,2.4838,2.5099,-0.4123,-0.4123,-0.3857,-0.3676,-0.3585,-0.3315,-0.3105,-0.2992,-0.2853,-0.2857,-0.3047,-0.2876,-0.2837,-0.2841,-0.2841,-0.263,-0.2232,-0.2579,-0.2617,-0.2533,-0.2692,-0.2736,-0.2672,-0.2824,-0.2982,-0.3139,-0.3217,-0.3159,-0.3037,-0.3042,-0.2817,-0.2441,-0.2336,-0.2227,-0.2123,-0.1021,-0.0314,-0.0,0.0397,0.0785,0.1213,0.1196,0.1166,0.1123,0.1107,0.1114,0.1144,0.1234,0.134,0.1544,0.1624,0.1777,0.2162,0.2136,0.2183,0.2454,0.2567,0.2693,0.2987,0.3243,0.3434,0.3719,0.4028,0.4365,0.4748,0.4789,0.5146,0.5741,0.5967,0.6225,0.6601,0.6829,0.7167,0.7863,0.823,0.8798,0.9632,1.0278,1.0911,1.1601,1.1892,1.2376,1.3404,1.3512,1.3818,1.4482,1.4848,1.5355,1.5991,1.6202,1.6482,1.7088,1.7442,1.7871,1.8547,1.8978,1.9489,2.0028,2.0477,2.0957,2.1549,2.2073,2.2756,2.3334,2.3751,2.4043,2.4189,2.4189,2.4189,2.42,2.4322,2.4394,2.4574,2.4778,2.4981,-0.4297,-0.43,-0.4034,-0.3946,-0.3857,-0.3496,-0.3197,-0.3089,-0.3001,-0.3016,-0.2996,-0.2959,-0.3033,-0.2944,-0.2944,-0.291,-0.286,-0.2854,-0.2794,-0.27,-0.2694,-0.2724,-0.28,-0.2792,-0.2872,-0.311,-0.319,-0.314,-0.3025,-0.3197,-0.3141,-0.285,-0.2727,-0.2679,-0.2472,-0.1675,-0.0878,-0.008,0.0239,0.0549,0.0985,0.104,0.1161,0.1134,0.1132,0.1145,0.1249,0.1199,0.1303,0.149,0.1415,0.1571,0.2038,0.2005,0.2062,0.2436,0.2622,0.2808,0.3013,0.3399,0.3696,0.3894,0.4134,0.4571,0.5173,0.5321,0.5594,0.616,0.6328,0.6479,0.6857,0.6938,0.7253,0.803,0.8479,0.8988,0.9765,1.0288,1.0812,1.1558,1.1781,1.2298,1.3193,1.3564,1.392,1.4625,1.5062,1.5497,1.6,1.6281,1.6551,1.6959,1.7314,1.7676,1.8144,1.8492,1.89,1.9333,1.9786,2.0419,2.1069,2.1722,2.2418,2.311,2.3604,2.3897,2.4116,2.4189,2.4189,2.42,2.4261,2.4418,2.4502,2.4634,2.4849,-0.4297,-0.4297,-0.43,-0.4125,-0.3857,-0.3676,-0.3417,-0.325,-0.3232,-0.3144,-0.2898,-0.2884,-0.2884,-0.2882,-0.2884,-0.2942,-0.2887,-0.2793,-0.2759,-0.2786,-0.2694,-0.2685,-0.267,-0.2673,-0.2925,-0.3335,-0.3331,-0.3335,-0.335,-0.3522,-0.3522,-0.336,-0.3106,-0.2847,-0.2506,-0.1752,-0.0918,-0.0,0.0836,0.0892,0.0228,0.0831,0.1119,0.109,0.1162,0.125,0.1279,0.1211,0.1226,0.1333,0.1493,0.165,0.1885,0.2113,0.2344,0.2735,0.2963,0.3167,0.3479,0.3691,0.3927,0.4239,0.4311,0.4756,0.5455,0.5538,0.5777,0.6183,0.649,0.6637,0.6865,0.7026,0.7411,0.8025,0.8479,0.9008,0.9781,1.0443,1.1037,1.1632,1.1981,1.2526,1.3411,1.3704,1.4168,1.5048,1.5237,1.5576,1.614,1.6272,1.6412,1.683,1.7107,1.7451,1.794,1.8202,1.8758,1.9609,1.9578,2.0133,2.1034,2.1493,2.1745,2.2952,2.3457,2.3751,2.4043,2.4189,2.4189,2.4189,2.4273,2.4273,2.4429,2.4502,2.4706,-0.4743,-0.4743,-0.4567,-0.4302,-0.3946,-0.3767,-0.3704,-0.3466,-0.3154,-0.2708,-0.2187,-0.2076,-0.2334,-0.2875,-0.2875,-0.286,-0.2926,-0.2837,-0.2804,-0.2837,-0.2747,-0.2728,-0.2695,-0.2694,-0.286,-0.3112,-0.3196,-0.3301,-0.3428,-0.3559,-0.3646,-0.3605,-0.3257,-0.2983,-0.2866,-0.244,-0.1345,0.0336,0.0504,0.0581,0.0808,0.1099,0.1233,0.1219,0.1203,0.1198,0.1288,0.1228,0.1322,0.1492,0.1573,0.1729,0.2041,0.2198,0.2353,0.2746,0.3139,0.3435,0.371,0.3742,0.3906,0.4173,0.4285,0.4696,0.5323,0.5559,0.5792,0.6183,0.6486,0.6718,0.6865,0.7103,0.7411,0.7949,0.825,0.8827,1.0033,1.0352,1.0941,1.201,1.2228,1.2645,1.3755,1.4351,1.4828,1.5348,1.545,1.5593,1.6061,1.6272,1.6412,1.6691,1.6899,1.7245,1.7725,1.8008,1.8624,1.9387,1.9624,2.0073,2.0958,2.1428,2.172,2.2733,2.3084,2.3412,2.3897,2.4043,2.4043,2.4116,2.4189,2.4273,2.4334,2.4345,2.449,-0.5034,-0.501,-0.4835,-0.4482,-0.4125,-0.4125,-0.398,-0.3751,-0.3247,-0.2533,-0.1739,-0.1445,-0.1705,-0.2244,-0.2424,-0.2604,-0.2875,-0.2875,-0.285,-0.2811,-0.2808,-0.2785,-0.2745,-0.2743,-0.2827,-0.2998,-0.3086,-0.3283,-0.3594,-0.3646,-0.3735,-0.3862,-0.3503,-0.3304,-0.3262,-0.2999,-0.1969,-0.0428,0.0,0.0685,0.1279,0.1321,0.1286,0.1269,0.124,0.1228,0.1314,0.1336,0.1354,0.1522,0.1594,0.1745,0.206,0.2203,0.2431,0.2824,0.3294,0.3604,0.3763,0.3841,0.3921,0.4155,0.4307,0.4696,0.5243,0.5559,0.5796,0.6261,0.6486,0.6718,0.6865,0.7099,0.7488,0.8025,0.8102,0.8716,1.0068,1.0344,1.0903,1.2172,1.2368,1.2797,1.4115,1.4797,1.5322,1.5561,1.5599,1.5581,1.5972,1.629,1.6448,1.6713,1.6933,1.7158,1.7558,1.7938,1.8488,1.9203,1.9725,2.0082,2.0958,2.1334,2.1618,2.2392,2.2637,2.2966,2.3526,2.3706,2.3879,2.4093,2.4189,2.4189,2.4189,2.4189,2.4273,-0.5101,-0.5015,-0.501,-0.4835,-0.4661,-0.4661,-0.4395,-0.3871,-0.3499,-0.2782,-0.1979,-0.1526,-0.1166,-0.0987,-0.1436,-0.2064,-0.2785,-0.2875,-0.2872,-0.2865,-0.2867,-0.2868,-0.2867,-0.2867,-0.295,-0.3201,-0.3198,-0.3387,-0.3846,-0.3855,-0.4032,-0.4204,-0.3755,-0.3578,-0.3482,-0.3121,-0.2862,-0.2227,-0.0178,0.125,0.1425,0.1397,0.1353,0.1306,0.1272,0.1271,0.1293,0.1299,0.1313,0.1342,0.1478,0.1705,0.1942,0.2143,0.251,0.3061,0.3372,0.3604,0.3763,0.3765,0.3919,0.4307,0.4307,0.4698,0.5404,0.5572,0.5814,0.6268,0.6518,0.6669,0.6902,0.7211,0.7671,0.8069,0.8124,0.8822,1.011,1.032,1.0942,1.197,1.2529,1.3154,1.4245,1.4912,1.5308,1.5692,1.5946,1.6122,1.6163,1.6427,1.6694,1.7018,1.7135,1.7268,1.7473,1.7935,1.8691,1.9333,1.9575,1.998,2.0841,2.1497,2.1742,2.1924,2.2017,2.2331,2.297,2.3425,2.3648,2.391,2.4154,2.4189,2.4189,2.4189,2.4273,-0.541,-0.528,-0.528,-0.5102,-0.4924,-0.4924,-0.4656,-0.4391,-0.3941,-0.3224,-0.251,-0.1705,-0.1346,-0.1166,-0.1525,-0.2064,-0.2604,-0.2785,-0.2875,-0.2875,-0.2875,-0.2875,-0.2875,-0.2875,-0.3051,-0.3136,-0.3226,-0.3406,-0.3857,-0.3765,-0.3972,-0.4186,-0.3879,-0.3609,-0.355,-0.325,-0.2781,-0.1885,-0.0807,0.0179,0.1254,0.1407,0.1381,0.1361,0.1331,0.132,0.1331,0.1332,0.1337,0.1514,0.1729,0.1869,0.2107,0.2384,0.2746,0.3061,0.3217,0.3374,0.3526,0.3452,0.3528,0.3761,0.4075,0.4389,0.4945,0.5471,0.6,0.6417,0.6729,0.6932,0.7159,0.7327,0.762,0.8112,0.8286,0.8871,1.01,1.06,1.1123,1.2471,1.3335,1.3926,1.4264,1.4799,1.5234,1.5668,1.577,1.6005,1.6326,1.6439,1.6668,1.6984,1.7027,1.7035,1.7642,1.8014,1.856,1.8911,1.9252,1.9737,2.039,2.0657,2.0907,2.1167,2.1299,2.1747,2.2495,2.3274,2.3485,2.3743,2.3975,2.4085,2.4189,2.4154,2.4166,-0.5644,-0.5463,-0.5463,-0.5371,-0.5102,-0.5099,-0.501,-0.4748,-0.4117,-0.3583,-0.2868,-0.2063,-0.1525,-0.1436,-0.1615,-0.1974,-0.2424,-0.2694,-0.2873,-0.2963,-0.2963,-0.2962,-0.2962,-0.2964,-0.2963,-0.3139,-0.3227,-0.3417,-0.3803,-0.3803,-0.4027,-0.4376,-0.4025,-0.3751,-0.3711,-0.3386,-0.2717,-0.1993,-0.1451,-0.0452,0.0807,0.1063,0.1231,0.1316,0.1213,0.1199,0.1363,0.1362,0.1452,0.1624,0.1765,0.198,0.2195,0.2501,0.2801,0.3021,0.3099,0.3175,0.3328,0.3231,0.3217,0.3604,0.3921,0.4233,0.4704,0.5317,0.594,0.6495,0.6647,0.6894,0.7315,0.7503,0.7706,0.816,0.8341,0.8912,1.0218,1.055,1.1506,1.28,1.3607,1.4032,1.444,1.4714,1.5212,1.5792,1.5915,1.6228,1.6531,1.6766,1.6839,1.7299,1.7308,1.743,1.7895,1.8341,1.861,1.8909,1.8981,1.9429,1.9727,1.991,2.0114,2.041,2.0892,2.1346,2.1995,2.2895,2.3374,2.3598,2.3663,2.3727,2.3864,2.4097,2.4085,-0.5733,-0.5644,-0.5733,-0.5552,-0.5371,-0.5371,-0.528,-0.4921,-0.4295,-0.3762,-0.3138,-0.2511,-0.1884,-0.1525,-0.1436,-0.1795,-0.2334,-0.2515,-0.2781,-0.3229,-0.3051,-0.3051,-0.3139,-0.2963,-0.2879,-0.2971,-0.3144,-0.3358,-0.3699,-0.3885,-0.4202,-0.4448,-0.4202,-0.4016,-0.3813,-0.3367,-0.3052,-0.2586,-0.166,-0.064,-0.0,0.0448,0.0894,0.1254,0.0983,0.0974,0.1395,0.1391,0.1401,0.1423,0.1576,0.1871,0.2216,0.2476,0.2655,0.293,0.3086,0.317,0.3165,0.3114,0.3243,0.3622,0.3929,0.4247,0.4779,0.5188,0.5726,0.6414,0.6546,0.6624,0.7374,0.7588,0.7789,0.8214,0.8397,0.8836,0.9634,1.0319,1.1379,1.2915,1.3476,1.3815,1.4413,1.4746,1.516,1.5911,1.6387,1.6735,1.6911,1.7132,1.7476,1.7692,1.7679,1.7681,1.8208,1.8696,1.8826,1.901,1.8991,1.9129,1.9399,1.9574,1.9717,2.0032,2.0719,2.1256,2.1679,2.254,2.2983,2.3183,2.3225,2.3276,2.3359,2.3484,2.3841,-0.5733,-0.5733,-0.5733,-0.5644,-0.5644,-0.5644,-0.5371,-0.501,-0.4741,-0.4208,-0.3497,-0.2868,-0.2422,-0.1974,-0.1615,-0.1526,-0.1795,-0.2244,-0.2872,-0.3408,-0.3227,-0.3141,-0.3141,-0.2963,-0.2895,-0.2926,-0.3022,-0.3239,-0.3578,-0.3681,-0.4007,-0.4438,-0.4286,-0.4197,-0.4075,-0.3721,-0.3382,-0.2967,-0.185,-0.0824,-0.009,0.0,0.0628,0.1257,0.1256,0.1251,0.1334,0.1421,0.1426,0.1435,0.1582,0.1874,0.2138,0.2291,0.2538,0.285,0.2846,0.287,0.2991,0.2895,0.2939,0.3229,0.3534,0.3901,0.4411,0.4925,0.5497,0.6207,0.6389,0.6871,0.7545,0.7774,0.7997,0.8484,0.8542,0.8805,0.9698,1.0672,1.1844,1.288,1.3307,1.3561,1.3937,1.4234,1.4873,1.5672,1.6124,1.6444,1.7225,1.7378,1.7542,1.7871,1.777,1.7854,1.8317,1.8701,1.881,1.8986,1.9005,1.89,1.9107,1.929,1.9403,1.9859,2.0607,2.1176,2.1589,2.2056,2.2551,2.2755,2.2842,2.2826,2.2682,2.2865,2.3231,-0.5773,-0.5735,-0.5733,-0.5733,-0.5733,-0.5733,-0.5552,-0.528,-0.5191,-0.4654,-0.3857,-0.3253,-0.2722,-0.2182,-0.1646,-0.1553,-0.1726,-0.236,-0.2983,-0.3501,-0.3315,-0.3238,-0.3266,-0.3113,-0.2955,-0.3078,-0.3085,-0.3308,-0.3657,-0.3566,-0.3987,-0.4528,-0.4471,-0.4374,-0.4343,-0.4087,-0.3733,-0.3031,-0.2066,-0.1019,0.0,0.0,0.0269,0.0808,0.1167,0.1256,0.1166,0.1256,0.1436,0.1433,0.1505,0.1729,0.2008,0.2086,0.2325,0.2557,0.2638,0.2737,0.2856,0.2772,0.2749,0.2944,0.325,0.3696,0.4191,0.4696,0.5264,0.5933,0.627,0.6751,0.7442,0.7852,0.8028,0.838,0.8565,0.8995,0.9907,1.076,1.1838,1.2753,1.3307,1.3476,1.3678,1.4115,1.4674,1.5493,1.597,1.6428,1.7349,1.7498,1.7751,1.7848,1.7987,1.8154,1.8506,1.8682,1.8756,1.8893,1.8974,1.8892,1.8918,1.9111,1.9278,2.004,2.0803,2.1345,2.1796,2.2139,2.2528,2.2518,2.2499,2.2246,2.216,2.2319,2.2659,-0.5839,-0.5749,-0.5746,-0.5752,-0.5754,-0.5768,-0.5692,-0.5676,-0.5497,-0.4961,-0.4254,-0.3585,-0.2965,-0.2234,-0.1789,-0.1692,-0.2139,-0.2502,-0.3032,-0.3359,-0.335,-0.3377,-0.3615,-0.3385,-0.3226,-0.3242,-0.3148,-0.3471,-0.3824,-0.373,-0.4058,-0.471,-0.4755,-0.4654,-0.4501,-0.4354,-0.4022,-0.3409,-0.2306,-0.1228,0.0,0.0,0.0,0.0,0.0898,0.1078,0.0808,0.1076,0.1346,0.1346,0.1433,0.1504,0.1742,0.1996,0.2135,0.235,0.2606,0.2694,0.2698,0.2721,0.2776,0.2889,0.3273,0.3626,0.4045,0.4418,0.4962,0.5732,0.5954,0.6401,0.7048,0.7492,0.7929,0.8229,0.8468,0.9192,1.0379,1.0638,1.1419,1.262,1.3197,1.3476,1.3652,1.4203,1.4796,1.547,1.5951,1.6609,1.7261,1.756,1.7764,1.7874,1.8028,1.8231,1.8434,1.8567,1.8655,1.8758,1.8916,1.8861,1.8881,1.9072,1.9199,2.0046,2.0903,2.1447,2.1903,2.2124,2.2212,2.2177,2.2,2.1729,2.1753,2.1978,2.234,-0.5885,-0.586,-0.586,-0.5858,-0.5874,-0.595,-0.5895,-0.5707,-0.5611,-0.532,-0.4686,-0.3767,-0.3209,-0.2744,-0.1902,-0.1616,-0.18,-0.2177,-0.2645,-0.3098,-0.3284,-0.3573,-0.3782,-0.371,-0.3654,-0.3594,-0.3602,-0.3733,-0.3897,-0.3997,-0.4314,-0.474,-0.4812,-0.4806,-0.4626,-0.4512,-0.447,-0.4224,-0.3322,-0.1818,0.0,0.0,0.0,0.0,0.0629,0.0629,0.0269,0.0628,0.1076,0.1346,0.1436,0.151,0.1655,0.1886,0.2118,0.2275,0.2525,0.2714,0.2755,0.2797,0.2879,0.2825,0.3191,0.3381,0.3471,0.4115,0.4622,0.5146,0.5564,0.6105,0.6863,0.7253,0.761,0.8092,0.8422,0.8932,0.9811,1.0465,1.1067,1.1951,1.2675,1.3203,1.3483,1.3815,1.4321,1.5075,1.5658,1.6147,1.6878,1.7456,1.7538,1.787,1.7989,1.8175,1.8362,1.8434,1.8576,1.8736,1.8867,1.8967,1.8982,1.9259,1.9338,1.9639,2.0682,2.1404,2.1603,2.1861,2.1857,2.193,2.1903,2.18,2.1699,2.179,2.2221,-0.6029,-0.598,-0.598,-0.5977,-0.5988,-0.6059,-0.5992,-0.5894,-0.5892,-0.5703,-0.5133,-0.4184,-0.3634,-0.3276,-0.222,-0.1738,-0.1738,-0.2123,-0.2496,-0.3052,-0.3647,-0.3952,-0.3962,-0.3886,-0.3734,-0.3666,-0.3869,-0.3793,-0.3723,-0.3831,-0.4236,-0.4738,-0.4836,-0.4834,-0.4732,-0.4636,-0.4618,-0.4468,-0.3944,-0.2811,-0.1235,-0.0376,0.0,0.0,0.0273,0.0272,0.009,0.0269,0.0538,0.0807,0.1256,0.1606,0.1584,0.1966,0.2104,0.2187,0.2524,0.2709,0.2751,0.2822,0.2842,0.2879,0.3172,0.3357,0.3516,0.4004,0.4569,0.4872,0.5344,0.5957,0.6557,0.7058,0.753,0.8068,0.832,0.8765,0.9582,1.0147,1.0739,1.1577,1.2277,1.2966,1.3228,1.3483,1.399,1.4573,1.4985,1.556,1.6214,1.6796,1.7294,1.7546,1.787,1.8031,1.8201,1.8282,1.8434,1.8531,1.8674,1.8815,1.9155,1.9341,1.9516,1.9744,2.0572,2.1231,2.1404,2.1593,2.1819,2.1828,2.1921,2.1862,2.1702,2.1789,2.2209,-0.6206,-0.6102,-0.6108,-0.6105,-0.6108,-0.6121,-0.6149,-0.613,-0.6143,-0.595,-0.5566,-0.4695,-0.4171,-0.3931,-0.2558,-0.1971,-0.2068,-0.2264,-0.2632,-0.3302,-0.4001,-0.4424,-0.4134,-0.4081,-0.3809,-0.3522,-0.3736,-0.3731,-0.3732,-0.3528,-0.393,-0.4636,-0.4834,-0.4832,-0.4832,-0.4734,-0.4638,-0.452,-0.4276,-0.3837,-0.2624,-0.1341,0.0,0.0,0.0,0.0,0.0,0.0,0.0,0.0,0.0,0.1524,0.1515,0.1982,0.2111,0.2104,0.2355,0.2608,0.2698,0.2779,0.2921,0.2872,0.3203,0.3496,0.3624,0.4061,0.4522,0.4751,0.5181,0.5653,0.6367,0.7051,0.7548,0.8051,0.8217,0.8662,0.9367,0.9864,1.0401,1.1427,1.2053,1.2558,1.301,1.3351,1.3698,1.4294,1.4663,1.5151,1.5733,1.6312,1.6804,1.7057,1.7456,1.7781,1.7951,1.8201,1.8282,1.8362,1.8531,1.8745,1.9101,1.9399,1.9687,2.0108,2.0489,2.0799,2.1088,2.1359,2.1655,2.1786,2.184,2.1679,2.1596,2.1891,2.2208,-0.6255,-0.6227,-0.623,-0.623,-0.6244,-0.6323,-0.6358,-0.6352,-0.6355,-0.6142,-0.5763,-0.487,-0.448,-0.4501,-0.3099,-0.2408,-0.2604,-0.2405,-0.2703,-0.3698,-0.4395,-0.4706,-0.4604,-0.4528,-0.4232,-0.3833,-0.3428,-0.353,-0.3633,-0.3934,-0.4539,-0.4642,-0.4736,-0.4834,-0.4834,-0.4834,-0.4734,-0.4634,-0.4516,-0.4377,-0.3925,-0.2605,-0.1325,-0.065,-0.0183,0.0,0.0,0.0,0.0,0.0,0.0628,0.1166,0.1606,0.1836,0.1884,0.1944,0.2187,0.2422,0.2399,0.2613,0.2835,0.303,0.3256,0.3456,0.368,0.402,0.4355,0.4545,0.4818,0.5369,0.6184,0.6949,0.7472,0.7891,0.8158,0.8328,0.8874,0.9531,1.0248,1.09,1.1774,1.2674,1.3268,1.3542,1.379,1.4117,1.4426,1.4783,1.5242,1.5824,1.6237,1.6558,1.7049,1.7456,1.7861,1.8031,1.8121,1.8253,1.844,1.8582,1.9012,1.9327,1.9595,1.9776,2.002,2.0362,2.0781,2.1111,2.1359,2.1552,2.1772,2.1808,2.1829,2.2029,2.2228,-0.6347,-0.635,-0.6347,-0.6347,-0.6355,-0.641,-0.6437,-0.6437,-0.6437,-0.6337,-0.6024,-0.5293,-0.5094,-0.5127,-0.3899,-0.3297,-0.3022,-0.2726,-0.2726,-0.3328,-0.4033,-0.4433,-0.4533,-0.4634,-0.4433,-0.363,-0.2822,-0.2723,-0.3027,-0.2925,-0.3025,-0.4343,-0.4642,-0.4742,-0.4841,-0.4839,-0.4836,-0.4736,-0.4535,-0.4314,-0.3874,-0.325,-0.2217,-0.1129,0.0,0.0,0.0,0.0,0.0,0.0,0.0,0.0807,0.152,0.1759,0.1729,0.1797,0.1942,0.2179,0.233,0.2422,0.2707,0.2908,0.3241,0.3394,0.3705,0.3983,0.425,0.4409,0.4646,0.5205,0.6111,0.6905,0.7422,0.7807,0.8116,0.8329,0.8607,0.9103,0.9743,1.0354,1.13,1.213,1.2762,1.3389,1.3806,1.4012,1.4022,1.4381,1.4496,1.5075,1.565,1.6064,1.664,1.7131,1.7619,1.787,1.8031,1.8215,1.8417,1.8512,1.8798,1.9097,1.9461,1.9661,1.9864,2.0165,2.055,2.08,2.1174,2.1524,2.1763,2.188,2.1962,2.1966,2.2179,-0.6437,-0.6437,-0.6437,-0.6437,-0.6437,-0.6437,-0.6437,-0.6437,-0.6437,-0.6437,-0.6323,-0.5839,-0.5577,-0.5506,-0.467,-0.3983,-0.3515,-0.3226,-0.3026,-0.3025,-0.3833,-0.4236,-0.4334,-0.4533,-0.4232,-0.313,-0.2219,-0.2017,-0.1917,-0.121,-0.2017,-0.3433,-0.4345,-0.4545,-0.4642,-0.4742,-0.4841,-0.4736,-0.4636,-0.4334,-0.372,-0.3304,-0.2551,-0.1432,0.0,0.0,0.0,0.0,0.0,0.0,0.0,0.0,0.1072,0.1591,0.1828,0.1651,0.1794,0.2028,0.2177,0.2259,0.251,0.2689,0.3142,0.3411,0.3535,0.3853,0.4138,0.4311,0.4588,0.5092,0.5951,0.6593,0.7249,0.7807,0.8025,0.8292,0.8564,0.8736,0.9252,0.9981,1.1051,1.1964,1.2693,1.3315,1.3607,1.3818,1.3919,1.398,1.421,1.4521,1.5261,1.5639,1.6247,1.6704,1.7163,1.7716,1.7887,1.8062,1.8232,1.8545,1.8766,1.9028,1.9406,1.9603,1.977,2.009,2.0326,2.0652,2.1028,2.1451,2.1688,2.173,2.1799,2.1863,2.209,-0.6437,-0.6437,-0.6437,-0.6437,-0.6437,-0.6437,-0.6437,-0.6437,-0.6437,-0.6437,-0.6331,-0.5817,-0.5912,-0.5827,-0.4929,-0.4022,-0.3626,-0.3426,-0.3327,-0.3225,-0.3831,-0.4336,-0.4433,-0.4634,-0.4234,-0.3128,-0.2219,-0.1816,-0.1715,-0.1513,-0.1816,-0.2825,-0.3531,-0.3934,-0.4135,-0.4535,-0.4738,-0.4736,-0.4634,-0.4537,-0.4227,-0.3488,-0.2646,-0.1624,-0.0937,-0.0462,-0.0092,0.0,0.0,0.0,0.0,0.0,0.0448,0.1072,0.1327,0.1486,0.1645,0.1798,0.1859,0.207,0.2322,0.2668,0.292,0.3252,0.3512,0.3779,0.3993,0.4263,0.4553,0.5089,0.5826,0.6392,0.6903,0.7534,0.794,0.8116,0.8472,0.8664,0.9012,0.9763,1.0865,1.1903,1.2528,1.317,1.3756,1.4054,1.4134,1.4302,1.45,1.4878,1.5248,1.5591,1.5818,1.6308,1.6794,1.7343,1.7677,1.7834,1.8118,1.8667,1.882,1.905,1.9349,1.9692,1.9818,2.0009,2.0252,2.0578,2.0808,2.1125,2.1399,2.155,2.1575,2.1614,2.1869,-0.6437,-0.6437,-0.6437,-0.6437,-0.6437,-0.6437,-0.6437,-0.6437,-0.6437,-0.6437,-0.6337,-0.6134,-0.6134,-0.6137,-0.5837,-0.5035,-0.4433,-0.3728,-0.3528,-0.3429,-0.3833,-0.4133,-0.4331,-0.4632,-0.4533,-0.3831,-0.3025,-0.2119,-0.1615,-0.1615,-0.1817,-0.2121,-0.2523,-0.2825,-0.3328,-0.3935,-0.4336,-0.4435,-0.4636,-0.4636,-0.4338,-0.3494,-0.2456,-0.1725,-0.1228,-0.0837,-0.0455,-0.009,0.0,0.0,0.0,0.0,0.0,0.0,0.0,0.1327,0.1489,0.156,0.1708,0.1843,0.2074,0.2393,0.264,0.2973,0.3318,0.3579,0.3847,0.4225,0.473,0.5287,0.5855,0.6408,0.7087,0.7548,0.7768,0.8032,0.8316,0.8468,0.8945,0.9504,1.0462,1.1344,1.2264,1.3012,1.3878,1.4204,1.4352,1.4604,1.4856,1.5093,1.5342,1.5539,1.5835,1.6171,1.6576,1.7016,1.745,1.7648,1.8037,1.8498,1.8946,1.9132,1.9536,1.9972,2.0053,1.9999,2.0327,2.0653,2.0762,2.0829,2.074,2.0771,2.1135,2.1379,2.17,-0.6437,-0.6437,-0.6437,-0.6437,-0.6437,-0.6437,-0.6437,-0.6437,-0.6437,-0.6456,-0.6469,-0.6353,-0.6366,-0.6396,-0.6287,-0.5967,-0.5345,-0.423,-0.3831,-0.3732,-0.3934,-0.4031,-0.413,-0.4331,-0.4634,-0.4232,-0.3731,-0.2827,-0.2121,-0.1718,-0.1617,-0.1717,-0.1717,-0.2121,-0.2927,-0.3635,-0.3835,-0.4236,-0.4535,-0.4535,-0.4036,-0.3224,-0.2192,-0.1355,-0.1346,-0.1324,-0.0926,-0.055,-0.0274,0.0,0.0,0.0,0.0,0.0,0.0,0.0989,0.1239,0.1492,0.1567,0.1714,0.1853,0.2087,0.2425,0.2666,0.3007,0.3458,0.3902,0.4316,0.4601,0.5194,0.5818,0.6452,0.7031,0.746,0.7683,0.7963,0.8205,0.8466,0.877,0.9392,1.008,1.0954,1.1874,1.2797,1.366,1.423,1.4384,1.4727,1.4995,1.512,1.5335,1.5535,1.5828,1.6111,1.6413,1.6682,1.704,1.7247,1.779,1.8423,1.8853,1.9246,1.9625,1.994,2.0035,2.0024,2.0369,2.0597,2.0734,2.0643,2.0161,2.0236,2.0933,2.1369,2.168,-0.6437,-0.6437,-0.6437,-0.6437,-0.6437,-0.6437,-0.6437,-0.6437,-0.6437,-0.6502,-0.6559,-0.6494,-0.6545,-0.6546,-0.6305,-0.5715,-0.5153,-0.4732,-0.4533,-0.4433,-0.4437,-0.4435,-0.4533,-0.4732,-0.4634,-0.4334,-0.4033,-0.3632,-0.2928,-0.2121,-0.1617,-0.1717,-0.212,-0.2522,-0.3029,-0.3633,-0.4236,-0.4636,-0.4734,-0.4738,-0.4545,-0.3636,-0.2211,-0.1196,-0.1182,-0.1554,-0.1435,-0.1133,-0.0845,0.0,0.0,0.0,0.0,0.0,0.0,0.0364,0.0815,0.143,0.1423,0.1576,0.1725,0.1878,0.2125,0.2467,0.2904,0.3435,0.3905,0.4261,0.4446,0.4868,0.5571,0.5869,0.6511,0.7048,0.7503,0.7849,0.8204,0.8378,0.8686,0.9235,0.9828,1.0626,1.1482,1.2502,1.342,1.3974,1.4524,1.4855,1.5094,1.5291,1.5332,1.5647,1.57,1.5998,1.6212,1.6499,1.665,1.6921,1.7469,1.816,1.8482,1.8823,1.9315,1.9579,1.9711,2.0056,2.0283,2.0499,2.0731,2.0676,2.0463,2.0706,2.1117,2.1457,2.1477,-0.6437,-0.6437,-0.6437,-0.6437,-0.6437,-0.6437,-0.6437,-0.6437,-0.6439,-0.6464,-0.6502,-0.6467,-0.6502,-0.6479,-0.6233,-0.5989,-0.5644,-0.5238,-0.4935,-0.4935,-0.4839,-0.4738,-0.4638,-0.4836,-0.4836,-0.4535,-0.4133,-0.3934,-0.343,-0.2928,-0.2424,-0.212,-0.2522,-0.2927,-0.323,-0.3731,-0.4033,-0.4334,-0.4634,-0.4738,-0.4543,-0.3731,-0.271,-0.179,-0.2268,-0.2055,-0.1643,-0.1422,-0.1228,-0.0757,-0.0374,0.0,0.0,0.0,0.0186,0.083,0.0918,0.109,0.1346,0.1512,0.1585,0.1742,0.2069,0.2411,0.295,0.3312,0.38,0.418,0.4472,0.5006,0.5594,0.5933,0.6532,0.6972,0.7361,0.762,0.8004,0.8302,0.8606,0.9172,0.9627,1.0412,1.1106,1.1966,1.2851,1.3522,1.4088,1.4453,1.4912,1.5367,1.5516,1.5665,1.5737,1.5899,1.5937,1.6097,1.6299,1.6514,1.6818,1.7447,1.7892,1.832,1.8808,1.9271,1.9513,1.9877,2.0192,2.052,2.0694,2.0749,2.0871,2.0934,2.0973,2.0857,2.1136,-0.6437,-0.6437,-0.6437,-0.6437,-0.6437,-0.6437,-0.6437,-0.6437,-0.6437,-0.6453,-0.6486,-0.6513,-0.6507,-0.6358,-0.6279,-0.629,-0.6345,-0.5741,-0.5338,-0.5238,-0.5138,-0.5039,-0.4939,-0.5138,-0.5138,-0.4935,-0.4638,-0.4336,-0.4034,-0.3732,-0.3228,-0.2623,-0.2927,-0.323,-0.343,-0.3831,-0.4133,-0.4334,-0.4634,-0.4738,-0.4642,-0.4034,-0.3704,-0.3479,-0.3258,-0.2848,-0.2033,-0.1725,-0.1631,-0.1349,-0.0858,0.0,0.0,0.0,0.0,0.0942,0.1126,0.1114,0.1373,0.1446,0.1514,0.1765,0.2029,0.2394,0.3012,0.3364,0.3674,0.409,0.4418,0.4965,0.5629,0.6048,0.6463,0.6815,0.7175,0.742,0.7777,0.8203,0.8642,0.9111,0.9633,1.0058,1.0756,1.1463,1.217,1.305,1.3539,1.4022,1.4688,1.5255,1.552,1.567,1.5725,1.5825,1.5858,1.5998,1.6043,1.6175,1.6478,1.6854,1.7323,1.7781,1.811,1.8627,1.918,1.9554,1.9828,2.0292,2.0645,2.0712,2.0784,2.0696,2.0667,2.0562,2.0756,-0.6437,-0.6437,-0.6437,-0.6437,-0.6437,-0.6437,-0.6437,-0.6437,-0.6437,-0.6494,-0.6578,-0.6684,-0.6594,-0.6401,-0.6412,-0.6417,-0.6339,-0.6042,-0.5842,-0.5641,-0.5441,-0.5338,-0.5338,-0.5338,-0.534,-0.5338,-0.5037,-0.4738,-0.4537,-0.4435,-0.3932,-0.333,-0.343,-0.3632,-0.3833,-0.4033,-0.4332,-0.4533,-0.4732,-0.4738,-0.4742,-0.4642,-0.4533,-0.4437,-0.4031,-0.3525,-0.3116,-0.2587,-0.2184,-0.1895,-0.147,-0.0881,0.0,0.0,0.0483,0.0869,0.1245,0.1233,0.1407,0.1471,0.1533,0.1803,0.209,0.2478,0.3023,0.3088,0.3413,0.408,0.4342,0.4727,0.5308,0.5766,0.6331,0.6765,0.7135,0.7581,0.7854,0.8244,0.8687,0.9151,0.9517,0.992,1.0314,1.09,1.1683,1.2565,1.3534,1.4016,1.4496,1.5064,1.535,1.5527,1.5724,1.5792,1.5798,1.5879,1.6044,1.6116,1.6371,1.6535,1.6793,1.7145,1.7606,1.8071,1.8535,1.8996,1.9554,1.992,2.0292,2.0555,2.0674,2.0578,2.0641,2.066,2.0925,-0.6437,-0.6437,-0.6437,-0.6437,-0.6437,-0.6437,-0.6437,-0.6437,-0.6437,-0.6458,-0.6513,-0.6548,-0.6529,-0.6472,-0.6469,-0.6486,-0.6339,-0.6139,-0.5939,-0.5939,-0.5739,-0.5639,-0.5639,-0.5639,-0.5539,-0.5438,-0.5238,-0.5037,-0.4736,-0.4736,-0.4634,-0.4232,-0.4133,-0.4234,-0.4435,-0.4435,-0.4634,-0.4734,-0.4832,-0.4836,-0.4836,-0.4839,-0.4742,-0.4748,-0.4645,-0.4343,-0.4131,-0.3491,-0.3103,-0.2807,-0.228,-0.1494,-0.0704,-0.0297,0.0099,0.0492,0.0877,0.1161,0.1244,0.1317,0.1586,0.1866,0.216,0.2452,0.2924,0.3071,0.3483,0.3876,0.4168,0.4554,0.5229,0.5749,0.6241,0.6695,0.7201,0.7655,0.7907,0.8279,0.8466,0.8894,0.9225,0.9529,1.0019,1.0413,1.1194,1.2073,1.3044,1.3913,1.4394,1.4879,1.5261,1.5452,1.5642,1.5737,1.5832,1.5927,1.6021,1.6116,1.6211,1.6305,1.64,1.6683,1.7052,1.752,1.7978,1.8535,1.9096,1.9654,2.0019,2.0292,2.0473,2.0456,2.0538,2.0718,2.0997,-0.6437,-0.6437,-0.6437,-0.6437,-0.6437,-0.6437,-0.6437,-0.6437,-0.6437,-0.6437,-0.6437,-0.6437,-0.6437,-0.6437,-0.6439,-0.6442,-0.6339,-0.6239,-0.6042,-0.5942,-0.5839,-0.5739,-0.5737,-0.5639,-0.5541,-0.534,-0.524,-0.5037,-0.4937,-0.4834,-0.4734,-0.4734,-0.4834,-0.4734,-0.4734,-0.4832,-0.4832,-0.4832,-0.4832,-0.4832,-0.4832,-0.4834,-0.4836,-0.4843,-0.474,-0.4744,-0.4634,-0.4203,-0.3901,-0.361,-0.3099,-0.2394,-0.1606,-0.1007,-0.0701,-0.0298,0.0,0.0393,0.0584,0.1246,0.1623,0.1899,0.2014,0.2306,0.2608,0.3032,0.3162,0.3759,0.3956,0.4349,0.5033,0.5577,0.5997,0.6463,0.7379,0.7828,0.7907,0.815,0.8325,0.8616,0.9023,0.943,0.9826,1.0314,1.1194,1.1975,1.2953,1.3721,1.4196,1.4682,1.5172,1.5356,1.5547,1.5642,1.5737,1.5737,1.5832,1.5927,1.6021,1.6021,1.6211,1.64,1.6588,1.7052,1.7606,1.8172,1.8727,1.9188,1.9654,2.011,2.0209,2.0391,2.0382,2.0555,2.0637,-0.6437,-0.6437,-0.6437,-0.6437,-0.6437,-0.6437,-0.6437,-0.6437,-0.6437,-0.6437,-0.6437,-0.6437,-0.6437,-0.6437,-0.6437,-0.6437,-0.6437,-0.6337,-0.6239,-0.6039,-0.5937,-0.5737,-0.5536,-0.5539,-0.5541,-0.5539,-0.5338,-0.514,-0.5138,-0.4935,-0.4834,-0.4841,-0.4847,-0.4853,-0.4839,-0.4832,-0.4832,-0.4836,-0.4742,-0.4832,-0.4832,-0.4832,-0.4834,-0.4836,-0.4836,-0.4839,-0.4732,-0.4724,-0.432,-0.4024,-0.4026,-0.3417,-0.262,-0.2321,-0.2014,-0.1609,-0.1508,-0.1207,-0.0704,0.0876,0.1637,0.1832,0.1953,0.2158,0.2558,0.2686,0.2914,0.3606,0.3717,0.382,0.4423,0.5214,0.5743,0.6312,0.7239,0.7943,0.8021,0.8017,0.8287,0.852,0.9023,0.9529,0.9821,1.0216,1.1096,1.1975,1.2856,1.3534,1.3913,1.449,1.5077,1.5267,1.5452,1.5635,1.573,1.5635,1.5635,1.573,1.5832,1.592,1.6021,1.6211,1.6494,1.6676,1.7138,1.78,1.8265,1.8635,1.9188,1.9654,2.011,2.0209,2.0292,2.0382,2.0464,-0.6437,-0.6437,-0.6437,-0.6437,-0.6437,-0.6437,-0.6437,-0.6437,-0.6437,-0.6437,-0.6437,-0.6437,-0.6437,-0.6437,-0.6437,-0.6437,-0.6437,-0.6437,-0.6239,-0.6237,-0.6134,-0.6037,-0.5839,-0.5639,-0.5541,-0.534,-0.524,-0.5138,-0.4935,-0.4935,-0.4935,-0.4841,-0.489,-0.4922,-0.4908,-0.4885,-0.4754,-0.4798,-0.4774,-0.4832,-0.4832,-0.4832,-0.4832,-0.4832,-0.4832,-0.4834,-0.4839,-0.4834,-0.4634,-0.4437,-0.4437,-0.4036,-0.3429,-0.3127,-0.3029,-0.2927,-0.2927,-0.2018,-0.0908,0.0398,0.129,0.1588,0.1888,0.2097,0.2402,0.2611,0.3026,0.3433,0.3536,0.3734,0.4131,0.5233,0.5897,0.6294,0.7012,0.771,0.8001,0.8007,0.8134,0.8333,0.8733,0.913,0.9426,0.992,1.0801,1.1683,1.2565,1.3249,1.3727,1.4304,1.4885,1.5172,1.5363,1.554,1.5635,1.554,1.5635,1.573,1.5825,1.5825,1.6021,1.6116,1.64,1.6581,1.7052,1.7426,1.78,1.8172,1.8727,1.9196,1.9563,2.0019,2.0201,2.0201,2.0382,-0.6437,-0.6437,-0.6437,-0.6437,-0.6437,-0.6437,-0.6437,-0.6437,-0.6437,-0.6437,-0.6437,-0.6437,-0.6437,-0.6437,-0.6437,-0.6437,-0.6437,-0.6539,-0.6437,-0.6437,-0.6437,-0.6137,-0.5939,-0.5842,-0.5639,-0.5338,-0.524,-0.5138,-0.5135,-0.5138,-0.5161,-0.5203,-0.515,-0.532,-0.5214,-0.5188,-0.4888,-0.48,-0.475,-0.4832,-0.4832,-0.4832,-0.4832,-0.4832,-0.4832,-0.4834,-0.4834,-0.4832,-0.4834,-0.4734,-0.4535,-0.4237,-0.3932,-0.3732,-0.3635,-0.3636,-0.3332,-0.2523,-0.1412,-0.0706,0.01,0.0604,0.1313,0.202,0.2321,0.2521,0.2925,0.323,0.3433,0.3533,0.3934,0.5039,0.5536,0.5834,0.6537,0.7332,0.7736,0.7739,0.8038,0.8233,0.8432,0.8733,0.9133,0.9723,1.0413,1.1296,1.2175,1.2856,1.3539,1.4112,1.4688,1.4981,1.5172,1.5356,1.5452,1.5452,1.5547,1.573,1.5825,1.5825,1.5832,1.6021,1.6305,1.6487,1.6676,1.6958,1.7239,1.7613,1.8179,1.8542,1.8912,1.9371,1.9928,2.0019,2.0019,-0.6437,-0.6437,-0.6437,-0.6437,-0.6437,-0.6437,-0.6437,-0.6437,-0.6437,-0.6437,-0.6437,-0.6437,-0.6437,-0.6437,-0.6437,-0.6437,-0.6437,-0.6642,-0.6539,-0.645,-0.6464,-0.6152,-0.5849,-0.5754,-0.5756,-0.5546,-0.5438,-0.5438,-0.5534,-0.5338,-0.5487,-0.5656,-0.5491,-0.5677,-0.5707,-0.5481,-0.5066,-0.4934,-0.4861,-0.4843,-0.4834,-0.4832,-0.4832,-0.4832,-0.4832,-0.4832,-0.4832,-0.4832,-0.4832,-0.4734,-0.4537,-0.4437,-0.4336,-0.4135,-0.3935,-0.3635,-0.3332,-0.2826,-0.2321,-0.1715,-0.1211,-0.0505,0.0606,0.1515,0.212,0.2322,0.2725,0.3029,0.323,0.323,0.3432,0.4031,0.473,0.5331,0.6032,0.6634,0.7235,0.7537,0.7836,0.8035,0.8233,0.8535,0.8931,0.9525,0.992,1.0708,1.159,1.2467,1.3147,1.4016,1.4496,1.4885,1.4981,1.5077,1.5172,1.5363,1.5452,1.5635,1.5825,1.5825,1.5832,1.5927,1.6218,1.6312,1.6312,1.6501,1.6777,1.7153,1.7621,1.7994,1.8179,1.8819,1.9379,1.9571,1.9571,-0.6437,-0.6437,-0.6437,-0.6437,-0.6437,-0.6437,-0.6437,-0.6437,-0.6437,-0.6437,-0.6437,-0.6437,-0.6437,-0.6437,-0.6437,-0.6437,-0.6437,-0.6439,-0.6439,-0.6461,-0.6611,-0.639,-0.6191,-0.6103,-0.5997,-0.5861,-0.5842,-0.5739,-0.5636,-0.5539,-0.5646,-0.5888,-0.5836,-0.6018,-0.6056,-0.5873,-0.5503,-0.5224,-0.5122,-0.4962,-0.4843,-0.4843,-0.4839,-0.4836,-0.4834,-0.4832,-0.4832,-0.4832,-0.4832,-0.4734,-0.4734,-0.4636,-0.4338,-0.4338,-0.4138,-0.3635,-0.3332,-0.3029,-0.2927,-0.2826,-0.2321,-0.1514,-0.0505,0.0505,0.1414,0.202,0.2323,0.2726,0.3029,0.313,0.323,0.3731,0.423,0.4732,0.5432,0.6034,0.6534,0.7033,0.7434,0.7939,0.8137,0.8333,0.8733,0.8931,0.9327,1.0117,1.0904,1.178,1.2759,1.3528,1.4208,1.4598,1.4885,1.4885,1.5077,1.5267,1.5452,1.554,1.5635,1.573,1.5832,1.5933,1.6123,1.6224,1.6218,1.6218,1.6319,1.669,1.7066,1.7167,1.7441,1.8179,1.8735,1.8928,1.9204,-0.6437,-0.6437,-0.6437,-0.6437,-0.6437,-0.6437,-0.6437,-0.6437,-0.6437,-0.6437,-0.6539,-0.6439,-0.6534,-0.6736,-0.6639,-0.6639,-0.6634,-0.6939,-0.6942,-0.6971,-0.6969,-0.6917,-0.6819,-0.6647,-0.6633,-0.6483,-0.6342,-0.6242,-0.6044,-0.5851,-0.5962,-0.6308,-0.6233,-0.6381,-0.644,-0.6503,-0.6283,-0.5977,-0.5552,-0.5226,-0.4974,-0.4865,-0.4869,-0.4839,-0.4834,-0.4834,-0.4834,-0.4834,-0.4832,-0.4832,-0.4832,-0.4734,-0.4537,-0.4336,-0.4237,-0.3734,-0.3534,-0.3533,-0.343,-0.3331,-0.2927,-0.2321,-0.1514,-0.0606,0.0505,0.1313,0.1918,0.2524,0.2827,0.3029,0.333,0.353,0.3831,0.4131,0.4732,0.5434,0.5932,0.6431,0.7033,0.764,0.7939,0.8134,0.8333,0.8435,0.8733,0.9422,0.9912,1.0596,1.177,1.2942,1.3624,1.422,1.4502,1.4694,1.4981,1.5077,1.5166,1.535,1.554,1.5635,1.5737,1.5832,1.5933,1.6028,1.613,1.613,1.6123,1.6224,1.6414,1.6602,1.6791,1.7434,1.7986,1.8179,1.855,-0.6437,-0.6437,-0.6437,-0.6437,-0.6437,-0.6437,-0.6437,-0.6437,-0.6437,-0.6539,-0.6642,-0.6539,-0.6639,-0.6939,-0.6839,-0.6839,-0.7036,-0.7138,-0.7241,-0.7453,-0.748,-0.7363,-0.7311,-0.736,-0.7146,-0.7083,-0.6948,-0.6659,-0.6673,-0.6414,-0.6318,-0.6798,-0.6611,-0.6671,-0.6901,-0.6912,-0.6774,-0.6677,-0.6088,-0.5584,-0.5129,-0.5012,-0.5033,-0.4951,-0.4834,-0.4834,-0.4834,-0.4834,-0.4832,-0.4832,-0.4832,-0.4832,-0.4634,-0.4334,-0.4135,-0.3934,-0.3734,-0.3732,-0.3833,-0.3734,-0.3533,-0.3027,-0.2321,-0.1514,-0.0606,0.0909,0.1818,0.2222,0.2424,0.2725,0.2925,0.3128,0.333,0.363,0.4033,0.4834,0.5536,0.6237,0.7036,0.754,0.7842,0.7939,0.8233,0.8336,0.8435,0.8825,0.9316,0.9805,1.0614,1.1991,1.2878,1.3665,1.413,1.4412,1.4688,1.4783,1.4885,1.507,1.5261,1.5452,1.5452,1.5642,1.5737,1.5927,1.6028,1.5933,1.5933,1.6028,1.6123,1.6218,1.6407,1.6683,1.7052,1.7434,1.79,-0.6437,-0.6437,-0.6437,-0.6437,-0.6437,-0.6437,-0.6437,-0.6437,-0.6437,-0.6437,-0.6539,-0.6642,-0.6742,-0.6942,-0.7138,-0.7138,-0.7238,-0.7338,-0.7338,-0.7381,-0.7582,-0.7671,-0.7494,-0.7572,-0.7452,-0.7381,-0.7253,-0.7006,-0.6884,-0.676,-0.662,-0.6809,-0.6762,-0.6986,-0.7054,-0.7054,-0.7027,-0.7039,-0.6634,-0.6112,-0.5721,-0.5558,-0.5544,-0.537,-0.5236,-0.5037,-0.5037,-0.4935,-0.4834,-0.4832,-0.4832,-0.4832,-0.4734,-0.4435,-0.4336,-0.4237,-0.4034,-0.4034,-0.4034,-0.3935,-0.3835,-0.3633,-0.3127,-0.2522,-0.1412,0.0505,0.1616,0.1818,0.2121,0.2322,0.2522,0.2725,0.2927,0.3128,0.333,0.4236,0.514,0.6139,0.7039,0.7341,0.7646,0.7842,0.8038,0.8137,0.8237,0.8531,0.9019,0.9422,0.9871,1.0874,1.187,1.2747,1.3665,1.4039,1.4334,1.4496,1.4688,1.4885,1.5077,1.5172,1.5172,1.5452,1.5642,1.5737,1.5825,1.5832,1.5832,1.5832,1.5927,1.6021,1.6116,1.64,1.6494,1.6878,1.7254,-0.6437,-0.6437,-0.6437,-0.6437,-0.6437,-0.6437,-0.6437,-0.6437,-0.6437,-0.6439,-0.6542,-0.6745,-0.6945,-0.7144,-0.7341,-0.7437,-0.7537,-0.754,-0.764,-0.7582,-0.7645,-0.7743,-0.7756,-0.7772,-0.7737,-0.7682,-0.7327,-0.7199,-0.7108,-0.6962,-0.6806,-0.688,-0.6967,-0.701,-0.7043,-0.7076,-0.7158,-0.7086,-0.6835,-0.6619,-0.622,-0.6088,-0.5777,-0.5592,-0.5338,-0.524,-0.5138,-0.4935,-0.4834,-0.4832,-0.4832,-0.4832,-0.4734,-0.4535,-0.4437,-0.4437,-0.4336,-0.4137,-0.4137,-0.4137,-0.4135,-0.3934,-0.3734,-0.3029,-0.2523,-0.0707,0.0909,0.1212,0.192,0.2222,0.2323,0.2424,0.2725,0.2927,0.3128,0.3732,0.4736,0.5839,0.6539,0.7045,0.7244,0.7441,0.7637,0.7739,0.7939,0.7942,0.8432,0.8726,0.9172,0.9786,1.078,1.1766,1.2729,1.3699,1.4229,1.4425,1.4496,1.4688,1.4796,1.4994,1.5096,1.5363,1.5547,1.5668,1.5763,1.5825,1.5825,1.5825,1.5825,1.5832,1.5927,1.6116,1.6218,1.6312,1.669,-0.642,-0.6434,-0.6437,-0.6437,-0.6437,-0.6437,-0.6437,-0.6439,-0.6439,-0.6639,-0.6842,-0.6942,-0.7247,-0.7447,-0.7643,-0.7842,-0.7842,-0.7839,-0.7939,-0.7972,-0.8066,-0.8026,-0.8022,-0.8147,-0.7905,-0.774,-0.7502,-0.7401,-0.7308,-0.7071,-0.694,-0.6994,-0.7021,-0.7048,-0.7078,-0.7056,-0.6991,-0.6986,-0.6997,-0.6948,-0.6677,-0.6424,-0.6049,-0.5725,-0.5445,-0.5343,-0.5238,-0.5135,-0.4935,-0.4834,-0.4834,-0.4832,-0.4734,-0.4636,-0.4636,-0.4636,-0.4537,-0.4437,-0.4338,-0.4338,-0.4237,-0.4137,-0.3939,-0.3536,-0.2928,-0.1817,-0.0303,0.0707,0.1414,0.192,0.2021,0.2222,0.2424,0.2725,0.2927,0.333,0.4435,0.5438,0.6039,0.6645,0.6942,0.7138,0.7338,0.7441,0.7543,0.7643,0.7746,0.7842,0.8182,0.9034,0.9933,1.0844,1.1841,1.2841,1.3998,1.4205,1.4208,1.4304,1.4502,1.4808,1.5038,1.5197,1.5403,1.5549,1.5639,1.5662,1.573,1.573,1.573,1.5825,1.5832,1.5927,1.6028,1.6123,1.6312,-0.6355,-0.6437,-0.6437,-0.6437,-0.6437,-0.6437,-0.6539,-0.6742,-0.6742,-0.6842,-0.7138,-0.7344,-0.7547,-0.7643,-0.7842,-0.7939,-0.7942,-0.7939,-0.8038,-0.8058,-0.8096,-0.8072,-0.8065,-0.8096,-0.7766,-0.7636,-0.7558,-0.75,-0.7464,-0.7189,-0.7076,-0.7084,-0.7111,-0.7084,-0.6999,-0.6978,-0.6967,-0.6953,-0.6904,-0.6853,-0.6782,-0.6637,-0.662,-0.6298,-0.5987,-0.5959,-0.5739,-0.5536,-0.5336,-0.5138,-0.4935,-0.4834,-0.4734,-0.4734,-0.4734,-0.4734,-0.4736,-0.4537,-0.4437,-0.4438,-0.4338,-0.4237,-0.4038,-0.3736,-0.3128,-0.2522,-0.1211,-0.0202,0.0505,0.1415,0.1718,0.192,0.2222,0.2524,0.2726,0.333,0.4133,0.5035,0.5737,0.6239,0.6642,0.6839,0.7135,0.7238,0.7238,0.7341,0.7547,0.7646,0.7772,0.8438,0.9042,1.0054,1.1071,1.2329,1.364,1.3895,1.4022,1.4112,1.422,1.4545,1.4824,1.5095,1.5193,1.5332,1.5434,1.556,1.5547,1.5642,1.5737,1.573,1.5825,1.5832,1.5927,1.6028,1.6123]}]]